Darstellungsparameter: Aktuell verwendete Einstellungen:
Skalierung der Graphiken ... ?
xyx+y,   Skalierungsfaktor:      Skalierung: Modus: x, Faktor: 1
Darstellungszeitraum ... ?
Vom - - bis: - -   Zeitraum: 25.04.2020 - 24.05.2020
Min/Max/Avg-Anzeige ... ?
Zeige MMA aktuell
Zeige MMA Monat
Zeige MMA alles
Zeige --A aktuell
Zeige --A Monat
Zeige --A alles
Keine MMA-Anzeige
MMA:
Keine MMA-Graphiken
MMA-Basis: 25.04.2020 - 24.05.2020
Quicknavigation für Darstellung... ?
Tage:      1T, 2T, 3T, 5T -1T -2T -3T -5T +1T +2T +3T +5T
Wochen: 1W, 2W, 3W -1W -2W -3W +1W +2W +3W
Monate: 1M, 3M, 6M -1M -3M -6M +1M +3M +6M
Jahre:    1J, 3J, 5J, 10J -1J -3J -5J -10J +1J +3J +5J +10J
Nutze für die Darstellung ... ?
Originaldaten oder Mittelwerte auf ...
Stundenbasis Tagesbasis Wochenbasis
Monatsbasis Jahresbasis      Datenbasis: Original-Daten
Darstellen als:
Statistik (Auto) Statistik J:M      Darstellung:
Zur Graphik,    zurück zur Übersicht aller Sensoren.
 
Tabellarische Datenbersicht: ?
 
Sensor: Nr:Datum:Temp:Feuchte:Taupunkt:
Aussen-T/F 1 25-04-2020 00:00:00 12.8 C 51 % 2.93 C
2 25-04-2020 00:05:00 12.8 C 53 % 3.47 C
3 25-04-2020 00:10:00 13.1 C 51 % 3.2 C
4 25-04-2020 00:15:00 13.1 C 51 % 3.2 C
5 25-04-2020 00:20:00 13.2 C 52 % 3.57 C
6 25-04-2020 00:25:00 13.1 C 52 % 3.48 C
7 25-04-2020 00:30:00 13.1 C 53 % 3.75 C
8 25-04-2020 00:35:00 13.1 C 53 % 3.75 C
9 25-04-2020 00:40:00 12.9 C 55 % 4.09 C
10 25-04-2020 00:45:00 12.7 C 56 % 4.16 C
11 25-04-2020 00:50:00 12.4 C 57 % 4.13 C
12 25-04-2020 00:55:00 12.3 C 59 % 4.53 C
13 25-04-2020 01:00:00 12.1 C 60 % 4.58 C
14 25-04-2020 01:05:00 11.9 C 61 % 4.63 C
15 25-04-2020 01:10:00 11.9 C 60 % 4.39 C
16 25-04-2020 01:15:00 12 C 61 % 4.72 C
17 25-04-2020 01:20:00 11.9 C 61 % 4.63 C
18 25-04-2020 01:25:00 11.8 C 62 % 4.77 C
19 25-04-2020 01:30:00 11.7 C 63 % 4.9 C
20 25-04-2020 01:35:00 11.6 C 63 % 4.81 C
21 25-04-2020 01:40:00 11.5 C 64 % 4.94 C
22 25-04-2020 01:45:00 11.4 C 64 % 4.84 C
23 25-04-2020 01:50:00 11.4 C 64 % 4.84 C
24 25-04-2020 01:55:00 11.5 C 65 % 5.16 C
25 25-04-2020 02:00:00 11.4 C 65 % 5.06 C
Sensor: Nr:Datum:Temp:Feuchte:Taupunkt:
Aussen-T/F 26 25-04-2020 02:05:00 11.2 C 65 % 4.87 C
27 25-04-2020 02:10:00 11.1 C 66 % 5 C
28 25-04-2020 02:15:00 10.9 C 66 % 4.81 C
29 25-04-2020 02:20:00 10.8 C 67 % 4.93 C
30 25-04-2020 02:25:00 10.5 C 68 % 4.85 C
31 25-04-2020 02:30:00 10.3 C 69 % 4.87 C
32 25-04-2020 02:35:00 10.2 C 70 % 4.98 C
33 25-04-2020 02:40:00 10.1 C 70 % 4.89 C
34 25-04-2020 02:45:00 10 C 70 % 4.79 C
35 25-04-2020 02:50:00 9.9 C 70 % 4.69 C
36 25-04-2020 02:55:00 10 C 71 % 4.99 C
37 25-04-2020 03:00:00 10.1 C 70 % 4.89 C
38 25-04-2020 03:05:00 10.3 C 70 % 5.08 C
39 25-04-2020 03:10:00 10.4 C 69 % 4.97 C
40 25-04-2020 03:15:00 10.5 C 69 % 5.06 C
41 25-04-2020 03:20:00 10.6 C 69 % 5.16 C
42 25-04-2020 03:25:00 10.5 C 69 % 5.06 C
43 25-04-2020 03:30:00 10.4 C 69 % 4.97 C
44 25-04-2020 03:35:00 10.3 C 70 % 5.08 C
45 25-04-2020 03:40:00 10.1 C 70 % 4.89 C
46 25-04-2020 03:45:00 9.9 C 71 % 4.9 C
47 25-04-2020 03:50:00 9.7 C 71 % 4.7 C
48 25-04-2020 03:55:00 9.7 C 70 % 4.5 C
49 25-04-2020 04:00:00 9.7 C 70 % 4.5 C
50 25-04-2020 04:05:00 9.7 C 70 % 4.5 C
Sensor: Nr:Datum:Temp:Feuchte:Taupunkt:
Aussen-T/F 51 25-04-2020 04:10:00 9.6 C 71 % 4.61 C
52 25-04-2020 04:15:00 9.5 C 71 % 4.51 C
53 25-04-2020 04:20:00 9.6 C 72 % 4.81 C
54 25-04-2020 04:25:00 9.6 C 72 % 4.81 C
55 25-04-2020 04:30:00 9.6 C 72 % 4.81 C
56 25-04-2020 04:35:00 9.5 C 73 % 4.91 C
57 25-04-2020 04:40:00 9.4 C 73 % 4.81 C
58 25-04-2020 04:45:00 9.2 C 74 % 4.81 C
59 25-04-2020 04:50:00 9 C 75 % 4.81 C
60 25-04-2020 04:55:00 8.9 C 76 % 4.91 C
61 25-04-2020 05:00:00 8.8 C 77 % 5 C
62 25-04-2020 05:05:00 8.7 C 77 % 4.9 C
63 25-04-2020 05:10:00 8.7 C 78 % 5.08 C
64 25-04-2020 05:15:00 8.6 C 78 % 4.99 C
65 25-04-2020 05:20:00 8.4 C 78 % 4.79 C
66 25-04-2020 05:25:00 8.2 C 79 % 4.78 C
67 25-04-2020 05:30:00 8.1 C 81 % 5.04 C
68 25-04-2020 05:35:00 8 C 82 % 5.12 C
69 25-04-2020 05:40:00 7.9 C 83 % 5.2 C
70 25-04-2020 05:45:00 7.9 C 84 % 5.37 C
71 25-04-2020 05:50:00 8 C 84 % 5.47 C
72 25-04-2020 05:55:00 8.1 C 84 % 5.56 C
73 25-04-2020 06:00:00 8.1 C 84 % 5.56 C
74 25-04-2020 06:05:00 8.2 C 84 % 5.66 C
75 25-04-2020 06:10:00 8.2 C 83 % 5.49 C
Sensor: Nr:Datum:Temp:Feuchte:Taupunkt:
Aussen-T/F 76 25-04-2020 06:15:00 8.3 C 83 % 5.59 C
77 25-04-2020 06:20:00 8.3 C 83 % 5.59 C
78 25-04-2020 06:25:00 8.4 C 83 % 5.69 C
79 25-04-2020 06:30:00 8.4 C 83 % 5.69 C
80 25-04-2020 06:35:00 8.4 C 82 % 5.51 C
81 25-04-2020 06:40:00 8.5 C 81 % 5.43 C
82 25-04-2020 06:45:00 8.5 C 81 % 5.43 C
83 25-04-2020 06:50:00 8.5 C 80 % 5.25 C
84 25-04-2020 06:55:00 8.5 C 80 % 5.25 C
85 25-04-2020 07:00:00 8.4 C 80 % 5.16 C
86 25-04-2020 07:05:00 8.4 C 80 % 5.16 C
87 25-04-2020 07:10:00 8.5 C 80 % 5.25 C
88 25-04-2020 07:15:00 8.5 C 79 % 5.07 C
89 25-04-2020 07:20:00 8.5 C 79 % 5.07 C
90 25-04-2020 07:25:00 8.5 C 79 % 5.07 C
91 25-04-2020 07:30:00 8.5 C 79 % 5.07 C
92 25-04-2020 07:35:00 8.5 C 79 % 5.07 C
93 25-04-2020 07:40:00 8.5 C 79 % 5.07 C
94 25-04-2020 07:45:00 8.5 C 79 % 5.07 C
95 25-04-2020 07:50:00 8.6 C 79 % 5.17 C
96 25-04-2020 07:55:00 8.5 C 79 % 5.07 C
97 25-04-2020 08:00:00 8.5 C 78 % 4.89 C
98 25-04-2020 08:05:00 8.5 C 78 % 4.89 C
99 25-04-2020 08:10:00 8.6 C 78 % 4.99 C
100 25-04-2020 08:15:00 8.6 C 78 % 4.99 C
Sensor: Nr:Datum:Temp:Feuchte:Taupunkt:
Aussen-T/F 101 25-04-2020 08:20:00 8.6 C 77 % 4.8 C
102 25-04-2020 08:25:00 8.6 C 77 % 4.8 C
103 25-04-2020 08:30:00 8.6 C 77 % 4.8 C
104 25-04-2020 08:35:00 8.6 C 77 % 4.8 C
105 25-04-2020 08:40:00 8.7 C 77 % 4.9 C
106 25-04-2020 08:45:00 8.6 C 76 % 4.62 C
107 25-04-2020 08:50:00 8.6 C 75 % 4.43 C
108 25-04-2020 08:55:00 8.6 C 75 % 4.43 C
109 25-04-2020 09:00:00 8.7 C 75 % 4.52 C
110 25-04-2020 09:05:00 8.7 C 74 % 4.33 C
111 25-04-2020 09:10:00 8.8 C 74 % 4.43 C
112 25-04-2020 09:15:00 8.9 C 74 % 4.53 C
113 25-04-2020 09:20:00 8.9 C 73 % 4.33 C
114 25-04-2020 09:25:00 9.1 C 73 % 4.52 C
115 25-04-2020 09:30:00 9.2 C 73 % 4.62 C
116 25-04-2020 09:35:00 9.2 C 72 % 4.42 C
117 25-04-2020 09:40:00 9.2 C 72 % 4.42 C
118 25-04-2020 09:45:00 9.2 C 72 % 4.42 C
119 25-04-2020 09:50:00 9.2 C 72 % 4.42 C
120 25-04-2020 09:55:00 9.2 C 72 % 4.42 C
121 25-04-2020 10:00:00 9.3 C 72 % 4.52 C
122 25-04-2020 10:05:00 9.4 C 71 % 4.42 C
123 25-04-2020 10:10:00 9.4 C 70 % 4.21 C
124 25-04-2020 10:15:00 9.5 C 70 % 4.31 C
125 25-04-2020 10:20:00 9.6 C 69 % 4.2 C
Sensor: Nr:Datum:Temp:Feuchte:Taupunkt:
Aussen-T/F 126 25-04-2020 10:25:00 9.6 C 70 % 4.41 C
127 25-04-2020 10:30:00 9.7 C 69 % 4.3 C
128 25-04-2020 10:35:00 9.7 C 69 % 4.3 C
129 25-04-2020 10:40:00 9.8 C 69 % 4.39 C
130 25-04-2020 10:45:00 9.8 C 68 % 4.18 C
131 25-04-2020 10:50:00 9.8 C 68 % 4.18 C
132 25-04-2020 10:55:00 9.9 C 68 % 4.28 C
133 25-04-2020 11:00:00 10.1 C 67 % 4.26 C
134 25-04-2020 11:05:00 10.3 C 67 % 4.45 C
135 25-04-2020 11:10:00 10.5 C 66 % 4.43 C
136 25-04-2020 11:15:00 10.5 C 67 % 4.64 C
137 25-04-2020 11:20:00 10.5 C 66 % 4.43 C
138 25-04-2020 11:25:00 10.5 C 66 % 4.43 C
139 25-04-2020 11:30:00 10.5 C 66 % 4.43 C
140 25-04-2020 11:35:00 10.4 C 64 % 3.89 C
141 25-04-2020 11:40:00 10.3 C 66 % 4.24 C
142 25-04-2020 11:45:00 10.4 C 66 % 4.33 C
143 25-04-2020 11:50:00 10.5 C 66 % 4.43 C
144 25-04-2020 11:55:00 10.7 C 65 % 4.4 C
145 25-04-2020 12:00:00 10.7 C 64 % 4.18 C
146 25-04-2020 12:05:00 10.7 C 64 % 4.18 C
147 25-04-2020 12:10:00 10.8 C 65 % 4.49 C
148 25-04-2020 12:15:00 11 C 65 % 4.68 C
149 25-04-2020 12:20:00 11.2 C 62 % 4.2 C
150 25-04-2020 12:25:00 11.3 C 62 % 4.29 C
Sensor: Nr:Datum:Temp:Feuchte:Taupunkt:
Aussen-T/F 151 25-04-2020 12:30:00 11.3 C 63 % 4.52 C
152 25-04-2020 12:35:00 11.3 C 62 % 4.29 C
153 25-04-2020 12:40:00 11.3 C 61 % 4.06 C
154 25-04-2020 12:45:00 11.4 C 63 % 4.62 C
155 25-04-2020 12:50:00 11.7 C 62 % 4.67 C
156 25-04-2020 12:55:00 11.9 C 60 % 4.39 C
157 25-04-2020 13:00:00 11.9 C 60 % 4.39 C
158 25-04-2020 13:05:00 11.9 C 60 % 4.39 C
159 25-04-2020 13:10:00 11.9 C 60 % 4.39 C
160 25-04-2020 13:15:00 12.1 C 61 % 4.82 C
161 25-04-2020 13:20:00 12.6 C 59 % 4.81 C
162 25-04-2020 13:25:00 12.7 C 59 % 4.9 C
163 25-04-2020 13:30:00 12.7 C 59 % 4.9 C
164 25-04-2020 13:35:00 12.7 C 59 % 4.9 C
165 25-04-2020 13:40:00 12.8 C 58 % 4.75 C
166 25-04-2020 13:45:00 13.1 C 56 % 4.53 C
167 25-04-2020 13:50:00 13.2 C 55 % 4.37 C
168 25-04-2020 13:55:00 13.3 C 55 % 4.46 C
169 25-04-2020 14:00:00 13.3 C 55 % 4.46 C
170 25-04-2020 14:05:00 13.4 C 57 % 5.07 C
171 25-04-2020 14:10:00 13.5 C 56 % 4.91 C
172 25-04-2020 14:15:00 13.6 C 57 % 5.25 C
173 25-04-2020 14:20:00 13.7 C 55 % 4.83 C
174 25-04-2020 14:25:00 13.9 C 54 % 4.76 C
175 25-04-2020 14:30:00 14.1 C 53 % 4.68 C
Sensor: Nr:Datum:Temp:Feuchte:Taupunkt:
Aussen-T/F 176 25-04-2020 14:35:00 14.1 C 54 % 4.94 C
177 25-04-2020 14:40:00 14.3 C 53 % 4.86 C
178 25-04-2020 14:45:00 14.3 C 52 % 4.59 C
179 25-04-2020 14:50:00 14.4 C 52 % 4.68 C
180 25-04-2020 14:55:00 14.5 C 53 % 5.05 C
181 25-04-2020 15:00:00 14.8 C 52 % 5.05 C
182 25-04-2020 15:05:00 14.9 C 52 % 5.14 C
183 25-04-2020 15:10:00 15.2 C 50 % 4.86 C
184 25-04-2020 15:15:00 15.2 C 51 % 5.14 C
185 25-04-2020 15:20:00 15.3 C 51 % 5.23 C
186 25-04-2020 15:25:00 15.4 C 51 % 5.33 C
187 25-04-2020 15:30:00 15.7 C 51 % 5.6 C
188 25-04-2020 15:35:00 15.8 C 48 % 4.82 C
189 25-04-2020 15:40:00 16.1 C 48 % 5.1 C
190 25-04-2020 15:45:00 16.4 C 48 % 5.37 C
191 25-04-2020 15:50:00 16.7 C 48 % 5.65 C
192 25-04-2020 15:55:00 17.1 C 46 % 5.4 C
193 25-04-2020 16:00:00 17.1 C 46 % 5.4 C
194 25-04-2020 16:05:00 16.9 C 44 % 4.58 C
195 25-04-2020 16:10:00 16.9 C 45 % 4.9 C
196 25-04-2020 16:15:00 17.1 C 46 % 5.4 C
197 25-04-2020 16:20:00 17.3 C 45 % 5.27 C
198 25-04-2020 16:25:00 17.6 C 44 % 5.22 C
199 25-04-2020 16:30:00 17.8 C 44 % 5.4 C
200 25-04-2020 16:35:00 18 C 44 % 5.58 C
Sensor: Nr:Datum:Temp:Feuchte:Taupunkt:
Aussen-T/F 201 25-04-2020 16:40:00 18.2 C 44 % 5.76 C
202 25-04-2020 16:45:00 18.5 C 42 % 5.36 C
203 25-04-2020 16:50:00 18.3 C 42 % 5.18 C
204 25-04-2020 16:55:00 18.3 C 41 % 4.83 C
205 25-04-2020 17:00:00 18.4 C 41 % 4.92 C
206 25-04-2020 17:05:00 18.6 C 41 % 5.1 C
207 25-04-2020 17:10:00 18.8 C 41 % 5.28 C
208 25-04-2020 17:15:00 19 C 41 % 5.46 C
209 25-04-2020 17:20:00 19.1 C 40 % 5.2 C
210 25-04-2020 17:25:00 19.2 C 41 % 5.64 C
211 25-04-2020 17:30:00 19.3 C 39 % 5.01 C
212 25-04-2020 17:35:00 19.2 C 39 % 4.92 C
213 25-04-2020 17:40:00 19.1 C 39 % 4.84 C
214 25-04-2020 17:45:00 19.2 C 40 % 5.29 C
215 25-04-2020 17:50:00 19.3 C 40 % 5.38 C
216 25-04-2020 17:55:00 19.3 C 39 % 5.01 C
217 25-04-2020 18:00:00 19.3 C 39 % 5.01 C
218 25-04-2020 18:05:00 19.3 C 40 % 5.38 C
219 25-04-2020 18:10:00 19.3 C 40 % 5.38 C
220 25-04-2020 18:15:00 19.1 C 40 % 5.2 C
221 25-04-2020 18:20:00 18.9 C 40 % 5.02 C
222 25-04-2020 18:25:00 18.8 C 41 % 5.28 C
223 25-04-2020 18:30:00 18.8 C 42 % 5.63 C
224 25-04-2020 18:35:00 18.7 C 41 % 5.19 C
225 25-04-2020 18:40:00 18.6 C 41 % 5.1 C
Sensor: Nr:Datum:Temp:Feuchte:Taupunkt:
Aussen-T/F 226 25-04-2020 18:45:00 18.4 C 43 % 5.61 C
227 25-04-2020 18:50:00 18.4 C 43 % 5.61 C
228 25-04-2020 18:55:00 18.3 C 48 % 7.11 C
229 25-04-2020 19:00:00 18.2 C 44 % 5.76 C
230 25-04-2020 19:05:00 18.1 C 44 % 5.67 C
231 25-04-2020 19:10:00 17.9 C 45 % 5.81 C
232 25-04-2020 19:15:00 17.7 C 46 % 5.95 C
233 25-04-2020 19:20:00 17.4 C 46 % 5.67 C
234 25-04-2020 19:25:00 17.2 C 45 % 5.18 C
235 25-04-2020 19:30:00 16.9 C 44 % 4.58 C
236 25-04-2020 19:35:00 16.7 C 46 % 5.04 C
237 25-04-2020 19:40:00 16.6 C 46 % 4.95 C
238 25-04-2020 19:45:00 16.4 C 46 % 4.76 C
239 25-04-2020 19:50:00 16.3 C 46 % 4.67 C
240 25-04-2020 19:55:00 16.1 C 46 % 4.49 C
241 25-04-2020 20:00:00 15.9 C 46 % 4.31 C
242 25-04-2020 20:05:00 15.8 C 46 % 4.22 C
243 25-04-2020 20:10:00 15.8 C 51 % 5.69 C
244 25-04-2020 20:15:00 15.6 C 50 % 5.23 C
245 25-04-2020 20:20:00 15.3 C 51 % 5.23 C
246 25-04-2020 20:25:00 14.9 C 53 % 5.42 C
247 25-04-2020 20:30:00 14.3 C 52 % 4.59 C
248 25-04-2020 20:35:00 14 C 55 % 5.11 C
249 25-04-2020 20:40:00 13.7 C 56 % 5.09 C
250 25-04-2020 20:45:00 13.2 C 59 % 5.37 C
Sensor: Nr:Datum:Temp:Feuchte:Taupunkt:
Aussen-T/F 251 25-04-2020 20:50:00 12.9 C 56 % 4.35 C
252 25-04-2020 20:55:00 12.8 C 58 % 4.75 C
253 25-04-2020 21:00:00 12.7 C 59 % 4.9 C
254 25-04-2020 21:05:00 12.4 C 59 % 4.62 C
255 25-04-2020 21:10:00 12.2 C 59 % 4.43 C
256 25-04-2020 21:15:00 12.1 C 61 % 4.82 C
257 25-04-2020 21:20:00 11.8 C 61 % 4.53 C
258 25-04-2020 21:25:00 11.6 C 62 % 4.58 C
259 25-04-2020 21:30:00 11.4 C 63 % 4.62 C
260 25-04-2020 21:35:00 11.2 C 63 % 4.43 C
261 25-04-2020 21:40:00 11.1 C 63 % 4.33 C
262 25-04-2020 21:45:00 11.1 C 64 % 4.56 C
263 25-04-2020 21:50:00 11.1 C 63 % 4.33 C
264 25-04-2020 21:55:00 11.1 C 63 % 4.33 C
265 25-04-2020 22:00:00 11 C 62 % 4.01 C
266 25-04-2020 22:05:00 11.1 C 63 % 4.33 C
267 25-04-2020 22:10:00 11.1 C 64 % 4.56 C
268 25-04-2020 22:15:00 10.9 C 64 % 4.37 C
269 25-04-2020 22:20:00 10.7 C 65 % 4.4 C
270 25-04-2020 22:25:00 10.5 C 66 % 4.43 C
271 25-04-2020 22:30:00 10.3 C 65 % 4.02 C
272 25-04-2020 22:35:00 10.3 C 67 % 4.45 C
273 25-04-2020 22:40:00 10.2 C 67 % 4.36 C
274 25-04-2020 22:45:00 10.1 C 68 % 4.47 C
275 25-04-2020 22:50:00 9.9 C 68 % 4.28 C
Sensor: Nr:Datum:Temp:Feuchte:Taupunkt:
Aussen-T/F 276 25-04-2020 22:55:00 9.8 C 69 % 4.39 C
277 25-04-2020 23:00:00 9.7 C 69 % 4.3 C
278 25-04-2020 23:05:00 9.6 C 69 % 4.2 C
279 25-04-2020 23:10:00 9.6 C 70 % 4.41 C
280 25-04-2020 23:15:00 9.5 C 70 % 4.31 C
281 25-04-2020 23:20:00 9.4 C 71 % 4.42 C
282 25-04-2020 23:25:00 9.3 C 71 % 4.32 C
283 25-04-2020 23:30:00 9.2 C 72 % 4.42 C
284 25-04-2020 23:35:00 9.1 C 72 % 4.33 C
285 25-04-2020 23:40:00 9 C 72 % 4.23 C
286 25-04-2020 23:45:00 8.8 C 73 % 4.24 C
287 25-04-2020 23:50:00 8.6 C 74 % 4.24 C
288 25-04-2020 23:55:00 8.4 C 74 % 4.04 C
289 26-04-2020 00:00:00 8.3 C 74 % 3.95 C
290 26-04-2020 00:05:00 8.1 C 75 % 3.94 C
291 26-04-2020 00:10:00 7.9 C 76 % 3.94 C
292 26-04-2020 00:15:00 7.8 C 77 % 4.03 C
293 26-04-2020 00:20:00 7.6 C 78 % 4.02 C
294 26-04-2020 00:25:00 7.4 C 79 % 4 C
295 26-04-2020 00:30:00 7.3 C 79 % 3.91 C
296 26-04-2020 00:35:00 7.2 C 79 % 3.81 C
297 26-04-2020 00:40:00 7.1 C 80 % 3.89 C
298 26-04-2020 00:45:00 7 C 80 % 3.79 C
299 26-04-2020 00:50:00 6.9 C 81 % 3.87 C
300 26-04-2020 00:55:00 6.8 C 81 % 3.77 C
Sensor: Nr:Datum:Temp:Feuchte:Taupunkt:
Aussen-T/F 301 26-04-2020 01:00:00 6.6 C 82 % 3.75 C
302 26-04-2020 01:05:00 6.6 C 82 % 3.75 C
303 26-04-2020 01:10:00 6.4 C 82 % 3.56 C
304 26-04-2020 01:15:00 6.3 C 83 % 3.63 C
305 26-04-2020 01:20:00 6.2 C 83 % 3.53 C
306 26-04-2020 01:25:00 6.2 C 83 % 3.53 C
307 26-04-2020 01:30:00 6.1 C 84 % 3.61 C
308 26-04-2020 01:35:00 6 C 84 % 3.51 C
309 26-04-2020 01:40:00 5.9 C 84 % 3.41 C
310 26-04-2020 01:45:00 5.8 C 84 % 3.31 C
311 26-04-2020 01:50:00 5.7 C 85 % 3.38 C
312 26-04-2020 01:55:00 5.7 C 85 % 3.38 C
313 26-04-2020 02:00:00 5.6 C 85 % 3.28 C
314 26-04-2020 02:05:00 5.5 C 85 % 3.18 C
315 26-04-2020 02:10:00 5.4 C 86 % 3.25 C
316 26-04-2020 02:15:00 5.4 C 86 % 3.25 C
317 26-04-2020 02:20:00 5.3 C 86 % 3.15 C
318 26-04-2020 02:25:00 5.3 C 87 % 3.32 C
319 26-04-2020 02:30:00 5.3 C 87 % 3.32 C
320 26-04-2020 02:35:00 5.2 C 87 % 3.22 C
321 26-04-2020 02:40:00 5.2 C 87 % 3.22 C
322 26-04-2020 02:45:00 5.2 C 87 % 3.22 C
323 26-04-2020 02:50:00 5.3 C 87 % 3.32 C
324 26-04-2020 02:55:00 5.2 C 87 % 3.22 C
325 26-04-2020 03:00:00 5.2 C 87 % 3.22 C
Sensor: Nr:Datum:Temp:Feuchte:Taupunkt:
Aussen-T/F 326 26-04-2020 03:05:00 5.1 C 87 % 3.12 C
327 26-04-2020 03:10:00 4.9 C 87 % 2.92 C
328 26-04-2020 03:15:00 4.9 C 88 % 3.08 C
329 26-04-2020 03:20:00 4.8 C 88 % 2.99 C
330 26-04-2020 03:25:00 4.8 C 88 % 2.99 C
331 26-04-2020 03:30:00 4.7 C 88 % 2.89 C
332 26-04-2020 03:35:00 4.7 C 88 % 2.89 C
333 26-04-2020 03:40:00 4.6 C 89 % 2.95 C
334 26-04-2020 03:45:00 4.6 C 89 % 2.95 C
335 26-04-2020 03:50:00 4.5 C 89 % 2.85 C
336 26-04-2020 03:55:00 4.4 C 89 % 2.75 C
337 26-04-2020 04:00:00 4.4 C 89 % 2.75 C
338 26-04-2020 04:05:00 4.4 C 89 % 2.75 C
339 26-04-2020 04:10:00 4.3 C 89 % 2.65 C
340 26-04-2020 04:15:00 4.2 C 89 % 2.55 C
341 26-04-2020 04:20:00 4.1 C 89 % 2.45 C
342 26-04-2020 04:25:00 4 C 89 % 2.36 C
343 26-04-2020 04:30:00 3.9 C 90 % 2.41 C
344 26-04-2020 04:35:00 3.9 C 90 % 2.41 C
345 26-04-2020 04:40:00 3.9 C 90 % 2.41 C
346 26-04-2020 04:45:00 3.8 C 91 % 2.47 C
347 26-04-2020 04:50:00 3.8 C 91 % 2.47 C
348 26-04-2020 04:55:00 3.7 C 91 % 2.37 C
349 26-04-2020 05:00:00 3.7 C 91 % 2.37 C
350 26-04-2020 05:05:00 3.7 C 91 % 2.37 C
Sensor: Nr:Datum:Temp:Feuchte:Taupunkt:
Aussen-T/F 351 26-04-2020 05:10:00 3.7 C 91 % 2.37 C
352 26-04-2020 05:15:00 3.6 C 91 % 2.27 C
353 26-04-2020 05:20:00 3.6 C 91 % 2.27 C
354 26-04-2020 05:25:00 3.5 C 91 % 2.17 C
355 26-04-2020 05:30:00 3.4 C 91 % 2.07 C
356 26-04-2020 05:35:00 3.4 C 92 % 2.23 C
357 26-04-2020 05:40:00 3.3 C 92 % 2.13 C
358 26-04-2020 05:45:00 3.3 C 92 % 2.13 C
359 26-04-2020 05:50:00 3.3 C 91 % 1.98 C
360 26-04-2020 05:55:00 3.2 C 92 % 2.03 C
361 26-04-2020 06:00:00 3.1 C 92 % 1.93 C
362 26-04-2020 06:05:00 3 C 92 % 1.83 C
363 26-04-2020 06:10:00 3 C 92 % 1.83 C
364 26-04-2020 06:15:00 3 C 92 % 1.83 C
365 26-04-2020 06:20:00 2.9 C 92 % 1.73 C
366 26-04-2020 06:25:00 2.9 C 92 % 1.73 C
367 26-04-2020 06:30:00 2.9 C 92 % 1.73 C
368 26-04-2020 06:35:00 2.9 C 93 % 1.88 C
369 26-04-2020 06:40:00 2.9 C 93 % 1.88 C
370 26-04-2020 06:45:00 2.9 C 92 % 1.73 C
371 26-04-2020 06:50:00 2.8 C 93 % 1.78 C
372 26-04-2020 06:55:00 2.8 C 93 % 1.78 C
373 26-04-2020 07:00:00 2.8 C 93 % 1.78 C
374 26-04-2020 07:05:00 2.9 C 93 % 1.88 C
375 26-04-2020 07:10:00 2.9 C 93 % 1.88 C
Sensor: Nr:Datum:Temp:Feuchte:Taupunkt:
Aussen-T/F 376 26-04-2020 07:15:00 2.9 C 93 % 1.88 C
377 26-04-2020 07:20:00 3.1 C 93 % 2.08 C
378 26-04-2020 07:25:00 3.1 C 93 % 2.08 C
379 26-04-2020 07:30:00 3.2 C 93 % 2.18 C
380 26-04-2020 07:35:00 3.2 C 93 % 2.18 C
381 26-04-2020 07:40:00 3.2 C 94 % 2.33 C
382 26-04-2020 07:45:00 3.2 C 94 % 2.33 C
383 26-04-2020 07:50:00 3.3 C 94 % 2.43 C
384 26-04-2020 07:55:00 3.3 C 94 % 2.43 C
385 26-04-2020 08:00:00 3.4 C 94 % 2.53 C
386 26-04-2020 08:05:00 3.5 C 94 % 2.63 C
387 26-04-2020 08:10:00 3.6 C 94 % 2.73 C
388 26-04-2020 08:15:00 3.7 C 94 % 2.83 C
389 26-04-2020 08:20:00 3.8 C 94 % 2.93 C
390 26-04-2020 08:25:00 3.8 C 94 % 2.93 C
391 26-04-2020 08:30:00 3.9 C 94 % 3.02 C
392 26-04-2020 08:35:00 4.1 C 94 % 3.22 C
393 26-04-2020 08:40:00 4.2 C 94 % 3.32 C
394 26-04-2020 08:45:00 4.3 C 95 % 3.57 C
395 26-04-2020 08:50:00 4.4 C 95 % 3.67 C
396 26-04-2020 08:55:00 4.6 C 95 % 3.87 C
397 26-04-2020 09:00:00 4.7 C 95 % 3.97 C
398 26-04-2020 09:05:00 4.9 C 95 % 4.17 C
399 26-04-2020 09:10:00 5.1 C 95 % 4.37 C
400 26-04-2020 09:15:00 5.2 C 95 % 4.47 C
Sensor: Nr:Datum:Temp:Feuchte:Taupunkt:
Aussen-T/F 401 26-04-2020 09:20:00 5.3 C 95 % 4.57 C
402 26-04-2020 09:25:00 5.5 C 95 % 4.76 C
403 26-04-2020 09:30:00 5.7 C 95 % 4.96 C
404 26-04-2020 09:35:00 5.8 C 95 % 5.06 C
405 26-04-2020 09:40:00 6 C 95 % 5.26 C
406 26-04-2020 09:45:00 6.2 C 95 % 5.46 C
407 26-04-2020 09:50:00 6.4 C 95 % 5.66 C
408 26-04-2020 09:55:00 6.6 C 95 % 5.86 C
409 26-04-2020 10:00:00 6.8 C 95 % 6.06 C
410 26-04-2020 10:05:00 6.9 C 94 % 6 C
411 26-04-2020 10:10:00 7.2 C 94 % 6.3 C
412 26-04-2020 10:15:00 7.3 C 93 % 6.25 C
413 26-04-2020 10:20:00 7.6 C 93 % 6.54 C
414 26-04-2020 10:25:00 7.8 C 92 % 6.58 C
415 26-04-2020 10:30:00 8.2 C 91 % 6.82 C
416 26-04-2020 10:35:00 8.4 C 90 % 6.86 C
417 26-04-2020 10:40:00 8.7 C 89 % 6.99 C
418 26-04-2020 10:45:00 8.9 C 87 % 6.86 C
419 26-04-2020 10:50:00 9.3 C 85 % 6.91 C
420 26-04-2020 10:55:00 9.7 C 85 % 7.3 C
421 26-04-2020 11:00:00 10.1 C 84 % 7.52 C
422 26-04-2020 11:05:00 10.5 C 83 % 7.74 C
423 26-04-2020 11:10:00 10.9 C 79 % 7.41 C
424 26-04-2020 11:15:00 11.3 C 75 % 7.04 C
425 26-04-2020 11:20:00 11.8 C 72 % 6.92 C
Sensor: Nr:Datum:Temp:Feuchte:Taupunkt:
Aussen-T/F 426 26-04-2020 11:25:00 12.3 C 72 % 7.4 C
427 26-04-2020 11:30:00 12.6 C 70 % 7.28 C
428 26-04-2020 11:35:00 12.8 C 67 % 6.83 C
429 26-04-2020 11:40:00 13.2 C 67 % 7.21 C
430 26-04-2020 11:45:00 13.5 C 65 % 7.06 C
431 26-04-2020 11:50:00 13.7 C 63 % 6.79 C
432 26-04-2020 11:55:00 13.9 C 61 % 6.51 C
433 26-04-2020 12:00:00 14.2 C 60 % 6.56 C
434 26-04-2020 12:05:00 14.4 C 59 % 6.5 C
435 26-04-2020 12:10:00 14.6 C 57 % 6.19 C
436 26-04-2020 12:15:00 14.8 C 55 % 5.86 C
437 26-04-2020 12:20:00 15.1 C 53 % 5.6 C
438 26-04-2020 12:25:00 15.3 C 52 % 5.51 C
439 26-04-2020 12:30:00 15.4 C 52 % 5.61 C
440 26-04-2020 12:35:00 15.6 C 52 % 5.79 C
441 26-04-2020 12:40:00 15.7 C 53 % 6.16 C
442 26-04-2020 12:45:00 15.8 C 51 % 5.69 C
443 26-04-2020 12:50:00 16.1 C 47 % 4.8 C
444 26-04-2020 12:55:00 16.2 C 48 % 5.19 C
445 26-04-2020 13:00:00 16.3 C 48 % 5.28 C
446 26-04-2020 13:05:00 16.3 C 48 % 5.28 C
447 26-04-2020 13:10:00 16.6 C 47 % 5.25 C
448 26-04-2020 13:15:00 16.8 C 46 % 5.13 C
449 26-04-2020 13:20:00 16.8 C 46 % 5.13 C
450 26-04-2020 13:25:00 16.8 C 46 % 5.13 C
Sensor: Nr:Datum:Temp:Feuchte:Taupunkt:
Aussen-T/F 451 26-04-2020 13:30:00 16.9 C 45 % 4.9 C
452 26-04-2020 13:35:00 17 C 46 % 5.31 C
453 26-04-2020 13:40:00 17.2 C 47 % 5.8 C
454 26-04-2020 13:45:00 17.3 C 44 % 4.94 C
455 26-04-2020 13:50:00 17.4 C 42 % 4.37 C
456 26-04-2020 13:55:00 17.4 C 42 % 4.37 C
457 26-04-2020 14:00:00 17.4 C 43 % 4.71 C
458 26-04-2020 14:05:00 17.5 C 44 % 5.13 C
459 26-04-2020 14:10:00 17.6 C 44 % 5.22 C
460 26-04-2020 14:15:00 17.7 C 46 % 5.95 C
461 26-04-2020 14:20:00 17.7 C 45 % 5.63 C
462 26-04-2020 14:25:00 17.7 C 46 % 5.95 C
463 26-04-2020 14:30:00 17.8 C 46 % 6.04 C
464 26-04-2020 14:35:00 17.9 C 44 % 5.49 C
465 26-04-2020 14:40:00 17.9 C 43 % 5.16 C
466 26-04-2020 14:45:00 18 C 44 % 5.58 C
467 26-04-2020 14:50:00 18.2 C 43 % 5.43 C
468 26-04-2020 14:55:00 18.2 C 44 % 5.76 C
469 26-04-2020 15:00:00 18.2 C 41 % 4.75 C
470 26-04-2020 15:05:00 18.3 C 43 % 5.52 C
471 26-04-2020 15:10:00 18.6 C 41 % 5.1 C
472 26-04-2020 15:15:00 18.9 C 40 % 5.02 C
473 26-04-2020 15:20:00 19.1 C 41 % 5.55 C
474 26-04-2020 15:25:00 19.3 C 40 % 5.38 C
475 26-04-2020 15:30:00 19.3 C 39 % 5.01 C
Sensor: Nr:Datum:Temp:Feuchte:Taupunkt:
Aussen-T/F 476 26-04-2020 15:35:00 19.3 C 40 % 5.38 C
477 26-04-2020 15:40:00 19.5 C 40 % 5.56 C
478 26-04-2020 15:45:00 19.4 C 39 % 5.1 C
479 26-04-2020 15:50:00 19.5 C 39 % 5.19 C
480 26-04-2020 15:55:00 19.9 C 39 % 5.55 C
481 26-04-2020 16:00:00 20.3 C 38 % 5.53 C
482 26-04-2020 16:05:00 20.5 C 37 % 5.32 C
483 26-04-2020 16:10:00 20.6 C 37 % 5.41 C
484 26-04-2020 16:15:00 20.6 C 36 % 5.02 C
485 26-04-2020 16:20:00 20.9 C 37 % 5.68 C
486 26-04-2020 16:25:00 21.3 C 34 % 4.82 C
487 26-04-2020 16:30:00 21.3 C 32 % 3.95 C
488 26-04-2020 16:35:00 21.4 C 34 % 4.91 C
489 26-04-2020 16:40:00 21.6 C 33 % 4.65 C
490 26-04-2020 16:45:00 21.7 C 33 % 4.74 C
491 26-04-2020 16:50:00 21.7 C 34 % 5.17 C
492 26-04-2020 16:55:00 21.7 C 33 % 4.74 C
493 26-04-2020 17:00:00 21.6 C 32 % 4.21 C
494 26-04-2020 17:05:00 21.8 C 34 % 5.26 C
495 26-04-2020 17:10:00 22.1 C 31 % 4.2 C
496 26-04-2020 17:15:00 22.1 C 31 % 4.2 C
497 26-04-2020 17:20:00 22.2 C 33 % 5.18 C
498 26-04-2020 17:25:00 22.4 C 30 % 3.99 C
499 26-04-2020 17:30:00 22.5 C 31 % 4.54 C
500 26-04-2020 17:35:00 22.6 C 28 % 3.19 C
Sensor: Nr:Datum:Temp:Feuchte:Taupunkt:
Aussen-T/F 501 26-04-2020 17:40:00 22.9 C 29 % 3.94 C
502 26-04-2020 17:45:00 22.8 C 26 % 2.31 C
503 26-04-2020 17:50:00 22.5 C 27 % 2.59 C
504 26-04-2020 17:55:00 22.5 C 29 % 3.6 C
505 26-04-2020 18:00:00 22.4 C 27 % 2.5 C
506 26-04-2020 18:05:00 22.4 C 27 % 2.5 C
507 26-04-2020 18:10:00 22.5 C 29 % 3.6 C
508 26-04-2020 18:15:00 22.6 C 28 % 3.19 C
509 26-04-2020 18:20:00 22.8 C 28 % 3.36 C
510 26-04-2020 18:25:00 22.8 C 28 % 3.36 C
511 26-04-2020 18:30:00 23 C 28 % 3.53 C
512 26-04-2020 18:35:00 22.9 C 26 % 2.4 C
513 26-04-2020 18:40:00 22.9 C 26 % 2.4 C
514 26-04-2020 18:45:00 22.8 C 27 % 2.84 C
515 26-04-2020 18:50:00 22.6 C 26 % 2.14 C
516 26-04-2020 18:55:00 22.5 C 26 % 2.06 C
517 26-04-2020 19:00:00 22.4 C 27 % 2.5 C
518 26-04-2020 19:05:00 22.3 C 28 % 2.93 C
519 26-04-2020 19:10:00 22.2 C 27 % 2.33 C
520 26-04-2020 19:15:00 21.8 C 27 % 1.99 C
521 26-04-2020 19:20:00 21.4 C 28 % 2.16 C
522 26-04-2020 19:25:00 21 C 28 % 1.81 C
523 26-04-2020 19:30:00 20.7 C 28 % 1.56 C
524 26-04-2020 19:35:00 20.6 C 28 % 1.47 C
525 26-04-2020 19:40:00 20.4 C 29 % 1.79 C
Sensor: Nr:Datum:Temp:Feuchte:Taupunkt:
Aussen-T/F 526 26-04-2020 19:45:00 20.3 C 38 % 5.53 C
527 26-04-2020 19:50:00 20.2 C 39 % 5.82 C
528 26-04-2020 19:55:00 19.9 C 41 % 6.27 C
529 26-04-2020 20:00:00 19.6 C 41 % 6 C
530 26-04-2020 20:05:00 19.2 C 41 % 5.64 C
531 26-04-2020 20:10:00 18.7 C 42 % 5.54 C
532 26-04-2020 20:15:00 18.3 C 43 % 5.52 C
533 26-04-2020 20:20:00 17.7 C 43 % 4.98 C
534 26-04-2020 20:25:00 17.1 C 44 % 4.76 C
535 26-04-2020 20:30:00 16.6 C 45 % 4.63 C
536 26-04-2020 20:35:00 16.1 C 46 % 4.49 C
537 26-04-2020 20:40:00 15.7 C 45 % 3.81 C
538 26-04-2020 20:45:00 15.3 C 44 % 3.13 C
539 26-04-2020 20:50:00 15.1 C 47 % 3.88 C
540 26-04-2020 20:55:00 14.8 C 48 % 3.91 C
541 26-04-2020 21:00:00 14.4 C 48 % 3.54 C
542 26-04-2020 21:05:00 14.2 C 48 % 3.36 C
543 26-04-2020 21:10:00 13.9 C 51 % 3.94 C
544 26-04-2020 21:15:00 13.7 C 52 % 4.03 C
545 26-04-2020 21:20:00 13.6 C 54 % 4.48 C
546 26-04-2020 21:25:00 13.3 C 55 % 4.46 C
547 26-04-2020 21:30:00 13.1 C 56 % 4.53 C
548 26-04-2020 21:35:00 13 C 57 % 4.69 C
549 26-04-2020 21:40:00 12.9 C 58 % 4.85 C
550 26-04-2020 21:45:00 12.8 C 59 % 5 C
Sensor: Nr:Datum:Temp:Feuchte:Taupunkt:
Aussen-T/F 551 26-04-2020 21:50:00 12.6 C 60 % 5.05 C
552 26-04-2020 21:55:00 12.4 C 60 % 4.86 C
553 26-04-2020 22:00:00 12.3 C 61 % 5.01 C
554 26-04-2020 22:05:00 12.2 C 63 % 5.37 C
555 26-04-2020 22:10:00 12 C 63 % 5.18 C
556 26-04-2020 22:15:00 11.8 C 64 % 5.22 C
557 26-04-2020 22:20:00 11.6 C 65 % 5.25 C
558 26-04-2020 22:25:00 11.4 C 66 % 5.28 C
559 26-04-2020 22:30:00 11.3 C 66 % 5.19 C
560 26-04-2020 22:35:00 11.1 C 67 % 5.21 C
561 26-04-2020 22:40:00 10.9 C 67 % 5.02 C
562 26-04-2020 22:45:00 10.8 C 68 % 5.14 C
563 26-04-2020 22:50:00 10.6 C 69 % 5.16 C
564 26-04-2020 22:55:00 10.4 C 68 % 4.76 C
565 26-04-2020 23:00:00 10.2 C 69 % 4.78 C
566 26-04-2020 23:05:00 10.1 C 69 % 4.68 C
567 26-04-2020 23:10:00 9.9 C 70 % 4.69 C
568 26-04-2020 23:15:00 9.8 C 70 % 4.6 C
569 26-04-2020 23:20:00 9.7 C 70 % 4.5 C
570 26-04-2020 23:25:00 9.6 C 70 % 4.41 C
571 26-04-2020 23:30:00 9.4 C 70 % 4.21 C
572 26-04-2020 23:35:00 9.4 C 70 % 4.21 C
573 26-04-2020 23:40:00 9.3 C 70 % 4.12 C
574 26-04-2020 23:45:00 9.3 C 70 % 4.12 C
575 26-04-2020 23:50:00 9.2 C 71 % 4.22 C
Sensor: Nr:Datum:Temp:Feuchte:Taupunkt:
Aussen-T/F 576 26-04-2020 23:55:00 9.1 C 70 % 3.93 C
577 27-04-2020 00:00:00 9 C 72 % 4.23 C
578 27-04-2020 00:05:00 8.9 C 72 % 4.14 C
579 27-04-2020 00:10:00 8.8 C 73 % 4.24 C
580 27-04-2020 00:15:00 8.7 C 73 % 4.14 C
581 27-04-2020 00:20:00 8.6 C 73 % 4.04 C
582 27-04-2020 00:25:00 8.6 C 73 % 4.04 C
583 27-04-2020 00:30:00 8.4 C 74 % 4.04 C
584 27-04-2020 00:35:00 8.3 C 75 % 4.14 C
585 27-04-2020 00:40:00 8.3 C 75 % 4.14 C
586 27-04-2020 00:45:00 8.2 C 75 % 4.04 C
587 27-04-2020 00:50:00 8.1 C 76 % 4.13 C
588 27-04-2020 00:55:00 7.9 C 76 % 3.94 C
589 27-04-2020 01:00:00 7.9 C 76 % 3.94 C
590 27-04-2020 01:05:00 7.8 C 77 % 4.03 C
591 27-04-2020 01:10:00 7.8 C 77 % 4.03 C
592 27-04-2020 01:15:00 7.7 C 77 % 3.93 C
593 27-04-2020 01:20:00 7.6 C 78 % 4.02 C
594 27-04-2020 01:25:00 7.6 C 78 % 4.02 C
595 27-04-2020 01:30:00 7.4 C 78 % 3.82 C
596 27-04-2020 01:35:00 7.3 C 79 % 3.91 C
597 27-04-2020 01:40:00 7.3 C 79 % 3.91 C
598 27-04-2020 01:45:00 7.2 C 79 % 3.81 C
599 27-04-2020 01:50:00 7.2 C 80 % 3.99 C
600 27-04-2020 01:55:00 7.1 C 79 % 3.71 C
Sensor: Nr:Datum:Temp:Feuchte:Taupunkt:
Aussen-T/F 601 27-04-2020 02:00:00 7 C 80 % 3.79 C
602 27-04-2020 02:05:00 6.9 C 80 % 3.7 C
603 27-04-2020 02:10:00 6.9 C 80 % 3.7 C
604 27-04-2020 02:15:00 6.8 C 81 % 3.77 C
605 27-04-2020 02:20:00 6.8 C 81 % 3.77 C
606 27-04-2020 02:25:00 6.7 C 81 % 3.68 C
607 27-04-2020 02:30:00 6.6 C 81 % 3.58 C
608 27-04-2020 02:35:00 6.6 C 82 % 3.75 C
609 27-04-2020 02:40:00 6.5 C 82 % 3.66 C
610 27-04-2020 02:45:00 6.5 C 82 % 3.66 C
611 27-04-2020 02:50:00 6.4 C 82 % 3.56 C
612 27-04-2020 02:55:00 6.4 C 83 % 3.73 C
613 27-04-2020 03:00:00 6.3 C 83 % 3.63 C
614 27-04-2020 03:05:00 6.3 C 83 % 3.63 C
615 27-04-2020 03:10:00 6.2 C 83 % 3.53 C
616 27-04-2020 03:15:00 6.1 C 84 % 3.61 C
617 27-04-2020 03:20:00 6.1 C 84 % 3.61 C
618 27-04-2020 03:25:00 6.1 C 84 % 3.61 C
619 27-04-2020 03:30:00 6 C 84 % 3.51 C
620 27-04-2020 03:35:00 6 C 85 % 3.67 C
621 27-04-2020 03:40:00 6.1 C 85 % 3.77 C
622 27-04-2020 03:45:00 6.1 C 85 % 3.77 C
623 27-04-2020 03:50:00 6.1 C 85 % 3.77 C
624 27-04-2020 03:55:00 6.1 C 85 % 3.77 C
625 27-04-2020 04:00:00 6 C 85 % 3.67 C
Sensor: Nr:Datum:Temp:Feuchte:Taupunkt:
Aussen-T/F 626 27-04-2020 04:05:00 5.9 C 84 % 3.41 C
627 27-04-2020 04:10:00 5.8 C 85 % 3.48 C
628 27-04-2020 04:15:00 5.7 C 85 % 3.38 C
629 27-04-2020 04:20:00 5.6 C 85 % 3.28 C
630 27-04-2020 04:25:00 5.4 C 86 % 3.25 C
631 27-04-2020 04:30:00 5.3 C 86 % 3.15 C
632 27-04-2020 04:35:00 5.2 C 87 % 3.22 C
633 27-04-2020 04:40:00 5.1 C 87 % 3.12 C
634 27-04-2020 04:45:00 4.9 C 87 % 2.92 C
635 27-04-2020 04:50:00 4.9 C 88 % 3.08 C
636 27-04-2020 04:55:00 4.8 C 88 % 2.99 C
637 27-04-2020 05:00:00 4.8 C 88 % 2.99 C
638 27-04-2020 05:05:00 4.8 C 88 % 2.99 C
639 27-04-2020 05:10:00 4.8 C 89 % 3.14 C
640 27-04-2020 05:15:00 4.7 C 89 % 3.05 C
641 27-04-2020 05:20:00 4.7 C 88 % 2.89 C
642 27-04-2020 05:25:00 4.6 C 88 % 2.79 C
643 27-04-2020 05:30:00 4.4 C 89 % 2.75 C
644 27-04-2020 05:35:00 4.4 C 89 % 2.75 C
645 27-04-2020 05:40:00 4.3 C 89 % 2.65 C
646 27-04-2020 05:45:00 4.3 C 89 % 2.65 C
647 27-04-2020 05:50:00 4.2 C 90 % 2.71 C
648 27-04-2020 05:55:00 4.2 C 90 % 2.71 C
649 27-04-2020 06:00:00 4.2 C 90 % 2.71 C
650 27-04-2020 06:05:00 4.2 C 90 % 2.71 C
Sensor: Nr:Datum:Temp:Feuchte:Taupunkt:
Aussen-T/F 651 27-04-2020 06:10:00 4.2 C 90 % 2.71 C
652 27-04-2020 06:15:00 4.2 C 91 % 2.87 C
653 27-04-2020 06:20:00 4.2 C 91 % 2.87 C
654 27-04-2020 06:25:00 4.2 C 91 % 2.87 C
655 27-04-2020 06:30:00 4.2 C 91 % 2.87 C
656 27-04-2020 06:35:00 4.3 C 91 % 2.96 C
657 27-04-2020 06:40:00 4.3 C 91 % 2.96 C
658 27-04-2020 06:45:00 4.3 C 91 % 2.96 C
659 27-04-2020 06:50:00 4.3 C 91 % 2.96 C
660 27-04-2020 06:55:00 4.2 C 91 % 2.87 C
661 27-04-2020 07:00:00 4.3 C 91 % 2.96 C
662 27-04-2020 07:05:00 4.3 C 91 % 2.96 C
663 27-04-2020 07:10:00 4.3 C 91 % 2.96 C
664 27-04-2020 07:15:00 4.3 C 91 % 2.96 C
665 27-04-2020 07:20:00 4.3 C 92 % 3.12 C
666 27-04-2020 07:25:00 4.4 C 92 % 3.22 C
667 27-04-2020 07:30:00 4.4 C 92 % 3.22 C
668 27-04-2020 07:35:00 4.5 C 92 % 3.32 C
669 27-04-2020 07:40:00 4.6 C 92 % 3.42 C
670 27-04-2020 07:45:00 4.7 C 92 % 3.51 C
671 27-04-2020 07:50:00 4.8 C 92 % 3.61 C
672 27-04-2020 07:55:00 4.9 C 92 % 3.71 C
673 27-04-2020 08:00:00 5 C 92 % 3.81 C
674 27-04-2020 08:05:00 5.1 C 92 % 3.91 C
675 27-04-2020 08:10:00 5.1 C 92 % 3.91 C
Sensor: Nr:Datum:Temp:Feuchte:Taupunkt:
Aussen-T/F 676 27-04-2020 08:15:00 5.2 C 92 % 4.01 C
677 27-04-2020 08:20:00 5.3 C 92 % 4.11 C
678 27-04-2020 08:25:00 5.3 C 92 % 4.11 C
679 27-04-2020 08:30:00 5.4 C 92 % 4.21 C
680 27-04-2020 08:35:00 5.5 C 92 % 4.31 C
681 27-04-2020 08:40:00 5.6 C 92 % 4.41 C
682 27-04-2020 08:45:00 5.8 C 92 % 4.6 C
683 27-04-2020 08:50:00 5.9 C 92 % 4.7 C
684 27-04-2020 08:55:00 6.1 C 92 % 4.9 C
685 27-04-2020 09:00:00 6.2 C 92 % 5 C
686 27-04-2020 09:05:00 6.3 C 92 % 5.1 C
687 27-04-2020 09:10:00 6.4 C 91 % 5.04 C
688 27-04-2020 09:15:00 6.5 C 92 % 5.3 C
689 27-04-2020 09:20:00 6.6 C 91 % 5.24 C
690 27-04-2020 09:25:00 6.8 C 91 % 5.44 C
691 27-04-2020 09:30:00 6.9 C 91 % 5.54 C
692 27-04-2020 09:35:00 7.1 C 91 % 5.73 C
693 27-04-2020 09:40:00 7.3 C 91 % 5.93 C
694 27-04-2020 09:45:00 7.4 C 91 % 6.03 C
695 27-04-2020 09:50:00 7.7 C 91 % 6.33 C
696 27-04-2020 09:55:00 7.8 C 91 % 6.43 C
697 27-04-2020 10:00:00 8.1 C 91 % 6.72 C
698 27-04-2020 10:05:00 8.3 C 91 % 6.92 C
699 27-04-2020 10:10:00 8.6 C 91 % 7.22 C
700 27-04-2020 10:15:00 8.8 C 90 % 7.25 C
Sensor: Nr:Datum:Temp:Feuchte:Taupunkt:
Aussen-T/F 701 27-04-2020 10:20:00 9.2 C 89 % 7.48 C
702 27-04-2020 10:25:00 9.7 C 88 % 7.81 C
703 27-04-2020 10:30:00 10 C 87 % 7.94 C
704 27-04-2020 10:35:00 10.3 C 85 % 7.89 C
705 27-04-2020 10:40:00 10.6 C 84 % 8.01 C
706 27-04-2020 10:45:00 10.9 C 82 % 7.95 C
707 27-04-2020 10:50:00 11.6 C 79 % 8.09 C
708 27-04-2020 10:55:00 12.1 C 78 % 8.38 C
709 27-04-2020 11:00:00 12.7 C 72 % 7.79 C
710 27-04-2020 11:05:00 13.4 C 67 % 7.4 C
711 27-04-2020 11:10:00 14.2 C 63 % 7.27 C
712 27-04-2020 11:15:00 14.8 C 63 % 7.83 C
713 27-04-2020 11:20:00 15.2 C 62 % 7.98 C
714 27-04-2020 11:25:00 15.6 C 57 % 7.12 C
715 27-04-2020 11:30:00 15.9 C 56 % 7.14 C
716 27-04-2020 11:35:00 16.2 C 57 % 7.68 C
717 27-04-2020 11:40:00 16.4 C 52 % 6.53 C
718 27-04-2020 11:45:00 16.7 C 52 % 6.81 C
719 27-04-2020 11:50:00 16.9 C 54 % 7.54 C
720 27-04-2020 11:55:00 17 C 53 % 7.36 C
721 27-04-2020 12:00:00 17.2 C 52 % 7.27 C
722 27-04-2020 12:05:00 17.3 C 52 % 7.36 C
723 27-04-2020 12:10:00 17.6 C 51 % 7.35 C
724 27-04-2020 12:15:00 17.8 C 51 % 7.54 C
725 27-04-2020 12:20:00 17.9 C 49 % 7.05 C
Sensor: Nr:Datum:Temp:Feuchte:Taupunkt:
Aussen-T/F 726 27-04-2020 12:25:00 18.1 C 48 % 6.93 C
727 27-04-2020 12:30:00 18.1 C 49 % 7.23 C
728 27-04-2020 12:35:00 18.2 C 47 % 6.71 C
729 27-04-2020 12:40:00 18.3 C 46 % 6.49 C
730 27-04-2020 12:45:00 18.4 C 46 % 6.58 C
731 27-04-2020 12:50:00 18.6 C 45 % 6.45 C
732 27-04-2020 12:55:00 18.8 C 44 % 6.3 C
733 27-04-2020 13:00:00 19.1 C 41 % 5.55 C
734 27-04-2020 13:05:00 19.3 C 43 % 6.42 C
735 27-04-2020 13:10:00 19.3 C 43 % 6.42 C
736 27-04-2020 13:15:00 19.4 C 41 % 5.82 C
737 27-04-2020 13:20:00 19.4 C 41 % 5.82 C
738 27-04-2020 13:25:00 19.6 C 40 % 5.64 C
739 27-04-2020 13:30:00 19.6 C 42 % 6.35 C
740 27-04-2020 13:35:00 19.8 C 41 % 6.18 C
741 27-04-2020 13:40:00 19.8 C 41 % 6.18 C
742 27-04-2020 13:45:00 19.9 C 40 % 5.91 C
743 27-04-2020 13:50:00 20 C 39 % 5.64 C
744 27-04-2020 13:55:00 20 C 40 % 6 C
745 27-04-2020 14:00:00 20.2 C 40 % 6.18 C
746 27-04-2020 14:05:00 20.4 C 39 % 5.99 C
747 27-04-2020 14:10:00 20.6 C 39 % 6.17 C
748 27-04-2020 14:15:00 20.7 C 40 % 6.63 C
749 27-04-2020 14:20:00 20.7 C 40 % 6.63 C
750 27-04-2020 14:25:00 20.7 C 39 % 6.26 C
Sensor: Nr:Datum:Temp:Feuchte:Taupunkt:
Aussen-T/F 751 27-04-2020 14:30:00 20.8 C 38 % 5.97 C
752 27-04-2020 14:35:00 20.9 C 38 % 6.06 C
753 27-04-2020 14:40:00 20.9 C 40 % 6.81 C
754 27-04-2020 14:45:00 21.1 C 39 % 6.62 C
755 27-04-2020 14:50:00 21.2 C 38 % 6.33 C
756 27-04-2020 14:55:00 21.4 C 37 % 6.12 C
757 27-04-2020 15:00:00 21.7 C 36 % 5.99 C
758 27-04-2020 15:05:00 21.8 C 36 % 6.08 C
759 27-04-2020 15:10:00 21.9 C 36 % 6.17 C
760 27-04-2020 15:15:00 22.1 C 36 % 6.34 C
761 27-04-2020 15:20:00 22.2 C 36 % 6.43 C
762 27-04-2020 15:25:00 22.2 C 35 % 6.02 C
763 27-04-2020 15:30:00 22.3 C 35 % 6.11 C
764 27-04-2020 15:35:00 22.5 C 34 % 5.87 C
765 27-04-2020 15:40:00 22.8 C 33 % 5.7 C
766 27-04-2020 15:45:00 23.1 C 32 % 5.52 C
767 27-04-2020 15:50:00 23.2 C 35 % 6.9 C
768 27-04-2020 15:55:00 23.2 C 33 % 6.05 C
769 27-04-2020 16:00:00 23.3 C 34 % 6.57 C
770 27-04-2020 16:05:00 23.2 C 32 % 5.61 C
771 27-04-2020 16:10:00 23.3 C 33 % 6.14 C
772 27-04-2020 16:15:00 23.1 C 32 % 5.52 C
773 27-04-2020 16:20:00 22.7 C 33 % 5.61 C
774 27-04-2020 16:25:00 22.5 C 34 % 5.87 C
775 27-04-2020 16:30:00 22.2 C 35 % 6.02 C
Sensor: Nr:Datum:Temp:Feuchte:Taupunkt:
Aussen-T/F 776 27-04-2020 16:35:00 22.3 C 37 % 6.92 C
777 27-04-2020 16:40:00 22.6 C 35 % 6.38 C
778 27-04-2020 16:45:00 22.6 C 35 % 6.38 C
779 27-04-2020 16:50:00 22.4 C 36 % 6.61 C
780 27-04-2020 16:55:00 22.2 C 36 % 6.43 C
781 27-04-2020 17:00:00 22 C 37 % 6.65 C
782 27-04-2020 17:05:00 21.9 C 36 % 6.17 C
783 27-04-2020 17:10:00 21.8 C 37 % 6.48 C
784 27-04-2020 17:15:00 21.7 C 38 % 6.77 C
785 27-04-2020 17:20:00 21.6 C 38 % 6.69 C
786 27-04-2020 17:25:00 21.4 C 39 % 6.89 C
787 27-04-2020 17:30:00 21.3 C 39 % 6.8 C
788 27-04-2020 17:35:00 21.2 C 39 % 6.71 C
789 27-04-2020 17:40:00 21.1 C 41 % 7.35 C
790 27-04-2020 17:45:00 21.1 C 42 % 7.7 C
791 27-04-2020 17:50:00 21.1 C 41 % 7.35 C
792 27-04-2020 17:55:00 21.3 C 41 % 7.53 C
793 27-04-2020 18:00:00 21.4 C 42 % 7.97 C
794 27-04-2020 18:05:00 21.3 C 39 % 6.8 C
795 27-04-2020 18:10:00 21.2 C 43 % 8.13 C
796 27-04-2020 18:15:00 21.4 C 44 % 8.65 C
797 27-04-2020 18:20:00 22.2 C 42 % 8.69 C
798 27-04-2020 18:25:00 22.9 C 38 % 7.84 C
799 27-04-2020 18:30:00 23.3 C 35 % 6.99 C
800 27-04-2020 18:35:00 23.3 C 36 % 7.4 C
Sensor: Nr:Datum:Temp:Feuchte:Taupunkt:
Aussen-T/F 801 27-04-2020 18:40:00 23.4 C 36 % 7.49 C
802 27-04-2020 18:45:00 23.5 C 35 % 7.17 C
803 27-04-2020 18:50:00 23.6 C 36 % 7.67 C
804 27-04-2020 18:55:00 23.6 C 36 % 7.67 C
805 27-04-2020 19:00:00 22.9 C 39 % 8.22 C
806 27-04-2020 19:05:00 22.4 C 44 % 9.56 C
807 27-04-2020 19:10:00 21.8 C 43 % 8.67 C
808 27-04-2020 19:15:00 21.2 C 47 % 9.45 C
809 27-04-2020 19:20:00 20.9 C 48 % 9.49 C
810 27-04-2020 19:25:00 20.6 C 48 % 9.21 C
811 27-04-2020 19:30:00 20.2 C 49 % 9.15 C
812 27-04-2020 19:35:00 19.7 C 49 % 8.7 C
813 27-04-2020 19:40:00 19.2 C 51 % 8.83 C
814 27-04-2020 19:45:00 18.9 C 52 % 8.84 C
815 27-04-2020 19:50:00 18.6 C 52 % 8.56 C
816 27-04-2020 19:55:00 18.2 C 54 % 8.75 C
817 27-04-2020 20:00:00 17.9 C 54 % 8.47 C
818 27-04-2020 20:05:00 17.6 C 55 % 8.46 C
819 27-04-2020 20:10:00 17.4 C 56 % 8.54 C
820 27-04-2020 20:15:00 17.2 C 57 % 8.62 C
821 27-04-2020 20:20:00 17 C 57 % 8.43 C
822 27-04-2020 20:25:00 16.8 C 58 % 8.5 C
823 27-04-2020 20:30:00 16.5 C 59 % 8.47 C
824 27-04-2020 20:35:00 16.2 C 60 % 8.43 C
825 27-04-2020 20:40:00 15.8 C 61 % 8.3 C
Sensor: Nr:Datum:Temp:Feuchte:Taupunkt:
Aussen-T/F 826 27-04-2020 20:45:00 15.6 C 62 % 8.35 C
827 27-04-2020 20:50:00 15.4 C 62 % 8.16 C
828 27-04-2020 20:55:00 15.2 C 63 % 8.21 C
829 27-04-2020 21:00:00 15.1 C 63 % 8.12 C
830 27-04-2020 21:05:00 15 C 64 % 8.25 C
831 27-04-2020 21:10:00 14.9 C 64 % 8.16 C
832 27-04-2020 21:15:00 14.8 C 65 % 8.29 C
833 27-04-2020 21:20:00 14.8 C 66 % 8.52 C
834 27-04-2020 21:25:00 14.7 C 66 % 8.42 C
835 27-04-2020 21:30:00 14.6 C 66 % 8.33 C
836 27-04-2020 21:35:00 14.4 C 66 % 8.14 C
837 27-04-2020 21:40:00 14.3 C 67 % 8.26 C
838 27-04-2020 21:45:00 14.2 C 68 % 8.39 C
839 27-04-2020 21:50:00 14 C 68 % 8.19 C
840 27-04-2020 21:55:00 13.8 C 68 % 8 C
841 27-04-2020 22:00:00 13.7 C 69 % 8.12 C
842 27-04-2020 22:05:00 13.6 C 69 % 8.03 C
843 27-04-2020 22:10:00 13.6 C 70 % 8.24 C
844 27-04-2020 22:15:00 13.5 C 70 % 8.14 C
845 27-04-2020 22:20:00 13.4 C 71 % 8.26 C
846 27-04-2020 22:25:00 13.3 C 71 % 8.16 C
847 27-04-2020 22:30:00 13.2 C 72 % 8.27 C
848 27-04-2020 22:35:00 13.1 C 72 % 8.17 C
849 27-04-2020 22:40:00 12.9 C 72 % 7.98 C
850 27-04-2020 22:45:00 12.8 C 73 % 8.09 C
Sensor: Nr:Datum:Temp:Feuchte:Taupunkt:
Aussen-T/F 851 27-04-2020 22:50:00 12.7 C 73 % 7.99 C
852 27-04-2020 22:55:00 12.6 C 73 % 7.89 C
853 27-04-2020 23:00:00 12.6 C 73 % 7.89 C
854 27-04-2020 23:05:00 12.5 C 74 % 8 C
855 27-04-2020 23:10:00 12.4 C 74 % 7.9 C
856 27-04-2020 23:15:00 12.3 C 74 % 7.8 C
857 27-04-2020 23:20:00 12.3 C 74 % 7.8 C
858 27-04-2020 23:25:00 12.3 C 74 % 7.8 C
859 27-04-2020 23:30:00 12.2 C 75 % 7.91 C
860 27-04-2020 23:35:00 12.1 C 75 % 7.81 C
861 27-04-2020 23:40:00 11.9 C 76 % 7.81 C
862 27-04-2020 23:45:00 11.8 C 76 % 7.71 C
863 27-04-2020 23:50:00 11.6 C 77 % 7.71 C
864 27-04-2020 23:55:00 11.4 C 78 % 7.71 C
865 28-04-2020 00:00:00 11.3 C 78 % 7.61 C
866 28-04-2020 00:05:00 11.2 C 79 % 7.7 C
867 28-04-2020 00:10:00 11.1 C 79 % 7.6 C
868 28-04-2020 00:15:00 10.9 C 80 % 7.59 C
869 28-04-2020 00:20:00 10.8 C 80 % 7.49 C
870 28-04-2020 00:25:00 10.7 C 80 % 7.4 C
871 28-04-2020 00:30:00 10.6 C 81 % 7.48 C
872 28-04-2020 00:35:00 10.5 C 81 % 7.38 C
873 28-04-2020 00:40:00 10.5 C 81 % 7.38 C
874 28-04-2020 00:45:00 10.4 C 81 % 7.28 C
875 28-04-2020 00:50:00 10.4 C 81 % 7.28 C
Sensor: Nr:Datum:Temp:Feuchte:Taupunkt:
Aussen-T/F 876 28-04-2020 00:55:00 10.3 C 82 % 7.37 C
877 28-04-2020 01:00:00 10.3 C 82 % 7.37 C
878 28-04-2020 01:05:00 10.2 C 82 % 7.27 C
879 28-04-2020 01:10:00 10.1 C 82 % 7.17 C
880 28-04-2020 01:15:00 10 C 83 % 7.25 C
881 28-04-2020 01:20:00 9.9 C 83 % 7.15 C
882 28-04-2020 01:25:00 9.9 C 83 % 7.15 C
883 28-04-2020 01:30:00 9.8 C 83 % 7.05 C
884 28-04-2020 01:35:00 9.7 C 83 % 6.96 C
885 28-04-2020 01:40:00 9.7 C 84 % 7.13 C
886 28-04-2020 01:45:00 9.7 C 84 % 7.13 C
887 28-04-2020 01:50:00 9.6 C 84 % 7.03 C
888 28-04-2020 01:55:00 9.6 C 84 % 7.03 C
889 28-04-2020 02:00:00 9.5 C 85 % 7.11 C
890 28-04-2020 02:05:00 9.4 C 85 % 7.01 C
891 28-04-2020 02:10:00 9.3 C 85 % 6.91 C
892 28-04-2020 02:15:00 9.3 C 85 % 6.91 C
893 28-04-2020 02:20:00 9.2 C 85 % 6.81 C
894 28-04-2020 02:25:00 9.1 C 85 % 6.72 C
895 28-04-2020 02:30:00 9.1 C 86 % 6.89 C
896 28-04-2020 02:35:00 8.9 C 86 % 6.69 C
897 28-04-2020 02:40:00 8.8 C 86 % 6.59 C
898 28-04-2020 02:45:00 8.8 C 87 % 6.76 C
899 28-04-2020 02:50:00 8.9 C 88 % 7.02 C
900 28-04-2020 02:55:00 9.1 C 88 % 7.22 C
Sensor: Nr:Datum:Temp:Feuchte:Taupunkt:
Aussen-T/F 901 28-04-2020 03:00:00 9.1 C 87 % 7.05 C
902 28-04-2020 03:05:00 9.1 C 87 % 7.05 C
903 28-04-2020 03:10:00 9 C 87 % 6.96 C
904 28-04-2020 03:15:00 8.9 C 87 % 6.86 C
905 28-04-2020 03:20:00 8.9 C 87 % 6.86 C
906 28-04-2020 03:25:00 8.8 C 87 % 6.76 C
907 28-04-2020 03:30:00 8.8 C 88 % 6.93 C
908 28-04-2020 03:35:00 8.8 C 88 % 6.93 C
909 28-04-2020 03:40:00 8.7 C 88 % 6.83 C
910 28-04-2020 03:45:00 8.6 C 88 % 6.73 C
911 28-04-2020 03:50:00 8.6 C 88 % 6.73 C
912 28-04-2020 03:55:00 8.4 C 88 % 6.53 C
913 28-04-2020 04:00:00 8.4 C 89 % 6.7 C
914 28-04-2020 04:05:00 8.4 C 89 % 6.7 C
915 28-04-2020 04:10:00 8.3 C 89 % 6.6 C
916 28-04-2020 04:15:00 8.2 C 88 % 6.33 C
917 28-04-2020 04:20:00 8.1 C 89 % 6.4 C
918 28-04-2020 04:25:00 7.9 C 89 % 6.2 C
919 28-04-2020 04:30:00 7.9 C 90 % 6.36 C
920 28-04-2020 04:35:00 7.9 C 90 % 6.36 C
921 28-04-2020 04:40:00 7.8 C 90 % 6.27 C
922 28-04-2020 04:45:00 7.8 C 90 % 6.27 C
923 28-04-2020 04:50:00 7.9 C 91 % 6.52 C
924 28-04-2020 04:55:00 8 C 91 % 6.62 C
925 28-04-2020 05:00:00 8.1 C 91 % 6.72 C
Sensor: Nr:Datum:Temp:Feuchte:Taupunkt:
Aussen-T/F 926 28-04-2020 05:05:00 8.1 C 91 % 6.72 C
927 28-04-2020 05:10:00 8.1 C 91 % 6.72 C
928 28-04-2020 05:15:00 8.2 C 91 % 6.82 C
929 28-04-2020 05:20:00 8.2 C 91 % 6.82 C
930 28-04-2020 05:25:00 8.2 C 91 % 6.82 C
931 28-04-2020 05:30:00 8.2 C 91 % 6.82 C
932 28-04-2020 05:35:00 8.2 C 91 % 6.82 C
933 28-04-2020 05:40:00 8.2 C 91 % 6.82 C
934 28-04-2020 05:45:00 8.1 C 90 % 6.56 C
935 28-04-2020 05:50:00 8.1 C 91 % 6.72 C
936 28-04-2020 05:55:00 8 C 91 % 6.62 C
937 28-04-2020 06:00:00 7.9 C 90 % 6.36 C
938 28-04-2020 06:05:00 7.9 C 90 % 6.36 C
939 28-04-2020 06:10:00 7.8 C 91 % 6.43 C
940 28-04-2020 06:15:00 7.8 C 91 % 6.43 C
941 28-04-2020 06:20:00 7.7 C 91 % 6.33 C
942 28-04-2020 06:25:00 7.8 C 91 % 6.43 C
943 28-04-2020 06:30:00 7.8 C 92 % 6.58 C
944 28-04-2020 06:35:00 7.8 C 92 % 6.58 C
945 28-04-2020 06:40:00 7.9 C 92 % 6.68 C
946 28-04-2020 06:45:00 7.9 C 92 % 6.68 C
947 28-04-2020 06:50:00 8.1 C 92 % 6.88 C
948 28-04-2020 06:55:00 8.1 C 92 % 6.88 C
949 28-04-2020 07:00:00 8.2 C 92 % 6.98 C
950 28-04-2020 07:05:00 8.3 C 93 % 7.24 C
Sensor: Nr:Datum:Temp:Feuchte:Taupunkt:
Aussen-T/F 951 28-04-2020 07:10:00 8.5 C 93 % 7.43 C
952 28-04-2020 07:15:00 8.6 C 92 % 7.38 C
953 28-04-2020 07:20:00 8.7 C 92 % 7.47 C
954 28-04-2020 07:25:00 8.8 C 92 % 7.57 C
955 28-04-2020 07:30:00 8.9 C 91 % 7.51 C
956 28-04-2020 07:35:00 9.1 C 92 % 7.87 C
957 28-04-2020 07:40:00 9.1 C 91 % 7.71 C
958 28-04-2020 07:45:00 9.3 C 91 % 7.91 C
959 28-04-2020 07:50:00 9.4 C 91 % 8.01 C
960 28-04-2020 07:55:00 9.5 C 91 % 8.11 C
961 28-04-2020 08:00:00 9.6 C 91 % 8.21 C
962 28-04-2020 08:05:00 9.6 C 91 % 8.21 C
963 28-04-2020 08:10:00 9.7 C 91 % 8.3 C
964 28-04-2020 08:15:00 9.8 C 91 % 8.4 C
965 28-04-2020 08:20:00 9.9 C 92 % 8.66 C
966 28-04-2020 08:25:00 10 C 92 % 8.76 C
967 28-04-2020 08:30:00 10.1 C 92 % 8.86 C
968 28-04-2020 08:35:00 10.2 C 92 % 8.96 C
969 28-04-2020 08:40:00 10.2 C 92 % 8.96 C
970 28-04-2020 08:45:00 10.3 C 92 % 9.06 C
971 28-04-2020 08:50:00 10.3 C 92 % 9.06 C
972 28-04-2020 08:55:00 10.4 C 92 % 9.16 C
973 28-04-2020 09:00:00 10.4 C 92 % 9.16 C
974 28-04-2020 09:05:00 10.6 C 92 % 9.36 C
975 28-04-2020 09:10:00 10.6 C 92 % 9.36 C
Sensor: Nr:Datum:Temp:Feuchte:Taupunkt:
Aussen-T/F 976 28-04-2020 09:15:00 10.8 C 92 % 9.55 C
977 28-04-2020 09:20:00 10.9 C 92 % 9.65 C
978 28-04-2020 09:25:00 11.1 C 92 % 9.85 C
979 28-04-2020 09:30:00 11.3 C 92 % 10.05 C
980 28-04-2020 09:35:00 11.4 C 92 % 10.15 C
981 28-04-2020 09:40:00 11.5 C 91 % 10.08 C
982 28-04-2020 09:45:00 11.5 C 91 % 10.08 C
983 28-04-2020 09:50:00 11.7 C 91 % 10.28 C
984 28-04-2020 09:55:00 11.8 C 92 % 10.54 C
985 28-04-2020 10:00:00 12 C 92 % 10.74 C
986 28-04-2020 10:05:00 12.2 C 91 % 10.78 C
987 28-04-2020 10:10:00 12.2 C 91 % 10.78 C
988 28-04-2020 10:15:00 12.3 C 90 % 10.71 C
989 28-04-2020 10:20:00 12.3 C 90 % 10.71 C
990 28-04-2020 10:25:00 12.4 C 90 % 10.81 C
991 28-04-2020 10:30:00 12.6 C 90 % 11 C
992 28-04-2020 10:35:00 12.7 C 90 % 11.1 C
993 28-04-2020 10:40:00 12.9 C 90 % 11.3 C
994 28-04-2020 10:45:00 13.1 C 90 % 11.5 C
995 28-04-2020 10:50:00 13.2 C 89 % 11.43 C
996 28-04-2020 10:55:00 13.4 C 90 % 11.79 C
997 28-04-2020 11:00:00 13.6 C 90 % 11.99 C
998 28-04-2020 11:05:00 13.7 C 90 % 12.09 C
999 28-04-2020 11:10:00 13.8 C 91 % 12.36 C
1000 28-04-2020 11:15:00 13.9 C 91 % 12.46 C
Sensor: Nr:Datum:Temp:Feuchte:Taupunkt:
Aussen-T/F 1001 28-04-2020 11:20:00 13.9 C 91 % 12.46 C
1002 28-04-2020 11:25:00 14 C 91 % 12.56 C
1003 28-04-2020 11:30:00 14.1 C 91 % 12.65 C
1004 28-04-2020 11:35:00 14.2 C 92 % 12.92 C
1005 28-04-2020 11:40:00 14.2 C 92 % 12.92 C
1006 28-04-2020 11:45:00 14.2 C 92 % 12.92 C
1007 28-04-2020 11:50:00 14.3 C 92 % 13.02 C
1008 28-04-2020 11:55:00 14.3 C 92 % 13.02 C
1009 28-04-2020 12:00:00 14.4 C 92 % 13.12 C
1010 28-04-2020 12:05:00 14.6 C 93 % 13.48 C
1011 28-04-2020 12:10:00 14.7 C 93 % 13.58 C
1012 28-04-2020 12:15:00 14.8 C 92 % 13.51 C
1013 28-04-2020 12:20:00 14.9 C 93 % 13.78 C
1014 28-04-2020 12:25:00 15 C 93 % 13.88 C
1015 28-04-2020 12:30:00 15.1 C 93 % 13.98 C
1016 28-04-2020 12:35:00 15.2 C 93 % 14.08 C
1017 28-04-2020 12:40:00 15.2 C 92 % 13.91 C
1018 28-04-2020 12:45:00 15.2 C 92 % 13.91 C
1019 28-04-2020 12:50:00 15.2 C 93 % 14.08 C
1020 28-04-2020 12:55:00 15.2 C 93 % 14.08 C
1021 28-04-2020 13:00:00 15.2 C 92 % 13.91 C
1022 28-04-2020 13:05:00 15.1 C 92 % 13.81 C
1023 28-04-2020 13:10:00 15.1 C 93 % 13.98 C
1024 28-04-2020 13:15:00 15 C 93 % 13.88 C
1025 28-04-2020 13:20:00 14.9 C 93 % 13.78 C
Sensor: Nr:Datum:Temp:Feuchte:Taupunkt:
Aussen-T/F 1026 28-04-2020 13:25:00 14.8 C 93 % 13.68 C
1027 28-04-2020 13:30:00 14.9 C 94 % 13.94 C
1028 28-04-2020 13:35:00 15 C 94 % 14.04 C
1029 28-04-2020 13:40:00 15 C 93 % 13.88 C
1030 28-04-2020 13:45:00 15.2 C 94 % 14.24 C
1031 28-04-2020 13:50:00 15.2 C 94 % 14.24 C
1032 28-04-2020 13:55:00 15.3 C 94 % 14.34 C
1033 28-04-2020 14:00:00 15.5 C 93 % 14.37 C
1034 28-04-2020 14:05:00 15.7 C 93 % 14.57 C
1035 28-04-2020 14:10:00 15.9 C 93 % 14.77 C
1036 28-04-2020 14:15:00 16.2 C 93 % 15.07 C
1037 28-04-2020 14:20:00 16.4 C 92 % 15.1 C
1038 28-04-2020 14:25:00 16.6 C 91 % 15.13 C
1039 28-04-2020 14:30:00 16.7 C 90 % 15.05 C
1040 28-04-2020 14:35:00 16.6 C 88 % 14.6 C
1041 28-04-2020 14:40:00 16.4 C 88 % 14.41 C
1042 28-04-2020 14:45:00 16.3 C 89 % 14.48 C
1043 28-04-2020 14:50:00 16.4 C 90 % 14.76 C
1044 28-04-2020 14:55:00 16.6 C 90 % 14.95 C
1045 28-04-2020 15:00:00 16.6 C 89 % 14.78 C
1046 28-04-2020 15:05:00 16.4 C 87 % 14.23 C
1047 28-04-2020 15:10:00 16.2 C 88 % 14.21 C
1048 28-04-2020 15:15:00 16.1 C 89 % 14.29 C
1049 28-04-2020 15:20:00 16 C 89 % 14.19 C
1050 28-04-2020 15:25:00 16 C 89 % 14.19 C
Sensor: Nr:Datum:Temp:Feuchte:Taupunkt:
Aussen-T/F 1051 28-04-2020 15:30:00 16 C 90 % 14.36 C
1052 28-04-2020 15:35:00 16.3 C 89 % 14.48 C
1053 28-04-2020 15:40:00 16.3 C 87 % 14.13 C
1054 28-04-2020 15:45:00 16.3 C 85 % 13.77 C
1055 28-04-2020 15:50:00 16.3 C 87 % 14.13 C
1056 28-04-2020 15:55:00 16.4 C 86 % 14.05 C
1057 28-04-2020 16:00:00 16.5 C 85 % 13.97 C
1058 28-04-2020 16:05:00 16.4 C 84 % 13.69 C
1059 28-04-2020 16:10:00 16.3 C 85 % 13.77 C
1060 28-04-2020 16:15:00 16.3 C 85 % 13.77 C
1061 28-04-2020 16:20:00 16.3 C 85 % 13.77 C
1062 28-04-2020 16:25:00 16.4 C 86 % 14.05 C
1063 28-04-2020 16:30:00 16.6 C 84 % 13.89 C
1064 28-04-2020 16:35:00 16.8 C 84 % 14.08 C
1065 28-04-2020 16:40:00 17.1 C 84 % 14.38 C
1066 28-04-2020 16:45:00 17.6 C 80 % 14.11 C
1067 28-04-2020 16:50:00 17.8 C 79 % 14.11 C
1068 28-04-2020 16:55:00 17.7 C 78 % 13.82 C
1069 28-04-2020 17:00:00 17.4 C 79 % 13.72 C
1070 28-04-2020 17:05:00 17.2 C 79 % 13.53 C
1071 28-04-2020 17:10:00 17.1 C 78 % 13.24 C
1072 28-04-2020 17:15:00 17 C 79 % 13.33 C
1073 28-04-2020 17:20:00 17 C 80 % 13.53 C
1074 28-04-2020 17:25:00 17 C 78 % 13.14 C
1075 28-04-2020 17:30:00 16.9 C 78 % 13.04 C
Sensor: Nr:Datum:Temp:Feuchte:Taupunkt:
Aussen-T/F 1076 28-04-2020 17:35:00 16.8 C 77 % 12.75 C
1077 28-04-2020 17:40:00 16.7 C 78 % 12.85 C
1078 28-04-2020 17:45:00 16.6 C 77 % 12.55 C
1079 28-04-2020 17:50:00 16.5 C 78 % 12.65 C
1080 28-04-2020 17:55:00 16.7 C 78 % 12.85 C
1081 28-04-2020 18:00:00 17.2 C 77 % 13.14 C
1082 28-04-2020 18:05:00 17.4 C 74 % 12.72 C
1083 28-04-2020 18:10:00 17.5 C 74 % 12.82 C
1084 28-04-2020 18:15:00 17.4 C 74 % 12.72 C
1085 28-04-2020 18:20:00 17.6 C 75 % 13.12 C
1086 28-04-2020 18:25:00 17.9 C 72 % 12.78 C
1087 28-04-2020 18:30:00 17.8 C 71 % 12.47 C
1088 28-04-2020 18:35:00 17.9 C 70 % 12.35 C
1089 28-04-2020 18:40:00 18 C 71 % 12.67 C
1090 28-04-2020 18:45:00 18.2 C 72 % 13.07 C
1091 28-04-2020 18:50:00 17.8 C 71 % 12.47 C
1092 28-04-2020 18:55:00 17.4 C 73 % 12.51 C
1093 28-04-2020 19:00:00 16.9 C 75 % 12.44 C
1094 28-04-2020 19:05:00 16.8 C 75 % 12.35 C
1095 28-04-2020 19:10:00 16.7 C 73 % 11.84 C
1096 28-04-2020 19:15:00 16.7 C 76 % 12.45 C
1097 28-04-2020 19:20:00 16.8 C 78 % 12.94 C
1098 28-04-2020 19:25:00 17 C 75 % 12.54 C
1099 28-04-2020 19:30:00 17.1 C 77 % 13.04 C
1100 28-04-2020 19:35:00 17.1 C 74 % 12.43 C
Sensor: Nr:Datum:Temp:Feuchte:Taupunkt:
Aussen-T/F 1101 28-04-2020 19:40:00 17.1 C 73 % 12.23 C
1102 28-04-2020 19:45:00 17.1 C 75 % 12.64 C
1103 28-04-2020 19:50:00 17 C 73 % 12.13 C
1104 28-04-2020 19:55:00 16.8 C 73 % 11.94 C
1105 28-04-2020 20:00:00 16.6 C 75 % 12.15 C
1106 28-04-2020 20:05:00 16.3 C 77 % 12.26 C
1107 28-04-2020 20:10:00 16 C 78 % 12.17 C
1108 28-04-2020 20:15:00 15.6 C 79 % 11.97 C
1109 28-04-2020 20:20:00 15.3 C 80 % 11.87 C
1110 28-04-2020 20:25:00 15 C 82 % 11.95 C
1111 28-04-2020 20:30:00 14.7 C 83 % 11.85 C
1112 28-04-2020 20:35:00 14.4 C 84 % 11.73 C
1113 28-04-2020 20:40:00 14.2 C 85 % 11.72 C
1114 28-04-2020 20:45:00 14 C 85 % 11.52 C
1115 28-04-2020 20:50:00 13.8 C 86 % 11.5 C
1116 28-04-2020 20:55:00 13.6 C 86 % 11.3 C
1117 28-04-2020 21:00:00 13.4 C 87 % 11.28 C
1118 28-04-2020 21:05:00 13.2 C 87 % 11.09 C
1119 28-04-2020 21:10:00 13.2 C 88 % 11.26 C
1120 28-04-2020 21:15:00 13.1 C 88 % 11.16 C
1121 28-04-2020 21:20:00 13.1 C 88 % 11.16 C
1122 28-04-2020 21:25:00 13.2 C 87 % 11.09 C
1123 28-04-2020 21:30:00 13.3 C 86 % 11.01 C
1124 28-04-2020 21:35:00 13.4 C 85 % 10.93 C
1125 28-04-2020 21:40:00 13.6 C 85 % 11.13 C
Sensor: Nr:Datum:Temp:Feuchte:Taupunkt:
Aussen-T/F 1126 28-04-2020 21:45:00 13.7 C 84 % 11.05 C
1127 28-04-2020 21:50:00 13.8 C 84 % 11.15 C
1128 28-04-2020 21:55:00 13.8 C 84 % 11.15 C
1129 28-04-2020 22:00:00 13.8 C 84 % 11.15 C
1130 28-04-2020 22:05:00 13.8 C 84 % 11.15 C
1131 28-04-2020 22:10:00 13.6 C 85 % 11.13 C
1132 28-04-2020 22:15:00 13.4 C 85 % 10.93 C
1133 28-04-2020 22:20:00 13.3 C 86 % 11.01 C
1134 28-04-2020 22:25:00 13.2 C 87 % 11.09 C
1135 28-04-2020 22:30:00 13.1 C 88 % 11.16 C
1136 28-04-2020 22:35:00 13.1 C 87 % 10.99 C
1137 28-04-2020 22:40:00 13.1 C 88 % 11.16 C
1138 28-04-2020 22:45:00 13.1 C 88 % 11.16 C
1139 28-04-2020 22:50:00 13.1 C 88 % 11.16 C
1140 28-04-2020 22:55:00 13.1 C 88 % 11.16 C
1141 28-04-2020 23:00:00 13.1 C 88 % 11.16 C
1142 28-04-2020 23:05:00 13 C 88 % 11.06 C
1143 28-04-2020 23:10:00 12.9 C 88 % 10.96 C
1144 28-04-2020 23:15:00 12.9 C 89 % 11.13 C
1145 28-04-2020 23:20:00 12.9 C 89 % 11.13 C
1146 28-04-2020 23:25:00 12.9 C 89 % 11.13 C
1147 28-04-2020 23:30:00 12.9 C 89 % 11.13 C
1148 28-04-2020 23:35:00 12.9 C 89 % 11.13 C
1149 28-04-2020 23:40:00 12.8 C 90 % 11.2 C
1150 28-04-2020 23:45:00 12.8 C 90 % 11.2 C
Sensor: Nr:Datum:Temp:Feuchte:Taupunkt:
Aussen-T/F 1151 28-04-2020 23:50:00 12.8 C 90 % 11.2 C
1152 28-04-2020 23:55:00 12.7 C 90 % 11.1 C
1153 29-04-2020 00:00:00 12.7 C 90 % 11.1 C
1154 29-04-2020 00:05:00 12.6 C 90 % 11 C
1155 29-04-2020 00:10:00 12.6 C 90 % 11 C
1156 29-04-2020 00:15:00 12.6 C 90 % 11 C
1157 29-04-2020 00:20:00 12.5 C 90 % 10.91 C
1158 29-04-2020 00:25:00 12.4 C 90 % 10.81 C
1159 29-04-2020 00:30:00 12.4 C 90 % 10.81 C
1160 29-04-2020 00:35:00 12.3 C 90 % 10.71 C
1161 29-04-2020 00:40:00 12.2 C 90 % 10.61 C
1162 29-04-2020 00:45:00 12.1 C 90 % 10.51 C
1163 29-04-2020 00:50:00 12 C 90 % 10.41 C
1164 29-04-2020 00:55:00 11.9 C 90 % 10.31 C
1165 29-04-2020 01:00:00 11.9 C 91 % 10.48 C
1166 29-04-2020 01:05:00 11.9 C 91 % 10.48 C
1167 29-04-2020 01:10:00 11.8 C 91 % 10.38 C
1168 29-04-2020 01:15:00 11.8 C 91 % 10.38 C
1169 29-04-2020 01:20:00 11.8 C 91 % 10.38 C
1170 29-04-2020 01:25:00 11.9 C 92 % 10.64 C
1171 29-04-2020 01:30:00 12 C 92 % 10.74 C
1172 29-04-2020 01:35:00 12.1 C 92 % 10.84 C
1173 29-04-2020 01:40:00 12.1 C 92 % 10.84 C
1174 29-04-2020 01:45:00 12.1 C 92 % 10.84 C
1175 29-04-2020 01:50:00 12.1 C 92 % 10.84 C
Sensor: Nr:Datum:Temp:Feuchte:Taupunkt:
Aussen-T/F 1176 29-04-2020 01:55:00 12 C 92 % 10.74 C
1177 29-04-2020 02:00:00 12 C 93 % 10.9 C
1178 29-04-2020 02:05:00 11.9 C 92 % 10.64 C
1179 29-04-2020 02:10:00 11.9 C 92 % 10.64 C
1180 29-04-2020 02:15:00 11.9 C 92 % 10.64 C
1181 29-04-2020 02:20:00 11.9 C 92 % 10.64 C
1182 29-04-2020 02:25:00 11.9 C 91 % 10.48 C
1183 29-04-2020 02:30:00 12 C 91 % 10.58 C
1184 29-04-2020 02:35:00 12.1 C 90 % 10.51 C
1185 29-04-2020 02:40:00 12.2 C 89 % 10.44 C
1186 29-04-2020 02:45:00 12.3 C 88 % 10.37 C
1187 29-04-2020 02:50:00 12.3 C 88 % 10.37 C
1188 29-04-2020 02:55:00 12.3 C 86 % 10.03 C
1189 29-04-2020 03:00:00 12.3 C 87 % 10.2 C
1190 29-04-2020 03:05:00 12.3 C 87 % 10.2 C
1191 29-04-2020 03:10:00 12.2 C 87 % 10.1 C
1192 29-04-2020 03:15:00 12.1 C 87 % 10 C
1193 29-04-2020 03:20:00 12 C 88 % 10.08 C
1194 29-04-2020 03:25:00 11.9 C 88 % 9.98 C
1195 29-04-2020 03:30:00 11.9 C 89 % 10.15 C
1196 29-04-2020 03:35:00 11.9 C 89 % 10.15 C
1197 29-04-2020 03:40:00 11.9 C 89 % 10.15 C
1198 29-04-2020 03:45:00 11.9 C 89 % 10.15 C
1199 29-04-2020 03:50:00 11.9 C 89 % 10.15 C
1200 29-04-2020 03:55:00 12 C 88 % 10.08 C
Sensor: Nr:Datum:Temp:Feuchte:Taupunkt:
Aussen-T/F 1201 29-04-2020 04:00:00 12.1 C 89 % 10.34 C
1202 29-04-2020 04:05:00 12.1 C 89 % 10.34 C
1203 29-04-2020 04:10:00 12.1 C 89 % 10.34 C
1204 29-04-2020 04:15:00 12.1 C 89 % 10.34 C
1205 29-04-2020 04:20:00 12.1 C 89 % 10.34 C
1206 29-04-2020 04:25:00 12 C 89 % 10.25 C
1207 29-04-2020 04:30:00 12 C 89 % 10.25 C
1208 29-04-2020 04:35:00 12 C 89 % 10.25 C
1209 29-04-2020 04:40:00 11.9 C 89 % 10.15 C
1210 29-04-2020 04:45:00 11.9 C 89 % 10.15 C
1211 29-04-2020 04:50:00 11.9 C 89 % 10.15 C
1212 29-04-2020 04:55:00 11.9 C 89 % 10.15 C
1213 29-04-2020 05:00:00 11.8 C 89 % 10.05 C
1214 29-04-2020 05:05:00 11.8 C 89 % 10.05 C
1215 29-04-2020 05:10:00 11.8 C 89 % 10.05 C
1216 29-04-2020 05:15:00 11.8 C 89 % 10.05 C
1217 29-04-2020 05:20:00 11.8 C 89 % 10.05 C
1218 29-04-2020 05:25:00 11.8 C 89 % 10.05 C
1219 29-04-2020 05:30:00 11.8 C 89 % 10.05 C
1220 29-04-2020 05:35:00 11.8 C 89 % 10.05 C
1221 29-04-2020 05:40:00 11.8 C 89 % 10.05 C
1222 29-04-2020 05:45:00 11.8 C 89 % 10.05 C
1223 29-04-2020 05:50:00 11.8 C 90 % 10.21 C
1224 29-04-2020 05:55:00 11.8 C 90 % 10.21 C
1225 29-04-2020 06:00:00 11.7 C 90 % 10.12 C
Sensor: Nr:Datum:Temp:Feuchte:Taupunkt:
Aussen-T/F 1226 29-04-2020 06:05:00 11.7 C 90 % 10.12 C
1227 29-04-2020 06:10:00 11.7 C 90 % 10.12 C
1228 29-04-2020 06:15:00 11.7 C 90 % 10.12 C
1229 29-04-2020 06:20:00 11.7 C 90 % 10.12 C
1230 29-04-2020 06:25:00 11.7 C 89 % 9.95 C
1231 29-04-2020 06:30:00 11.7 C 89 % 9.95 C
1232 29-04-2020 06:35:00 11.7 C 89 % 9.95 C
1233 29-04-2020 06:40:00 11.6 C 89 % 9.85 C
1234 29-04-2020 06:45:00 11.6 C 89 % 9.85 C
1235 29-04-2020 06:50:00 11.5 C 90 % 9.92 C
1236 29-04-2020 06:55:00 11.6 C 90 % 10.02 C
1237 29-04-2020 07:00:00 11.6 C 90 % 10.02 C
1238 29-04-2020 07:05:00 11.7 C 90 % 10.12 C
1239 29-04-2020 07:10:00 11.7 C 90 % 10.12 C
1240 29-04-2020 07:15:00 11.8 C 90 % 10.21 C
1241 29-04-2020 07:20:00 11.9 C 90 % 10.31 C
1242 29-04-2020 07:25:00 11.9 C 90 % 10.31 C
1243 29-04-2020 07:30:00 12.1 C 89 % 10.34 C
1244 29-04-2020 07:35:00 12.1 C 89 % 10.34 C
1245 29-04-2020 07:40:00 12.3 C 87 % 10.2 C
1246 29-04-2020 07:45:00 12.3 C 87 % 10.2 C
1247 29-04-2020 07:50:00 12.4 C 87 % 10.3 C
1248 29-04-2020 07:55:00 12.6 C 86 % 10.32 C
1249 29-04-2020 08:00:00 12.7 C 86 % 10.42 C
1250 29-04-2020 08:05:00 12.7 C 86 % 10.42 C
Sensor: Nr:Datum:Temp:Feuchte:Taupunkt:
Aussen-T/F 1251 29-04-2020 08:10:00 12.8 C 85 % 10.34 C
1252 29-04-2020 08:15:00 12.9 C 84 % 10.26 C
1253 29-04-2020 08:20:00 12.9 C 84 % 10.26 C
1254 29-04-2020 08:25:00 12.9 C 84 % 10.26 C
1255 29-04-2020 08:30:00 12.9 C 84 % 10.26 C
1256 29-04-2020 08:35:00 12.8 C 84 % 10.17 C
1257 29-04-2020 08:40:00 12.8 C 84 % 10.17 C
1258 29-04-2020 08:45:00 12.8 C 84 % 10.17 C
1259 29-04-2020 08:50:00 12.8 C 84 % 10.17 C
1260 29-04-2020 08:55:00 12.8 C 84 % 10.17 C
1261 29-04-2020 09:00:00 13 C 84 % 10.36 C
1262 29-04-2020 09:05:00 13.1 C 82 % 10.1 C
1263 29-04-2020 09:10:00 13.2 C 82 % 10.2 C
1264 29-04-2020 09:15:00 13.2 C 81 % 10.01 C
1265 29-04-2020 09:20:00 13.2 C 81 % 10.01 C
1266 29-04-2020 09:25:00 13.3 C 80 % 9.93 C
1267 29-04-2020 09:30:00 13.4 C 80 % 10.02 C
1268 29-04-2020 09:35:00 13.5 C 80 % 10.12 C
1269 29-04-2020 09:40:00 13.6 C 78 % 9.84 C
1270 29-04-2020 09:45:00 13.7 C 78 % 9.94 C
1271 29-04-2020 09:50:00 13.8 C 76 % 9.65 C
1272 29-04-2020 09:55:00 13.9 C 75 % 9.55 C
1273 29-04-2020 10:00:00 14.1 C 75 % 9.74 C
1274 29-04-2020 10:05:00 14.2 C 74 % 9.64 C
1275 29-04-2020 10:10:00 14.3 C 73 % 9.53 C
Sensor: Nr:Datum:Temp:Feuchte:Taupunkt:
Aussen-T/F 1276 29-04-2020 10:15:00 14.4 C 75 % 10.03 C
1277 29-04-2020 10:20:00 14.7 C 73 % 9.92 C
1278 29-04-2020 10:25:00 14.8 C 72 % 9.81 C
1279 29-04-2020 10:30:00 14.8 C 72 % 9.81 C
1280 29-04-2020 10:35:00 14.8 C 71 % 9.6 C
1281 29-04-2020 10:40:00 14.9 C 72 % 9.9 C
1282 29-04-2020 10:45:00 14.8 C 71 % 9.6 C
1283 29-04-2020 10:50:00 14.9 C 72 % 9.9 C
1284 29-04-2020 10:55:00 15.1 C 71 % 9.89 C
1285 29-04-2020 11:00:00 15.2 C 71 % 9.98 C
1286 29-04-2020 11:05:00 15.4 C 71 % 10.17 C
1287 29-04-2020 11:10:00 15.4 C 68 % 9.53 C
1288 29-04-2020 11:15:00 15.5 C 70 % 10.06 C
1289 29-04-2020 11:20:00 15.7 C 68 % 9.82 C
1290 29-04-2020 11:25:00 15.7 C 68 % 9.82 C
1291 29-04-2020 11:30:00 15.7 C 67 % 9.6 C
1292 29-04-2020 11:35:00 15.9 C 67 % 9.79 C
1293 29-04-2020 11:40:00 16.1 C 66 % 9.75 C
1294 29-04-2020 11:45:00 16.1 C 65 % 9.53 C
1295 29-04-2020 11:50:00 16.2 C 65 % 9.62 C
1296 29-04-2020 11:55:00 16.2 C 64 % 9.39 C
1297 29-04-2020 12:00:00 16.3 C 65 % 9.71 C
1298 29-04-2020 12:05:00 16.5 C 63 % 9.44 C
1299 29-04-2020 12:10:00 16.4 C 63 % 9.35 C
1300 29-04-2020 12:15:00 16.1 C 63 % 9.06 C
Sensor: Nr:Datum:Temp:Feuchte:Taupunkt:
Aussen-T/F 1301 29-04-2020 12:20:00 15.9 C 63 % 8.87 C
1302 29-04-2020 12:25:00 15.7 C 65 % 9.15 C
1303 29-04-2020 12:30:00 15.7 C 66 % 9.37 C
1304 29-04-2020 12:35:00 15.7 C 65 % 9.15 C
1305 29-04-2020 12:40:00 15.8 C 67 % 9.69 C
1306 29-04-2020 12:45:00 15.9 C 66 % 9.56 C
1307 29-04-2020 12:50:00 16 C 65 % 9.43 C
1308 29-04-2020 12:55:00 16 C 64 % 9.2 C
1309 29-04-2020 13:00:00 16.1 C 64 % 9.29 C
1310 29-04-2020 13:05:00 16.2 C 65 % 9.62 C
1311 29-04-2020 13:10:00 16.3 C 65 % 9.71 C
1312 29-04-2020 13:15:00 16.3 C 64 % 9.48 C
1313 29-04-2020 13:20:00 16.1 C 65 % 9.53 C
1314 29-04-2020 13:25:00 16 C 67 % 9.88 C
1315 29-04-2020 13:30:00 16.1 C 66 % 9.75 C
1316 29-04-2020 13:35:00 16.3 C 65 % 9.71 C
1317 29-04-2020 13:40:00 16.3 C 65 % 9.71 C
1318 29-04-2020 13:45:00 16.3 C 65 % 9.71 C
1319 29-04-2020 13:50:00 16.4 C 65 % 9.81 C
1320 29-04-2020 13:55:00 16.3 C 65 % 9.71 C
1321 29-04-2020 14:00:00 16.1 C 67 % 9.98 C
1322 29-04-2020 14:05:00 16.1 C 67 % 9.98 C
1323 29-04-2020 14:10:00 16.1 C 68 % 10.2 C
1324 29-04-2020 14:15:00 15.9 C 67 % 9.79 C
1325 29-04-2020 14:20:00 15.7 C 68 % 9.82 C
Sensor: Nr:Datum:Temp:Feuchte:Taupunkt:
Aussen-T/F 1326 29-04-2020 14:25:00 15.6 C 68 % 9.72 C
1327 29-04-2020 14:30:00 15.7 C 68 % 9.82 C
1328 29-04-2020 14:35:00 15.7 C 69 % 10.03 C
1329 29-04-2020 14:40:00 15.8 C 69 % 10.13 C
1330 29-04-2020 14:45:00 15.9 C 69 % 10.23 C
1331 29-04-2020 14:50:00 16.3 C 68 % 10.39 C
1332 29-04-2020 14:55:00 16.7 C 67 % 10.55 C
1333 29-04-2020 15:00:00 16.8 C 67 % 10.64 C
1334 29-04-2020 15:05:00 17.1 C 66 % 10.7 C
1335 29-04-2020 15:10:00 17.2 C 65 % 10.57 C
1336 29-04-2020 15:15:00 17.3 C 63 % 10.2 C
1337 29-04-2020 15:20:00 17.4 C 62 % 10.05 C
1338 29-04-2020 15:25:00 17.4 C 64 % 10.53 C
1339 29-04-2020 15:30:00 17.8 C 62 % 10.43 C
1340 29-04-2020 15:35:00 17.7 C 62 % 10.33 C
1341 29-04-2020 15:40:00 17.4 C 63 % 10.29 C
1342 29-04-2020 15:45:00 17.3 C 63 % 10.2 C
1343 29-04-2020 15:50:00 17.7 C 63 % 10.57 C
1344 29-04-2020 15:55:00 17.7 C 62 % 10.33 C
1345 29-04-2020 16:00:00 17.3 C 62 % 9.96 C
1346 29-04-2020 16:05:00 17.1 C 64 % 10.24 C
1347 29-04-2020 16:10:00 16.9 C 66 % 10.51 C
1348 29-04-2020 16:15:00 16.9 C 66 % 10.51 C
1349 29-04-2020 16:20:00 17.1 C 65 % 10.47 C
1350 29-04-2020 16:25:00 17.1 C 64 % 10.24 C
Sensor: Nr:Datum:Temp:Feuchte:Taupunkt:
Aussen-T/F 1351 29-04-2020 16:30:00 17 C 63 % 9.91 C
1352 29-04-2020 16:35:00 16.8 C 63 % 9.72 C
1353 29-04-2020 16:40:00 17 C 63 % 9.91 C
1354 29-04-2020 16:45:00 17.3 C 63 % 10.2 C
1355 29-04-2020 16:50:00 17.6 C 61 % 10 C
1356 29-04-2020 16:55:00 17.6 C 63 % 10.48 C
1357 29-04-2020 17:00:00 17.2 C 63 % 10.1 C
1358 29-04-2020 17:05:00 16.9 C 63 % 9.82 C
1359 29-04-2020 17:10:00 16.7 C 65 % 10.09 C
1360 29-04-2020 17:15:00 16.6 C 69 % 10.89 C
1361 29-04-2020 17:20:00 16.9 C 72 % 11.82 C
1362 29-04-2020 17:25:00 17.5 C 67 % 11.31 C
1363 29-04-2020 17:30:00 18.1 C 65 % 11.42 C
1364 29-04-2020 17:35:00 18.4 C 63 % 11.23 C
1365 29-04-2020 17:40:00 18.8 C 61 % 11.13 C
1366 29-04-2020 17:45:00 19 C 57 % 10.3 C
1367 29-04-2020 17:50:00 19.2 C 59 % 11 C
1368 29-04-2020 17:55:00 19.2 C 57 % 10.48 C
1369 29-04-2020 18:00:00 18.9 C 57 % 10.2 C
1370 29-04-2020 18:05:00 19.1 C 57 % 10.39 C
1371 29-04-2020 18:10:00 18.9 C 56 % 9.94 C
1372 29-04-2020 18:15:00 18.4 C 57 % 9.74 C
1373 29-04-2020 18:20:00 17.7 C 60 % 9.84 C
1374 29-04-2020 18:25:00 17.3 C 62 % 9.96 C
1375 29-04-2020 18:30:00 17.1 C 62 % 9.77 C
Sensor: Nr:Datum:Temp:Feuchte:Taupunkt:
Aussen-T/F 1376 29-04-2020 18:35:00 17.1 C 64 % 10.24 C
1377 29-04-2020 18:40:00 17.5 C 63 % 10.38 C
1378 29-04-2020 18:45:00 17.7 C 62 % 10.33 C
1379 29-04-2020 18:50:00 17.4 C 63 % 10.29 C
1380 29-04-2020 18:55:00 17.2 C 64 % 10.34 C
1381 29-04-2020 19:00:00 17.1 C 64 % 10.24 C
1382 29-04-2020 19:05:00 17 C 65 % 10.38 C
1383 29-04-2020 19:10:00 17 C 66 % 10.61 C
1384 29-04-2020 19:15:00 17.3 C 65 % 10.66 C
1385 29-04-2020 19:20:00 17.7 C 63 % 10.57 C
1386 29-04-2020 19:25:00 17.8 C 62 % 10.43 C
1387 29-04-2020 19:30:00 17.8 C 62 % 10.43 C
1388 29-04-2020 19:35:00 17.7 C 62 % 10.33 C
1389 29-04-2020 19:40:00 17.5 C 62 % 10.15 C
1390 29-04-2020 19:45:00 17.3 C 64 % 10.43 C
1391 29-04-2020 19:50:00 17.1 C 62 % 9.77 C
1392 29-04-2020 19:55:00 16.9 C 65 % 10.28 C
1393 29-04-2020 20:00:00 16.6 C 65 % 10 C
1394 29-04-2020 20:05:00 16.3 C 66 % 9.94 C
1395 29-04-2020 20:10:00 16 C 66 % 9.66 C
1396 29-04-2020 20:15:00 15.7 C 68 % 9.82 C
1397 29-04-2020 20:20:00 15.5 C 70 % 10.06 C
1398 29-04-2020 20:25:00 15.3 C 71 % 10.08 C
1399 29-04-2020 20:30:00 15.1 C 71 % 9.89 C
1400 29-04-2020 20:35:00 14.9 C 72 % 9.9 C
Sensor: Nr:Datum:Temp:Feuchte:Taupunkt:
Aussen-T/F 1401 29-04-2020 20:40:00 14.7 C 72 % 9.71 C
1402 29-04-2020 20:45:00 14.6 C 72 % 9.61 C
1403 29-04-2020 20:50:00 14.5 C 72 % 9.52 C
1404 29-04-2020 20:55:00 14.4 C 72 % 9.42 C
1405 29-04-2020 21:00:00 14.3 C 73 % 9.53 C
1406 29-04-2020 21:05:00 14.3 C 73 % 9.53 C
1407 29-04-2020 21:10:00 14.1 C 74 % 9.54 C
1408 29-04-2020 21:15:00 13.9 C 76 % 9.74 C
1409 29-04-2020 21:20:00 13.7 C 77 % 9.75 C
1410 29-04-2020 21:25:00 13.5 C 78 % 9.74 C
1411 29-04-2020 21:30:00 13.3 C 78 % 9.55 C
1412 29-04-2020 21:35:00 13.3 C 78 % 9.55 C
1413 29-04-2020 21:40:00 13.2 C 79 % 9.64 C
1414 29-04-2020 21:45:00 13.2 C 79 % 9.64 C
1415 29-04-2020 21:50:00 13.2 C 79 % 9.64 C
1416 29-04-2020 21:55:00 13.2 C 79 % 9.64 C
1417 29-04-2020 22:00:00 13.2 C 80 % 9.83 C
1418 29-04-2020 22:05:00 13.1 C 80 % 9.73 C
1419 29-04-2020 22:10:00 13.1 C 80 % 9.73 C
1420 29-04-2020 22:15:00 13.2 C 81 % 10.01 C
1421 29-04-2020 22:20:00 13.2 C 79 % 9.64 C
1422 29-04-2020 22:25:00 13.3 C 80 % 9.93 C
1423 29-04-2020 22:30:00 13.3 C 79 % 9.74 C
1424 29-04-2020 22:35:00 13.4 C 79 % 9.84 C
1425 29-04-2020 22:40:00 13.4 C 79 % 9.84 C
Sensor: Nr:Datum:Temp:Feuchte:Taupunkt:
Aussen-T/F 1426 29-04-2020 22:45:00 13.4 C 79 % 9.84 C
1427 29-04-2020 22:50:00 13.4 C 80 % 10.02 C
1428 29-04-2020 22:55:00 13.3 C 79 % 9.74 C
1429 29-04-2020 23:00:00 13.3 C 80 % 9.93 C
1430 29-04-2020 23:05:00 13.2 C 81 % 10.01 C
1431 29-04-2020 23:10:00 13.2 C 81 % 10.01 C
1432 29-04-2020 23:15:00 13.1 C 82 % 10.1 C
1433 29-04-2020 23:20:00 13 C 82 % 10 C
1434 29-04-2020 23:25:00 13 C 82 % 10 C
1435 29-04-2020 23:30:00 13.1 C 83 % 10.28 C
1436 29-04-2020 23:35:00 13.1 C 82 % 10.1 C
1437 29-04-2020 23:40:00 13.2 C 82 % 10.2 C
1438 29-04-2020 23:45:00 13.2 C 82 % 10.2 C
1439 29-04-2020 23:50:00 13.2 C 82 % 10.2 C
1440 29-04-2020 23:55:00 13.2 C 82 % 10.2 C
1441 30-04-2020 00:00:00 13.2 C 82 % 10.2 C
1442 30-04-2020 00:05:00 13.2 C 81 % 10.01 C
1443 30-04-2020 00:10:00 13.2 C 81 % 10.01 C
1444 30-04-2020 00:15:00 13.2 C 81 % 10.01 C
1445 30-04-2020 00:20:00 13.2 C 82 % 10.2 C
1446 30-04-2020 00:25:00 13.2 C 81 % 10.01 C
1447 30-04-2020 00:30:00 13.2 C 81 % 10.01 C
1448 30-04-2020 00:35:00 13.2 C 81 % 10.01 C
1449 30-04-2020 00:40:00 13.3 C 81 % 10.11 C
1450 30-04-2020 00:45:00 13.2 C 80 % 9.83 C
Sensor: Nr:Datum:Temp:Feuchte:Taupunkt:
Aussen-T/F 1451 30-04-2020 00:50:00 13.3 C 81 % 10.11 C
1452 30-04-2020 00:55:00 13.3 C 81 % 10.11 C
1453 30-04-2020 01:00:00 13.3 C 80 % 9.93 C
1454 30-04-2020 01:05:00 13.3 C 80 % 9.93 C
1455 30-04-2020 01:10:00 13.3 C 79 % 9.74 C
1456 30-04-2020 01:15:00 13.4 C 79 % 9.84 C
1457 30-04-2020 01:20:00 13.4 C 79 % 9.84 C
1458 30-04-2020 01:25:00 13.4 C 79 % 9.84 C
1459 30-04-2020 01:30:00 13.4 C 79 % 9.84 C
1460 30-04-2020 01:35:00 13.4 C 79 % 9.84 C
1461 30-04-2020 01:40:00 13.5 C 78 % 9.74 C
1462 30-04-2020 01:45:00 13.6 C 78 % 9.84 C
1463 30-04-2020 01:50:00 13.6 C 80 % 10.22 C
1464 30-04-2020 01:55:00 13.6 C 80 % 10.22 C
1465 30-04-2020 02:00:00 13.4 C 82 % 10.39 C
1466 30-04-2020 02:05:00 13.3 C 82 % 10.3 C
1467 30-04-2020 02:10:00 13.2 C 84 % 10.56 C
1468 30-04-2020 02:15:00 13 C 84 % 10.36 C
1469 30-04-2020 02:20:00 12.8 C 84 % 10.17 C
1470 30-04-2020 02:25:00 12.7 C 85 % 10.25 C
1471 30-04-2020 02:30:00 12.6 C 85 % 10.15 C
1472 30-04-2020 02:35:00 12.4 C 84 % 9.78 C
1473 30-04-2020 02:40:00 12.4 C 84 % 9.78 C
1474 30-04-2020 02:45:00 12.3 C 84 % 9.68 C
1475 30-04-2020 02:50:00 12.2 C 84 % 9.58 C
Sensor: Nr:Datum:Temp:Feuchte:Taupunkt:
Aussen-T/F 1476 30-04-2020 02:55:00 12.2 C 83 % 9.4 C
1477 30-04-2020 03:00:00 12.2 C 83 % 9.4 C
1478 30-04-2020 03:05:00 12.2 C 84 % 9.58 C
1479 30-04-2020 03:10:00 12.1 C 84 % 9.48 C
1480 30-04-2020 03:15:00 12.2 C 84 % 9.58 C
1481 30-04-2020 03:20:00 12.1 C 84 % 9.48 C
1482 30-04-2020 03:25:00 12.1 C 84 % 9.48 C
1483 30-04-2020 03:30:00 12.1 C 85 % 9.66 C
1484 30-04-2020 03:35:00 11.9 C 86 % 9.64 C
1485 30-04-2020 03:40:00 11.9 C 86 % 9.64 C
1486 30-04-2020 03:45:00 11.8 C 87 % 9.71 C
1487 30-04-2020 03:50:00 11.8 C 87 % 9.71 C
1488 30-04-2020 03:55:00 11.7 C 87 % 9.61 C
1489 30-04-2020 04:00:00 11.7 C 88 % 9.78 C
1490 30-04-2020 04:05:00 11.7 C 88 % 9.78 C
1491 30-04-2020 04:10:00 11.7 C 89 % 9.95 C
1492 30-04-2020 04:15:00 11.6 C 89 % 9.85 C
1493 30-04-2020 04:20:00 11.6 C 90 % 10.02 C
1494 30-04-2020 04:25:00 11.5 C 90 % 9.92 C
1495 30-04-2020 04:30:00 11.4 C 91 % 9.98 C
1496 30-04-2020 04:35:00 11.4 C 91 % 9.98 C
1497 30-04-2020 04:40:00 11.4 C 91 % 9.98 C
1498 30-04-2020 04:45:00 11.3 C 92 % 10.05 C
1499 30-04-2020 04:50:00 11.3 C 92 % 10.05 C
1500 30-04-2020 04:55:00 11.3 C 92 % 10.05 C
Sensor: Nr:Datum:Temp:Feuchte:Taupunkt:
Aussen-T/F 1501 30-04-2020 05:00:00 11.3 C 92 % 10.05 C
1502 30-04-2020 05:05:00 11.3 C 93 % 10.21 C
1503 30-04-2020 05:10:00 11.3 C 93 % 10.21 C
1504 30-04-2020 05:15:00 11.3 C 93 % 10.21 C
1505 30-04-2020 05:20:00 11.3 C 93 % 10.21 C
1506 30-04-2020 05:25:00 11.3 C 93 % 10.21 C
1507 30-04-2020 05:30:00 11.3 C 94 % 10.37 C
1508 30-04-2020 05:35:00 11.3 C 94 % 10.37 C
1509 30-04-2020 05:40:00 11.3 C 94 % 10.37 C
1510 30-04-2020 05:45:00 11.3 C 94 % 10.37 C
1511 30-04-2020 05:50:00 11.3 C 94 % 10.37 C
1512 30-04-2020 05:55:00 11.2 C 94 % 10.27 C
1513 30-04-2020 06:00:00 11.2 C 94 % 10.27 C
1514 30-04-2020 06:05:00 11.2 C 94 % 10.27 C
1515 30-04-2020 06:10:00 11.2 C 94 % 10.27 C
1516 30-04-2020 06:15:00 11.2 C 94 % 10.27 C
1517 30-04-2020 06:20:00 11.2 C 94 % 10.27 C
1518 30-04-2020 06:25:00 11.2 C 94 % 10.27 C
1519 30-04-2020 06:30:00 11.2 C 94 % 10.27 C
1520 30-04-2020 06:35:00 11.2 C 94 % 10.27 C
1521 30-04-2020 06:40:00 11.2 C 94 % 10.27 C
1522 30-04-2020 06:45:00 11.2 C 94 % 10.27 C
1523 30-04-2020 06:50:00 11.2 C 95 % 10.43 C
1524 30-04-2020 06:55:00 11.2 C 95 % 10.43 C
1525 30-04-2020 07:00:00 11.2 C 95 % 10.43 C
Sensor: Nr:Datum:Temp:Feuchte:Taupunkt:
Aussen-T/F 1526 30-04-2020 07:05:00 11.1 C 94 % 10.17 C
1527 30-04-2020 07:10:00 10.9 C 94 % 9.97 C
1528 30-04-2020 07:15:00 10.8 C 94 % 9.87 C
1529 30-04-2020 07:20:00 10.7 C 94 % 9.77 C
1530 30-04-2020 07:25:00 10.6 C 94 % 9.68 C
1531 30-04-2020 07:30:00 10.6 C 94 % 9.68 C
1532 30-04-2020 07:35:00 10.6 C 94 % 9.68 C
1533 30-04-2020 07:40:00 10.6 C 94 % 9.68 C
1534 30-04-2020 07:45:00 10.6 C 94 % 9.68 C
1535 30-04-2020 07:50:00 10.5 C 94 % 9.58 C
1536 30-04-2020 07:55:00 10.4 C 94 % 9.48 C
1537 30-04-2020 08:00:00 10.4 C 94 % 9.48 C
1538 30-04-2020 08:05:00 10.3 C 94 % 9.38 C
1539 30-04-2020 08:10:00 10.3 C 94 % 9.38 C
1540 30-04-2020 08:15:00 10.2 C 94 % 9.28 C
1541 30-04-2020 08:20:00 10.2 C 94 % 9.28 C
1542 30-04-2020 08:25:00 10.2 C 94 % 9.28 C
1543 30-04-2020 08:30:00 10.4 C 94 % 9.48 C
1544 30-04-2020 08:35:00 10.6 C 94 % 9.68 C
1545 30-04-2020 08:40:00 10.7 C 94 % 9.77 C
1546 30-04-2020 08:45:00 10.8 C 94 % 9.87 C
1547 30-04-2020 08:50:00 10.8 C 93 % 9.71 C
1548 30-04-2020 08:55:00 10.8 C 93 % 9.71 C
1549 30-04-2020 09:00:00 10.9 C 93 % 9.81 C
1550 30-04-2020 09:05:00 11 C 93 % 9.91 C
Sensor: Nr:Datum:Temp:Feuchte:Taupunkt:
Aussen-T/F 1551 30-04-2020 09:10:00 11.2 C 92 % 9.95 C
1552 30-04-2020 09:15:00 11.3 C 91 % 9.89 C
1553 30-04-2020 09:20:00 11.6 C 90 % 10.02 C
1554 30-04-2020 09:25:00 11.7 C 91 % 10.28 C
1555 30-04-2020 09:30:00 11.8 C 91 % 10.38 C
1556 30-04-2020 09:35:00 11.9 C 90 % 10.31 C
1557 30-04-2020 09:40:00 12 C 90 % 10.41 C
1558 30-04-2020 09:45:00 12.1 C 89 % 10.34 C
1559 30-04-2020 09:50:00 12.2 C 88 % 10.27 C
1560 30-04-2020 09:55:00 12.2 C 88 % 10.27 C
1561 30-04-2020 10:00:00 12.3 C 88 % 10.37 C
1562 30-04-2020 10:05:00 12.6 C 88 % 10.67 C
1563 30-04-2020 10:10:00 12.7 C 86 % 10.42 C
1564 30-04-2020 10:15:00 12.9 C 86 % 10.62 C
1565 30-04-2020 10:20:00 13.2 C 84 % 10.56 C
1566 30-04-2020 10:25:00 13.3 C 81 % 10.11 C
1567 30-04-2020 10:30:00 13.3 C 81 % 10.11 C
1568 30-04-2020 10:35:00 13.3 C 81 % 10.11 C
1569 30-04-2020 10:40:00 13.4 C 79 % 9.84 C
1570 30-04-2020 10:45:00 13.6 C 77 % 9.65 C
1571 30-04-2020 10:50:00 13.7 C 77 % 9.75 C
1572 30-04-2020 10:55:00 13.7 C 78 % 9.94 C
1573 30-04-2020 11:00:00 13.7 C 75 % 9.35 C
1574 30-04-2020 11:05:00 13.8 C 77 % 9.84 C
1575 30-04-2020 11:10:00 13.8 C 76 % 9.65 C
Sensor: Nr:Datum:Temp:Feuchte:Taupunkt:
Aussen-T/F 1576 30-04-2020 11:15:00 13.8 C 76 % 9.65 C
1577 30-04-2020 11:20:00 13.9 C 77 % 9.94 C
1578 30-04-2020 11:25:00 13.9 C 79 % 10.32 C
1579 30-04-2020 11:30:00 14 C 78 % 10.23 C
1580 30-04-2020 11:35:00 14.1 C 78 % 10.33 C
1581 30-04-2020 11:40:00 13.9 C 77 % 9.94 C
1582 30-04-2020 11:45:00 13.8 C 79 % 10.22 C
1583 30-04-2020 11:50:00 13.8 C 79 % 10.22 C
1584 30-04-2020 11:55:00 13.8 C 77 % 9.84 C
1585 30-04-2020 12:00:00 13.9 C 76 % 9.74 C
1586 30-04-2020 12:05:00 13.9 C 74 % 9.35 C
1587 30-04-2020 12:10:00 13.9 C 74 % 9.35 C
1588 30-04-2020 12:15:00 13.9 C 73 % 9.15 C
1589 30-04-2020 12:20:00 13.9 C 73 % 9.15 C
1590 30-04-2020 12:25:00 14 C 71 % 8.83 C
1591 30-04-2020 12:30:00 14 C 74 % 9.44 C
1592 30-04-2020 12:35:00 14.1 C 73 % 9.34 C
1593 30-04-2020 12:40:00 13.9 C 70 % 8.53 C
1594 30-04-2020 12:45:00 13.8 C 70 % 8.43 C
1595 30-04-2020 12:50:00 13.9 C 70 % 8.53 C
1596 30-04-2020 12:55:00 13.9 C 67 % 7.88 C
1597 30-04-2020 13:00:00 13.8 C 69 % 8.22 C
1598 30-04-2020 13:05:00 13.8 C 68 % 8 C
1599 30-04-2020 13:10:00 13.8 C 69 % 8.22 C
1600 30-04-2020 13:15:00 13.9 C 68 % 8.1 C
Sensor: Nr:Datum:Temp:Feuchte:Taupunkt:
Aussen-T/F 1601 30-04-2020 13:20:00 14 C 68 % 8.19 C
1602 30-04-2020 13:25:00 13.9 C 66 % 7.66 C
1603 30-04-2020 13:30:00 13.9 C 67 % 7.88 C
1604 30-04-2020 13:35:00 14 C 67 % 7.98 C
1605 30-04-2020 13:40:00 14.1 C 65 % 7.63 C
1606 30-04-2020 13:45:00 14.3 C 66 % 8.04 C
1607 30-04-2020 13:50:00 14.6 C 66 % 8.33 C
1608 30-04-2020 13:55:00 14.8 C 63 % 7.83 C
1609 30-04-2020 14:00:00 14.9 C 63 % 7.93 C
1610 30-04-2020 14:05:00 15.1 C 64 % 8.35 C
1611 30-04-2020 14:10:00 15.5 C 62 % 8.26 C
1612 30-04-2020 14:15:00 15.6 C 59 % 7.62 C
1613 30-04-2020 14:20:00 15.4 C 60 % 7.68 C
1614 30-04-2020 14:25:00 15.3 C 62 % 8.07 C
1615 30-04-2020 14:30:00 15.4 C 61 % 7.93 C
1616 30-04-2020 14:35:00 15.8 C 61 % 8.3 C
1617 30-04-2020 14:40:00 15.9 C 59 % 7.91 C
1618 30-04-2020 14:45:00 15.8 C 59 % 7.81 C
1619 30-04-2020 14:50:00 15.8 C 60 % 8.06 C
1620 30-04-2020 14:55:00 15.8 C 60 % 8.06 C
1621 30-04-2020 15:00:00 15.9 C 62 % 8.64 C
1622 30-04-2020 15:05:00 16.2 C 58 % 7.94 C
1623 30-04-2020 15:10:00 16.3 C 59 % 8.28 C
1624 30-04-2020 15:15:00 16.3 C 58 % 8.03 C
1625 30-04-2020 15:20:00 16.2 C 57 % 7.68 C
Sensor: Nr:Datum:Temp:Feuchte:Taupunkt:
Aussen-T/F 1626 30-04-2020 15:25:00 16.1 C 58 % 7.84 C
1627 30-04-2020 15:30:00 16.1 C 58 % 7.84 C
1628 30-04-2020 15:35:00 15.8 C 58 % 7.56 C
1629 30-04-2020 15:40:00 15.6 C 58 % 7.37 C
1630 30-04-2020 15:45:00 15.4 C 59 % 7.44 C
1631 30-04-2020 15:50:00 15.4 C 61 % 7.93 C
1632 30-04-2020 15:55:00 15.3 C 62 % 8.07 C
1633 30-04-2020 16:00:00 15.4 C 62 % 8.16 C
1634 30-04-2020 16:05:00 15.4 C 61 % 7.93 C
1635 30-04-2020 16:10:00 15.5 C 60 % 7.78 C
1636 30-04-2020 16:15:00 15.6 C 62 % 8.35 C
1637 30-04-2020 16:20:00 15.7 C 62 % 8.45 C
1638 30-04-2020 16:25:00 15.7 C 62 % 8.45 C
1639 30-04-2020 16:30:00 15.7 C 63 % 8.68 C
1640 30-04-2020 16:35:00 15.7 C 63 % 8.68 C
1641 30-04-2020 16:40:00 15.7 C 62 % 8.45 C
1642 30-04-2020 16:45:00 15.7 C 62 % 8.45 C
1643 30-04-2020 16:50:00 15.7 C 61 % 8.21 C
1644 30-04-2020 16:55:00 15.6 C 63 % 8.59 C
1645 30-04-2020 17:00:00 15.4 C 64 % 8.63 C
1646 30-04-2020 17:05:00 15.3 C 65 % 8.77 C
1647 30-04-2020 17:10:00 15 C 71 % 9.79 C
1648 30-04-2020 17:15:00 14.5 C 73 % 9.72 C
1649 30-04-2020 17:20:00 14.1 C 77 % 10.13 C
1650 30-04-2020 17:25:00 13.6 C 79 % 10.03 C
Sensor: Nr:Datum:Temp:Feuchte:Taupunkt:
Aussen-T/F 1651 30-04-2020 17:30:00 13.1 C 81 % 9.92 C
1652 30-04-2020 17:35:00 12.6 C 83 % 9.79 C
1653 30-04-2020 17:40:00 12.1 C 85 % 9.66 C
1654 30-04-2020 17:45:00 11.8 C 86 % 9.54 C
1655 30-04-2020 17:50:00 11.6 C 88 % 9.68 C
1656 30-04-2020 17:55:00 11.4 C 88 % 9.49 C
1657 30-04-2020 18:00:00 11.3 C 89 % 9.55 C
1658 30-04-2020 18:05:00 11.2 C 90 % 9.62 C
1659 30-04-2020 18:10:00 11.2 C 90 % 9.62 C
1660 30-04-2020 18:15:00 11.1 C 90 % 9.52 C
1661 30-04-2020 18:20:00 11 C 91 % 9.59 C
1662 30-04-2020 18:25:00 10.9 C 90 % 9.33 C
1663 30-04-2020 18:30:00 10.9 C 91 % 9.49 C
1664 30-04-2020 18:35:00 10.8 C 91 % 9.39 C
1665 30-04-2020 18:40:00 10.7 C 91 % 9.29 C
1666 30-04-2020 18:45:00 10.6 C 91 % 9.19 C
1667 30-04-2020 18:50:00 10.5 C 91 % 9.09 C
1668 30-04-2020 18:55:00 10.4 C 91 % 9 C
1669 30-04-2020 19:00:00 10.3 C 91 % 8.9 C
1670 30-04-2020 19:05:00 10.2 C 91 % 8.8 C
1671 30-04-2020 19:10:00 10 C 91 % 8.6 C
1672 30-04-2020 19:15:00 9.9 C 91 % 8.5 C
1673 30-04-2020 19:20:00 10.2 C 93 % 9.12 C
1674 30-04-2020 19:25:00 10.6 C 93 % 9.52 C
1675 30-04-2020 19:30:00 10.8 C 91 % 9.39 C
Sensor: Nr:Datum:Temp:Feuchte:Taupunkt:
Aussen-T/F 1676 30-04-2020 19:35:00 11.1 C 92 % 9.85 C
1677 30-04-2020 19:40:00 11.1 C 91 % 9.69 C
1678 30-04-2020 19:45:00 11.2 C 91 % 9.79 C
1679 30-04-2020 19:50:00 11.2 C 91 % 9.79 C
1680 30-04-2020 19:55:00 11.3 C 91 % 9.89 C
1681 30-04-2020 20:00:00 11.2 C 91 % 9.79 C
1682 30-04-2020 20:05:00 11.1 C 91 % 9.69 C
1683 30-04-2020 20:10:00 10.9 C 91 % 9.49 C
1684 30-04-2020 20:15:00 10.8 C 91 % 9.39 C
1685 30-04-2020 20:20:00 10.7 C 91 % 9.29 C
1686 30-04-2020 20:25:00 10.5 C 91 % 9.09 C
1687 30-04-2020 20:30:00 10.3 C 91 % 8.9 C
1688 30-04-2020 20:35:00 10.2 C 91 % 8.8 C
1689 30-04-2020 20:40:00 9.9 C 91 % 8.5 C
1690 30-04-2020 20:45:00 9.8 C 91 % 8.4 C
1691 30-04-2020 20:50:00 9.6 C 91 % 8.21 C
1692 30-04-2020 20:55:00 9.5 C 92 % 8.27 C
1693 30-04-2020 21:00:00 9.4 C 92 % 8.17 C
1694 30-04-2020 21:05:00 9.4 C 92 % 8.17 C
1695 30-04-2020 21:10:00 9.3 C 93 % 8.23 C
1696 30-04-2020 21:15:00 9.3 C 93 % 8.23 C
1697 30-04-2020 21:20:00 9.3 C 93 % 8.23 C
1698 30-04-2020 21:25:00 9.4 C 93 % 8.33 C
1699 30-04-2020 21:30:00 9.4 C 94 % 8.48 C
1700 30-04-2020 21:35:00 9.4 C 94 % 8.48 C
Sensor: Nr:Datum:Temp:Feuchte:Taupunkt:
Aussen-T/F 1701 30-04-2020 21:40:00 9.5 C 94 % 8.58 C
1702 30-04-2020 21:45:00 9.5 C 94 % 8.58 C
1703 30-04-2020 21:50:00 9.6 C 94 % 8.68 C
1704 30-04-2020 21:55:00 9.6 C 94 % 8.68 C
1705 30-04-2020 22:00:00 9.6 C 94 % 8.68 C
1706 30-04-2020 22:05:00 9.5 C 94 % 8.58 C
1707 30-04-2020 22:10:00 9.3 C 94 % 8.39 C
1708 30-04-2020 22:15:00 9.2 C 94 % 8.29 C
1709 30-04-2020 22:20:00 9.1 C 94 % 8.19 C
1710 30-04-2020 22:25:00 9.1 C 94 % 8.19 C
1711 30-04-2020 22:30:00 9.2 C 95 % 8.44 C
1712 30-04-2020 22:35:00 9.3 C 95 % 8.54 C
1713 30-04-2020 22:40:00 9.2 C 95 % 8.44 C
1714 30-04-2020 22:45:00 9.2 C 95 % 8.44 C
1715 30-04-2020 22:50:00 9.1 C 95 % 8.34 C
1716 30-04-2020 22:55:00 9 C 95 % 8.24 C
1717 30-04-2020 23:00:00 9.1 C 95 % 8.34 C
1718 30-04-2020 23:05:00 9 C 95 % 8.24 C
1719 30-04-2020 23:10:00 8.9 C 95 % 8.14 C
1720 30-04-2020 23:15:00 8.8 C 95 % 8.04 C
1721 30-04-2020 23:20:00 8.8 C 95 % 8.04 C
1722 30-04-2020 23:25:00 8.8 C 95 % 8.04 C
1723 30-04-2020 23:30:00 8.8 C 95 % 8.04 C
1724 30-04-2020 23:35:00 8.8 C 95 % 8.04 C
1725 30-04-2020 23:40:00 8.9 C 95 % 8.14 C
Sensor: Nr:Datum:Temp:Feuchte:Taupunkt:
Aussen-T/F 1726 30-04-2020 23:45:00 9.2 C 96 % 8.6 C
1727 30-04-2020 23:50:00 9.3 C 96 % 8.7 C
1728 30-04-2020 23:55:00 9.4 C 96 % 8.8 C
1729 01-05-2020 00:00:00 9.4 C 95 % 8.64 C
1730 01-05-2020 00:05:00 9.3 C 95 % 8.54 C
1731 01-05-2020 00:10:00 9.3 C 95 % 8.54 C
1732 01-05-2020 00:15:00 9.2 C 95 % 8.44 C
1733 01-05-2020 00:20:00 9.1 C 95 % 8.34 C
1734 01-05-2020 00:25:00 8.9 C 95 % 8.14 C
1735 01-05-2020 00:30:00 8.8 C 95 % 8.04 C
1736 01-05-2020 00:35:00 8.8 C 95 % 8.04 C
1737 01-05-2020 00:40:00 8.7 C 95 % 7.94 C
1738 01-05-2020 00:45:00 8.7 C 95 % 7.94 C
1739 01-05-2020 00:50:00 8.6 C 95 % 7.85 C
1740 01-05-2020 00:55:00 8.4 C 95 % 7.65 C
1741 01-05-2020 01:00:00 8.3 C 95 % 7.55 C
1742 01-05-2020 01:05:00 8.3 C 95 % 7.55 C
1743 01-05-2020 01:10:00 8.3 C 95 % 7.55 C
1744 01-05-2020 01:15:00 8.4 C 95 % 7.65 C
1745 01-05-2020 01:20:00 8.4 C 95 % 7.65 C
1746 01-05-2020 01:25:00 8.4 C 95 % 7.65 C
1747 01-05-2020 01:30:00 8.3 C 95 % 7.55 C
1748 01-05-2020 01:35:00 8.3 C 95 % 7.55 C
1749 01-05-2020 01:40:00 8.3 C 95 % 7.55 C
1750 01-05-2020 01:45:00 8.3 C 95 % 7.55 C
Sensor: Nr:Datum:Temp:Feuchte:Taupunkt:
Aussen-T/F 1751 01-05-2020 01:50:00 8.3 C 94 % 7.39 C
1752 01-05-2020 01:55:00 8.3 C 94 % 7.39 C
1753 01-05-2020 02:00:00 8.3 C 94 % 7.39 C
1754 01-05-2020 02:05:00 8.3 C 94 % 7.39 C
1755 01-05-2020 02:10:00 8.3 C 94 % 7.39 C
1756 01-05-2020 02:15:00 8.2 C 94 % 7.29 C
1757 01-05-2020 02:20:00 8.2 C 94 % 7.29 C
1758 01-05-2020 02:25:00 8.1 C 94 % 7.19 C
1759 01-05-2020 02:30:00 8.1 C 94 % 7.19 C
1760 01-05-2020 02:35:00 8 C 94 % 7.09 C
1761 01-05-2020 02:40:00 8.1 C 94 % 7.19 C
1762 01-05-2020 02:45:00 8.1 C 94 % 7.19 C
1763 01-05-2020 02:50:00 8.1 C 94 % 7.19 C
1764 01-05-2020 02:55:00 8.1 C 94 % 7.19 C
1765 01-05-2020 03:00:00 8.1 C 94 % 7.19 C
1766 01-05-2020 03:05:00 8 C 94 % 7.09 C
1767 01-05-2020 03:10:00 7.9 C 94 % 7 C
1768 01-05-2020 03:15:00 7.9 C 94 % 7 C
1769 01-05-2020 03:20:00 7.9 C 95 % 7.15 C
1770 01-05-2020 03:25:00 8.1 C 95 % 7.35 C
1771 01-05-2020 03:30:00 8.1 C 95 % 7.35 C
1772 01-05-2020 03:35:00 8.2 C 95 % 7.45 C
1773 01-05-2020 03:40:00 8.2 C 95 % 7.45 C
1774 01-05-2020 03:45:00 8.2 C 94 % 7.29 C
1775 01-05-2020 03:50:00 8.2 C 94 % 7.29 C
Sensor: Nr:Datum:Temp:Feuchte:Taupunkt:
Aussen-T/F 1776 01-05-2020 03:55:00 8.1 C 94 % 7.19 C
1777 01-05-2020 04:00:00 8 C 94 % 7.09 C
1778 01-05-2020 04:05:00 7.9 C 94 % 7 C
1779 01-05-2020 04:10:00 7.9 C 94 % 7 C
1780 01-05-2020 04:15:00 7.8 C 94 % 6.9 C
1781 01-05-2020 04:20:00 7.7 C 94 % 6.8 C
1782 01-05-2020 04:25:00 7.6 C 94 % 6.7 C
1783 01-05-2020 04:30:00 7.6 C 95 % 6.85 C
1784 01-05-2020 04:35:00 7.7 C 95 % 6.95 C
1785 01-05-2020 04:40:00 7.8 C 95 % 7.05 C
1786 01-05-2020 04:45:00 7.9 C 95 % 7.15 C
1787 01-05-2020 04:50:00 7.9 C 95 % 7.15 C
1788 01-05-2020 04:55:00 8.1 C 95 % 7.35 C
1789 01-05-2020 05:00:00 8.2 C 96 % 7.6 C
1790 01-05-2020 05:05:00 8.2 C 96 % 7.6 C
1791 01-05-2020 05:10:00 8.3 C 96 % 7.7 C
1792 01-05-2020 05:15:00 8.4 C 96 % 7.8 C
1793 01-05-2020 05:20:00 8.5 C 96 % 7.9 C
1794 01-05-2020 05:25:00 8.5 C 96 % 7.9 C
1795 01-05-2020 05:30:00 8.6 C 96 % 8 C
1796 01-05-2020 05:35:00 8.6 C 96 % 8 C
1797 01-05-2020 05:40:00 8.7 C 96 % 8.1 C
1798 01-05-2020 05:45:00 8.8 C 95 % 8.04 C
1799 01-05-2020 05:50:00 8.8 C 94 % 7.89 C
1800 01-05-2020 05:55:00 8.7 C 94 % 7.79 C
Sensor: Nr:Datum:Temp:Feuchte:Taupunkt:
Aussen-T/F 1801 01-05-2020 06:00:00 8.7 C 94 % 7.79 C
1802 01-05-2020 06:05:00 8.6 C 93 % 7.53 C
1803 01-05-2020 06:10:00 8.6 C 93 % 7.53 C
1804 01-05-2020 06:15:00 8.5 C 93 % 7.43 C
1805 01-05-2020 06:20:00 8.4 C 93 % 7.34 C
1806 01-05-2020 06:25:00 8.3 C 94 % 7.39 C
1807 01-05-2020 06:30:00 8.3 C 93 % 7.24 C
1808 01-05-2020 06:35:00 8.3 C 94 % 7.39 C
1809 01-05-2020 06:40:00 8.3 C 94 % 7.39 C
1810 01-05-2020 06:45:00 8.3 C 94 % 7.39 C
1811 01-05-2020 06:50:00 8.2 C 94 % 7.29 C
1812 01-05-2020 06:55:00 8.1 C 94 % 7.19 C
1813 01-05-2020 07:00:00 7.9 C 94 % 7 C
1814 01-05-2020 07:05:00 7.8 C 94 % 6.9 C
1815 01-05-2020 07:10:00 7.7 C 94 % 6.8 C
1816 01-05-2020 07:15:00 7.7 C 94 % 6.8 C
1817 01-05-2020 07:20:00 7.8 C 94 % 6.9 C
1818 01-05-2020 07:25:00 7.9 C 95 % 7.15 C
1819 01-05-2020 07:30:00 8 C 95 % 7.25 C
1820 01-05-2020 07:35:00 8.2 C 95 % 7.45 C
1821 01-05-2020 07:40:00 8.3 C 95 % 7.55 C
1822 01-05-2020 07:45:00 8.4 C 96 % 7.8 C
1823 01-05-2020 07:50:00 8.5 C 95 % 7.75 C
1824 01-05-2020 07:55:00 8.5 C 94 % 7.59 C
1825 01-05-2020 08:00:00 8.6 C 94 % 7.69 C
Sensor: Nr:Datum:Temp:Feuchte:Taupunkt:
Aussen-T/F 1826 01-05-2020 08:05:00 8.6 C 95 % 7.85 C
1827 01-05-2020 08:10:00 8.7 C 95 % 7.94 C
1828 01-05-2020 08:15:00 8.8 C 94 % 7.89 C
1829 01-05-2020 08:20:00 8.8 C 94 % 7.89 C
1830 01-05-2020 08:25:00 8.8 C 94 % 7.89 C
1831 01-05-2020 08:30:00 8.8 C 94 % 7.89 C
1832 01-05-2020 08:35:00 8.8 C 95 % 8.04 C
1833 01-05-2020 08:40:00 8.9 C 95 % 8.14 C
1834 01-05-2020 08:45:00 9 C 95 % 8.24 C
1835 01-05-2020 08:50:00 9.1 C 95 % 8.34 C
1836 01-05-2020 08:55:00 9.2 C 95 % 8.44 C
1837 01-05-2020 09:00:00 9.4 C 95 % 8.64 C
1838 01-05-2020 09:05:00 9.5 C 95 % 8.74 C
1839 01-05-2020 09:10:00 9.6 C 95 % 8.84 C
1840 01-05-2020 09:15:00 9.7 C 95 % 8.94 C
1841 01-05-2020 09:20:00 9.8 C 95 % 9.04 C
1842 01-05-2020 09:25:00 9.9 C 95 % 9.14 C
1843 01-05-2020 09:30:00 10 C 95 % 9.24 C
1844 01-05-2020 09:35:00 10.1 C 94 % 9.18 C
1845 01-05-2020 09:40:00 10.2 C 93 % 9.12 C
1846 01-05-2020 09:45:00 10.3 C 93 % 9.22 C
1847 01-05-2020 09:50:00 10.3 C 91 % 8.9 C
1848 01-05-2020 09:55:00 10.3 C 91 % 8.9 C
1849 01-05-2020 10:00:00 10.4 C 90 % 8.83 C
1850 01-05-2020 10:05:00 10.5 C 91 % 9.09 C
Sensor: Nr:Datum:Temp:Feuchte:Taupunkt:
Aussen-T/F 1851 01-05-2020 10:10:00 10.5 C 89 % 8.77 C
1852 01-05-2020 10:15:00 10.6 C 90 % 9.03 C
1853 01-05-2020 10:20:00 10.6 C 89 % 8.86 C
1854 01-05-2020 10:25:00 10.6 C 89 % 8.86 C
1855 01-05-2020 10:30:00 10.7 C 89 % 8.96 C
1856 01-05-2020 10:35:00 10.8 C 89 % 9.06 C
1857 01-05-2020 10:40:00 10.9 C 88 % 8.99 C
1858 01-05-2020 10:45:00 11.1 C 87 % 9.02 C
1859 01-05-2020 10:50:00 11.3 C 85 % 8.87 C
1860 01-05-2020 10:55:00 11.7 C 83 % 8.91 C
1861 01-05-2020 11:00:00 11.8 C 82 % 8.83 C
1862 01-05-2020 11:05:00 11.9 C 83 % 9.11 C
1863 01-05-2020 11:10:00 11.9 C 81 % 8.75 C
1864 01-05-2020 11:15:00 12 C 82 % 9.03 C
1865 01-05-2020 11:20:00 12.2 C 81 % 9.04 C
1866 01-05-2020 11:25:00 12.3 C 80 % 8.95 C
1867 01-05-2020 11:30:00 12.3 C 78 % 8.58 C
1868 01-05-2020 11:35:00 12.4 C 78 % 8.68 C
1869 01-05-2020 11:40:00 12.5 C 78 % 8.77 C
1870 01-05-2020 11:45:00 12.6 C 77 % 8.68 C
1871 01-05-2020 11:50:00 12.6 C 79 % 9.06 C
1872 01-05-2020 11:55:00 12.5 C 78 % 8.77 C
1873 01-05-2020 12:00:00 12.5 C 80 % 9.15 C
1874 01-05-2020 12:05:00 12.5 C 79 % 8.96 C
1875 01-05-2020 12:10:00 12.3 C 78 % 8.58 C
Sensor: Nr:Datum:Temp:Feuchte:Taupunkt:
Aussen-T/F 1876 01-05-2020 12:15:00 12.2 C 79 % 8.67 C
1877 01-05-2020 12:20:00 12.2 C 80 % 8.86 C
1878 01-05-2020 12:25:00 12.2 C 81 % 9.04 C
1879 01-05-2020 12:30:00 12 C 81 % 8.84 C
1880 01-05-2020 12:35:00 11.8 C 83 % 9.01 C
1881 01-05-2020 12:40:00 11.7 C 84 % 9.09 C
1882 01-05-2020 12:45:00 11.6 C 86 % 9.34 C
1883 01-05-2020 12:50:00 11.3 C 87 % 9.22 C
1884 01-05-2020 12:55:00 11.3 C 88 % 9.39 C
1885 01-05-2020 13:00:00 11.2 C 87 % 9.12 C
1886 01-05-2020 13:05:00 11.1 C 87 % 9.02 C
1887 01-05-2020 13:10:00 10.9 C 86 % 8.65 C
1888 01-05-2020 13:15:00 10.7 C 85 % 8.28 C
1889 01-05-2020 13:20:00 10.6 C 86 % 8.36 C
1890 01-05-2020 13:25:00 10.8 C 87 % 8.73 C
1891 01-05-2020 13:30:00 10.9 C 86 % 8.65 C
1892 01-05-2020 13:35:00 11.1 C 85 % 8.68 C
1893 01-05-2020 13:40:00 11.2 C 85 % 8.77 C
1894 01-05-2020 13:45:00 11.4 C 83 % 8.62 C
1895 01-05-2020 13:50:00 11.6 C 83 % 8.81 C
1896 01-05-2020 13:55:00 11.9 C 82 % 8.93 C
1897 01-05-2020 14:00:00 12 C 81 % 8.84 C
1898 01-05-2020 14:05:00 12 C 81 % 8.84 C
1899 01-05-2020 14:10:00 12.2 C 81 % 9.04 C
1900 01-05-2020 14:15:00 12.4 C 78 % 8.68 C
Sensor: Nr:Datum:Temp:Feuchte:Taupunkt:
Aussen-T/F 1901 01-05-2020 14:20:00 12.7 C 79 % 9.16 C
1902 01-05-2020 14:25:00 12.9 C 75 % 8.58 C
1903 01-05-2020 14:30:00 13.2 C 75 % 8.87 C
1904 01-05-2020 14:35:00 13.3 C 73 % 8.57 C
1905 01-05-2020 14:40:00 13.4 C 72 % 8.46 C
1906 01-05-2020 14:45:00 13.6 C 74 % 9.06 C
1907 01-05-2020 14:50:00 13.7 C 72 % 8.75 C
1908 01-05-2020 14:55:00 13.7 C 70 % 8.33 C
1909 01-05-2020 15:00:00 13.8 C 68 % 8 C
1910 01-05-2020 15:05:00 14 C 69 % 8.41 C
1911 01-05-2020 15:10:00 14.2 C 68 % 8.39 C
1912 01-05-2020 15:15:00 14.3 C 69 % 8.7 C
1913 01-05-2020 15:20:00 14.6 C 69 % 8.98 C
1914 01-05-2020 15:25:00 14.6 C 66 % 8.33 C
1915 01-05-2020 15:30:00 14.4 C 68 % 8.58 C
1916 01-05-2020 15:35:00 14.3 C 69 % 8.7 C
1917 01-05-2020 15:40:00 14.1 C 69 % 8.5 C
1918 01-05-2020 15:45:00 13.7 C 71 % 8.54 C
1919 01-05-2020 15:50:00 13 C 77 % 9.07 C
1920 01-05-2020 15:55:00 12.6 C 80 % 9.25 C
1921 01-05-2020 16:00:00 12.3 C 80 % 8.95 C
1922 01-05-2020 16:05:00 12.6 C 81 % 9.43 C
1923 01-05-2020 16:10:00 13.1 C 81 % 9.92 C
1924 01-05-2020 16:15:00 13.7 C 78 % 9.94 C
1925 01-05-2020 16:20:00 14.3 C 75 % 9.93 C
Sensor: Nr:Datum:Temp:Feuchte:Taupunkt:
Aussen-T/F 1926 01-05-2020 16:25:00 14.7 C 72 % 9.71 C
1927 01-05-2020 16:30:00 15.1 C 72 % 10.09 C
1928 01-05-2020 16:35:00 15.4 C 70 % 9.96 C
1929 01-05-2020 16:40:00 15.7 C 69 % 10.03 C
1930 01-05-2020 16:45:00 15.7 C 68 % 9.82 C
1931 01-05-2020 16:50:00 15.6 C 68 % 9.72 C
1932 01-05-2020 16:55:00 15.4 C 69 % 9.75 C
1933 01-05-2020 17:00:00 15.6 C 68 % 9.72 C
1934 01-05-2020 17:05:00 15.8 C 68 % 9.91 C
1935 01-05-2020 17:10:00 15.9 C 69 % 10.23 C
1936 01-05-2020 17:15:00 16.2 C 65 % 9.62 C
1937 01-05-2020 17:20:00 16.1 C 65 % 9.53 C
1938 01-05-2020 17:25:00 15.7 C 67 % 9.6 C
1939 01-05-2020 17:30:00 15 C 69 % 9.36 C
1940 01-05-2020 17:35:00 14.3 C 74 % 9.73 C
1941 01-05-2020 17:40:00 13.6 C 78 % 9.84 C
1942 01-05-2020 17:45:00 13.3 C 79 % 9.74 C
1943 01-05-2020 17:50:00 12.9 C 78 % 9.16 C
1944 01-05-2020 17:55:00 12.8 C 79 % 9.25 C
1945 01-05-2020 18:00:00 12.8 C 81 % 9.62 C
1946 01-05-2020 18:05:00 12.9 C 83 % 10.09 C
1947 01-05-2020 18:10:00 12.9 C 84 % 10.26 C
1948 01-05-2020 18:15:00 12.8 C 82 % 9.81 C
1949 01-05-2020 18:20:00 12.7 C 80 % 9.34 C
1950 01-05-2020 18:25:00 12.8 C 81 % 9.62 C
Sensor: Nr:Datum:Temp:Feuchte:Taupunkt:
Aussen-T/F 1951 01-05-2020 18:30:00 13.3 C 81 % 10.11 C
1952 01-05-2020 18:35:00 13.7 C 80 % 10.32 C
1953 01-05-2020 18:40:00 13.8 C 81 % 10.6 C
1954 01-05-2020 18:45:00 14.3 C 82 % 11.27 C
1955 01-05-2020 18:50:00 14.8 C 73 % 10.01 C
1956 01-05-2020 18:55:00 14.6 C 72 % 9.61 C
1957 01-05-2020 19:00:00 14.2 C 72 % 9.23 C
1958 01-05-2020 19:05:00 13.8 C 76 % 9.65 C
1959 01-05-2020 19:10:00 13.6 C 77 % 9.65 C
1960 01-05-2020 19:15:00 13.2 C 77 % 9.26 C
1961 01-05-2020 19:20:00 12.8 C 79 % 9.25 C
1962 01-05-2020 19:25:00 12.6 C 80 % 9.25 C
1963 01-05-2020 19:30:00 12.3 C 80 % 8.95 C
1964 01-05-2020 19:35:00 12.1 C 80 % 8.76 C
1965 01-05-2020 19:40:00 12 C 81 % 8.84 C
1966 01-05-2020 19:45:00 11.9 C 81 % 8.75 C
1967 01-05-2020 19:50:00 11.8 C 82 % 8.83 C
1968 01-05-2020 19:55:00 11.7 C 82 % 8.73 C
1969 01-05-2020 20:00:00 11.6 C 82 % 8.64 C
1970 01-05-2020 20:05:00 11.4 C 81 % 8.26 C
1971 01-05-2020 20:10:00 11.3 C 81 % 8.16 C
1972 01-05-2020 20:15:00 11.3 C 82 % 8.34 C
1973 01-05-2020 20:20:00 11.4 C 80 % 8.08 C
1974 01-05-2020 20:25:00 11.4 C 79 % 7.89 C
1975 01-05-2020 20:30:00 11.4 C 79 % 7.89 C
Sensor: Nr:Datum:Temp:Feuchte:Taupunkt:
Aussen-T/F 1976 01-05-2020 20:35:00 11.3 C 80 % 7.98 C
1977 01-05-2020 20:40:00 11.2 C 81 % 8.06 C
1978 01-05-2020 20:45:00 11.1 C 82 % 8.15 C
1979 01-05-2020 20:50:00 10.9 C 83 % 8.13 C
1980 01-05-2020 20:55:00 10.8 C 84 % 8.21 C
1981 01-05-2020 21:00:00 10.7 C 84 % 8.11 C
1982 01-05-2020 21:05:00 10.6 C 85 % 8.19 C
1983 01-05-2020 21:10:00 10.5 C 85 % 8.09 C
1984 01-05-2020 21:15:00 10.4 C 85 % 7.99 C
1985 01-05-2020 21:20:00 10.4 C 85 % 7.99 C
1986 01-05-2020 21:25:00 10.4 C 86 % 8.16 C
1987 01-05-2020 21:30:00 10.3 C 86 % 8.06 C
1988 01-05-2020 21:35:00 10.3 C 86 % 8.06 C
1989 01-05-2020 21:40:00 10.2 C 86 % 7.97 C
1990 01-05-2020 21:45:00 10 C 86 % 7.77 C
1991 01-05-2020 21:50:00 9.8 C 86 % 7.57 C
1992 01-05-2020 21:55:00 9.6 C 87 % 7.55 C
1993 01-05-2020 22:00:00 9.4 C 87 % 7.35 C
1994 01-05-2020 22:05:00 9.3 C 88 % 7.42 C
1995 01-05-2020 22:10:00 9.2 C 88 % 7.32 C
1996 01-05-2020 22:15:00 9.1 C 89 % 7.39 C
1997 01-05-2020 22:20:00 9.1 C 89 % 7.39 C
1998 01-05-2020 22:25:00 9.1 C 89 % 7.39 C
1999 01-05-2020 22:30:00 9.2 C 89 % 7.48 C
2000 01-05-2020 22:35:00 9.3 C 89 % 7.58 C
Sensor: Nr:Datum:Temp:Feuchte:Taupunkt:
Aussen-T/F 2001 01-05-2020 22:40:00 9.4 C 89 % 7.68 C
2002 01-05-2020 22:45:00 9.4 C 89 % 7.68 C
2003 01-05-2020 22:50:00 9.4 C 89 % 7.68 C
2004 01-05-2020 22:55:00 9.5 C 89 % 7.78 C
2005 01-05-2020 23:00:00 9.5 C 89 % 7.78 C
2006 01-05-2020 23:05:00 9.5 C 89 % 7.78 C
2007 01-05-2020 23:10:00 9.6 C 89 % 7.88 C
2008 01-05-2020 23:15:00 9.5 C 89 % 7.78 C
2009 01-05-2020 23:20:00 9.6 C 89 % 7.88 C
2010 01-05-2020 23:25:00 9.6 C 89 % 7.88 C
2011 01-05-2020 23:30:00 9.6 C 89 % 7.88 C
2012 01-05-2020 23:35:00 9.6 C 89 % 7.88 C
2013 01-05-2020 23:40:00 9.6 C 88 % 7.71 C
2014 01-05-2020 23:45:00 9.7 C 88 % 7.81 C
2015 01-05-2020 23:50:00 9.7 C 88 % 7.81 C
2016 01-05-2020 23:55:00 9.7 C 88 % 7.81 C
2017 02-05-2020 00:00:00 9.7 C 88 % 7.81 C
2018 02-05-2020 00:05:00 9.7 C 89 % 7.98 C
2019 02-05-2020 00:10:00 9.6 C 89 % 7.88 C
2020 02-05-2020 00:15:00 9.6 C 89 % 7.88 C
2021 02-05-2020 00:20:00 9.6 C 89 % 7.88 C
2022 02-05-2020 00:25:00 9.4 C 89 % 7.68 C
2023 02-05-2020 00:30:00 9.4 C 89 % 7.68 C
2024 02-05-2020 00:35:00 9.2 C 89 % 7.48 C
2025 02-05-2020 00:40:00 9.2 C 89 % 7.48 C
Sensor: Nr:Datum:Temp:Feuchte:Taupunkt:
Aussen-T/F 2026 02-05-2020 00:45:00 9.2 C 89 % 7.48 C
2027 02-05-2020 00:50:00 9.2 C 89 % 7.48 C
2028 02-05-2020 00:55:00 9.2 C 90 % 7.65 C
2029 02-05-2020 01:00:00 9.2 C 90 % 7.65 C
2030 02-05-2020 01:05:00 9.2 C 90 % 7.65 C
2031 02-05-2020 01:10:00 9.3 C 90 % 7.75 C
2032 02-05-2020 01:15:00 9.3 C 90 % 7.75 C
2033 02-05-2020 01:20:00 9.4 C 89 % 7.68 C
2034 02-05-2020 01:25:00 9.4 C 89 % 7.68 C
2035 02-05-2020 01:30:00 9.5 C 88 % 7.61 C
2036 02-05-2020 01:35:00 9.4 C 89 % 7.68 C
2037 02-05-2020 01:40:00 9.3 C 89 % 7.58 C
2038 02-05-2020 01:45:00 9.3 C 89 % 7.58 C
2039 02-05-2020 01:50:00 9.2 C 89 % 7.48 C
2040 02-05-2020 01:55:00 9.1 C 89 % 7.39 C
2041 02-05-2020 02:00:00 9 C 90 % 7.45 C
2042 02-05-2020 02:05:00 8.9 C 90 % 7.35 C
2043 02-05-2020 02:10:00 8.8 C 90 % 7.25 C
2044 02-05-2020 02:15:00 8.8 C 90 % 7.25 C
2045 02-05-2020 02:20:00 8.8 C 91 % 7.41 C
2046 02-05-2020 02:25:00 8.8 C 91 % 7.41 C
2047 02-05-2020 02:30:00 8.7 C 91 % 7.32 C
2048 02-05-2020 02:35:00 8.8 C 91 % 7.41 C
2049 02-05-2020 02:40:00 8.8 C 91 % 7.41 C
2050 02-05-2020 02:45:00 8.9 C 91 % 7.51 C
Sensor: Nr:Datum:Temp:Feuchte:Taupunkt:
Aussen-T/F 2051 02-05-2020 02:50:00 8.9 C 90 % 7.35 C
2052 02-05-2020 02:55:00 9.1 C 90 % 7.55 C
2053 02-05-2020 03:00:00 9.2 C 89 % 7.48 C
2054 02-05-2020 03:05:00 9.2 C 89 % 7.48 C
2055 02-05-2020 03:10:00 9.3 C 88 % 7.42 C
2056 02-05-2020 03:15:00 9.3 C 88 % 7.42 C
2057 02-05-2020 03:20:00 9.3 C 88 % 7.42 C
2058 02-05-2020 03:25:00 9.4 C 88 % 7.52 C
2059 02-05-2020 03:30:00 9.4 C 88 % 7.52 C
2060 02-05-2020 03:35:00 9.4 C 88 % 7.52 C
2061 02-05-2020 03:40:00 9.4 C 88 % 7.52 C
2062 02-05-2020 03:45:00 9.4 C 88 % 7.52 C
2063 02-05-2020 03:50:00 9.4 C 88 % 7.52 C
2064 02-05-2020 03:55:00 9.3 C 88 % 7.42 C
2065 02-05-2020 04:00:00 9.3 C 88 % 7.42 C
2066 02-05-2020 04:05:00 9.2 C 88 % 7.32 C
2067 02-05-2020 04:10:00 9.2 C 89 % 7.48 C
2068 02-05-2020 04:15:00 9.1 C 89 % 7.39 C
2069 02-05-2020 04:20:00 9 C 89 % 7.29 C
2070 02-05-2020 04:25:00 8.9 C 89 % 7.19 C
2071 02-05-2020 04:30:00 8.9 C 89 % 7.19 C
2072 02-05-2020 04:35:00 8.9 C 90 % 7.35 C
2073 02-05-2020 04:40:00 8.9 C 89 % 7.19 C
2074 02-05-2020 04:45:00 9.1 C 89 % 7.39 C
2075 02-05-2020 04:50:00 9.1 C 89 % 7.39 C
Sensor: Nr:Datum:Temp:Feuchte:Taupunkt:
Aussen-T/F 2076 02-05-2020 04:55:00 9.1 C 88 % 7.22 C
2077 02-05-2020 05:00:00 9.1 C 88 % 7.22 C
2078 02-05-2020 05:05:00 9.1 C 88 % 7.22 C
2079 02-05-2020 05:10:00 9 C 88 % 7.12 C
2080 02-05-2020 05:15:00 9 C 88 % 7.12 C
2081 02-05-2020 05:20:00 9 C 88 % 7.12 C
2082 02-05-2020 05:25:00 9 C 88 % 7.12 C
2083 02-05-2020 05:30:00 9 C 87 % 6.96 C
2084 02-05-2020 05:35:00 9.1 C 87 % 7.05 C
2085 02-05-2020 05:40:00 9 C 87 % 6.96 C
2086 02-05-2020 05:45:00 8.9 C 87 % 6.86 C
2087 02-05-2020 05:50:00 8.8 C 87 % 6.76 C
2088 02-05-2020 05:55:00 8.6 C 87 % 6.56 C
2089 02-05-2020 06:00:00 8.5 C 87 % 6.46 C
2090 02-05-2020 06:05:00 8.4 C 87 % 6.37 C
2091 02-05-2020 06:10:00 8.3 C 87 % 6.27 C
2092 02-05-2020 06:15:00 8.3 C 88 % 6.43 C
2093 02-05-2020 06:20:00 8.2 C 88 % 6.33 C
2094 02-05-2020 06:25:00 8.2 C 88 % 6.33 C
2095 02-05-2020 06:30:00 8.2 C 88 % 6.33 C
2096 02-05-2020 06:35:00 8.2 C 88 % 6.33 C
2097 02-05-2020 06:40:00 8.2 C 88 % 6.33 C
2098 02-05-2020 06:45:00 8.2 C 88 % 6.33 C
2099 02-05-2020 06:50:00 8.2 C 88 % 6.33 C
2100 02-05-2020 06:55:00 8.2 C 88 % 6.33 C
Sensor: Nr:Datum:Temp:Feuchte:Taupunkt:
Aussen-T/F 2101 02-05-2020 07:00:00 8.2 C 88 % 6.33 C
2102 02-05-2020 07:05:00 8.2 C 88 % 6.33 C
2103 02-05-2020 07:10:00 8.3 C 88 % 6.43 C
2104 02-05-2020 07:15:00 8.4 C 87 % 6.37 C
2105 02-05-2020 07:20:00 8.5 C 87 % 6.46 C
2106 02-05-2020 07:25:00 8.6 C 87 % 6.56 C
2107 02-05-2020 07:30:00 8.6 C 87 % 6.56 C
2108 02-05-2020 07:35:00 8.6 C 86 % 6.39 C
2109 02-05-2020 07:40:00 8.6 C 86 % 6.39 C
2110 02-05-2020 07:45:00 8.6 C 86 % 6.39 C
2111 02-05-2020 07:50:00 8.6 C 86 % 6.39 C
2112 02-05-2020 07:55:00 8.7 C 87 % 6.66 C
2113 02-05-2020 08:00:00 8.7 C 86 % 6.49 C
2114 02-05-2020 08:05:00 8.8 C 87 % 6.76 C
2115 02-05-2020 08:10:00 8.8 C 86 % 6.59 C
2116 02-05-2020 08:15:00 8.9 C 86 % 6.69 C
2117 02-05-2020 08:20:00 9.1 C 87 % 7.05 C
2118 02-05-2020 08:25:00 9.2 C 85 % 6.81 C
2119 02-05-2020 08:30:00 9.3 C 85 % 6.91 C
2120 02-05-2020 08:35:00 9.5 C 85 % 7.11 C
2121 02-05-2020 08:40:00 9.7 C 84 % 7.13 C
2122 02-05-2020 08:45:00 9.8 C 84 % 7.23 C
2123 02-05-2020 08:50:00 9.8 C 83 % 7.05 C
2124 02-05-2020 08:55:00 9.8 C 82 % 6.88 C
2125 02-05-2020 09:00:00 9.8 C 81 % 6.7 C
Sensor: Nr:Datum:Temp:Feuchte:Taupunkt:
Aussen-T/F 2126 02-05-2020 09:05:00 9.8 C 81 % 6.7 C
2127 02-05-2020 09:10:00 9.8 C 81 % 6.7 C
2128 02-05-2020 09:15:00 9.8 C 81 % 6.7 C
2129 02-05-2020 09:20:00 9.9 C 81 % 6.8 C
2130 02-05-2020 09:25:00 9.9 C 81 % 6.8 C
2131 02-05-2020 09:30:00 10.1 C 81 % 6.99 C
2132 02-05-2020 09:35:00 10.3 C 81 % 7.19 C
2133 02-05-2020 09:40:00 10.6 C 80 % 7.3 C
2134 02-05-2020 09:45:00 10.8 C 79 % 7.31 C
2135 02-05-2020 09:50:00 10.8 C 78 % 7.12 C
2136 02-05-2020 09:55:00 10.7 C 79 % 7.21 C
2137 02-05-2020 10:00:00 10.6 C 79 % 7.11 C
2138 02-05-2020 10:05:00 10.4 C 81 % 7.28 C
2139 02-05-2020 10:10:00 10.1 C 84 % 7.52 C
2140 02-05-2020 10:15:00 9.6 C 82 % 6.68 C
2141 02-05-2020 10:20:00 8.8 C 84 % 6.25 C
2142 02-05-2020 10:25:00 8.3 C 86 % 6.1 C
2143 02-05-2020 10:30:00 8 C 88 % 6.14 C
2144 02-05-2020 10:35:00 7.8 C 90 % 6.27 C
2145 02-05-2020 10:40:00 7.7 C 90 % 6.17 C
2146 02-05-2020 10:45:00 7.6 C 91 % 6.23 C
2147 02-05-2020 10:50:00 7.6 C 91 % 6.23 C
2148 02-05-2020 10:55:00 7.6 C 92 % 6.39 C
2149 02-05-2020 11:00:00 7.7 C 92 % 6.48 C
2150 02-05-2020 11:05:00 7.8 C 93 % 6.74 C
Sensor: Nr:Datum:Temp:Feuchte:Taupunkt:
Aussen-T/F 2151 02-05-2020 11:10:00 8.1 C 94 % 7.19 C
2152 02-05-2020 11:15:00 8.3 C 94 % 7.39 C
2153 02-05-2020 11:20:00 8.4 C 93 % 7.34 C
2154 02-05-2020 11:25:00 8.5 C 93 % 7.43 C
2155 02-05-2020 11:30:00 8.7 C 94 % 7.79 C
2156 02-05-2020 11:35:00 8.9 C 94 % 7.99 C
2157 02-05-2020 11:40:00 9 C 93 % 7.93 C
2158 02-05-2020 11:45:00 9.2 C 93 % 8.13 C
2159 02-05-2020 11:50:00 9.3 C 93 % 8.23 C
2160 02-05-2020 11:55:00 9.3 C 92 % 8.07 C
2161 02-05-2020 12:00:00 9.3 C 91 % 7.91 C
2162 02-05-2020 12:05:00 9.3 C 91 % 7.91 C
2163 02-05-2020 12:10:00 9.4 C 89 % 7.68 C
2164 02-05-2020 12:15:00 9.7 C 87 % 7.64 C
2165 02-05-2020 12:20:00 9.8 C 86 % 7.57 C
2166 02-05-2020 12:25:00 10 C 86 % 7.77 C
2167 02-05-2020 12:30:00 10.1 C 85 % 7.7 C
2168 02-05-2020 12:35:00 10.3 C 85 % 7.89 C
2169 02-05-2020 12:40:00 10.5 C 84 % 7.91 C
2170 02-05-2020 12:45:00 10.8 C 84 % 8.21 C
2171 02-05-2020 12:50:00 10.9 C 83 % 8.13 C
2172 02-05-2020 12:55:00 11 C 85 % 8.58 C
2173 02-05-2020 13:00:00 11.1 C 81 % 7.97 C
2174 02-05-2020 13:05:00 11.4 C 76 % 7.33 C
2175 02-05-2020 13:10:00 11.6 C 77 % 7.71 C
Sensor: Nr:Datum:Temp:Feuchte:Taupunkt:
Aussen-T/F 2176 02-05-2020 13:15:00 11.8 C 76 % 7.71 C
2177 02-05-2020 13:20:00 11.8 C 77 % 7.9 C
2178 02-05-2020 13:25:00 11.6 C 77 % 7.71 C
2179 02-05-2020 13:30:00 11.4 C 77 % 7.52 C
2180 02-05-2020 13:35:00 11.3 C 78 % 7.61 C
2181 02-05-2020 13:40:00 11.3 C 79 % 7.8 C
2182 02-05-2020 13:45:00 11.3 C 77 % 7.42 C
2183 02-05-2020 13:50:00 11.6 C 78 % 7.9 C
2184 02-05-2020 13:55:00 11.7 C 76 % 7.62 C
2185 02-05-2020 14:00:00 11.9 C 76 % 7.81 C
2186 02-05-2020 14:05:00 12.1 C 74 % 7.61 C
2187 02-05-2020 14:10:00 12.3 C 74 % 7.8 C
2188 02-05-2020 14:15:00 12.7 C 74 % 8.19 C
2189 02-05-2020 14:20:00 12.9 C 73 % 8.18 C
2190 02-05-2020 14:25:00 13.2 C 69 % 7.64 C
2191 02-05-2020 14:30:00 13.2 C 69 % 7.64 C
2192 02-05-2020 14:35:00 12.9 C 67 % 6.93 C
2193 02-05-2020 14:40:00 11.6 C 72 % 6.73 C
2194 02-05-2020 14:45:00 10.2 C 77 % 6.35 C
2195 02-05-2020 14:50:00 9.6 C 81 % 6.5 C
2196 02-05-2020 14:55:00 9.3 C 84 % 6.74 C
2197 02-05-2020 15:00:00 8.9 C 85 % 6.52 C
2198 02-05-2020 15:05:00 8.7 C 88 % 6.83 C
2199 02-05-2020 15:10:00 8.7 C 89 % 6.99 C
2200 02-05-2020 15:15:00 8.7 C 90 % 7.15 C
Sensor: Nr:Datum:Temp:Feuchte:Taupunkt:
Aussen-T/F 2201 02-05-2020 15:20:00 8.8 C 91 % 7.41 C
2202 02-05-2020 15:25:00 8.8 C 91 % 7.41 C
2203 02-05-2020 15:30:00 9.1 C 92 % 7.87 C
2204 02-05-2020 15:35:00 9.4 C 91 % 8.01 C
2205 02-05-2020 15:40:00 10.2 C 93 % 9.12 C
2206 02-05-2020 15:45:00 10.8 C 93 % 9.71 C
2207 02-05-2020 15:50:00 11.3 C 91 % 9.89 C
2208 02-05-2020 15:55:00 11.5 C 87 % 9.41 C
2209 02-05-2020 16:00:00 12.1 C 87 % 10 C
2210 02-05-2020 16:05:00 12.6 C 83 % 9.79 C
2211 02-05-2020 16:10:00 13.1 C 83 % 10.28 C
2212 02-05-2020 16:15:00 13.4 C 77 % 9.45 C
2213 02-05-2020 16:20:00 13.7 C 80 % 10.32 C
2214 02-05-2020 16:25:00 13.9 C 70 % 8.53 C
2215 02-05-2020 16:30:00 14.2 C 72 % 9.23 C
2216 02-05-2020 16:35:00 14.2 C 71 % 9.02 C
2217 02-05-2020 16:40:00 13.9 C 75 % 9.55 C
2218 02-05-2020 16:45:00 13.6 C 76 % 9.45 C
2219 02-05-2020 16:50:00 13.4 C 78 % 9.65 C
2220 02-05-2020 16:55:00 13.3 C 81 % 10.11 C
2221 02-05-2020 17:00:00 13.7 C 81 % 10.5 C
2222 02-05-2020 17:05:00 14.4 C 75 % 10.03 C
2223 02-05-2020 17:10:00 14.7 C 69 % 9.08 C
2224 02-05-2020 17:15:00 14.5 C 72 % 9.52 C
2225 02-05-2020 17:20:00 14.1 C 69 % 8.5 C
Sensor: Nr:Datum:Temp:Feuchte:Taupunkt:
Aussen-T/F 2226 02-05-2020 17:25:00 13.9 C 74 % 9.35 C
2227 02-05-2020 17:30:00 13.8 C 76 % 9.65 C
2228 02-05-2020 17:35:00 13.8 C 78 % 10.03 C
2229 02-05-2020 17:40:00 13.8 C 75 % 9.45 C
2230 02-05-2020 17:45:00 13.8 C 75 % 9.45 C
2231 02-05-2020 17:50:00 13.8 C 65 % 7.34 C
2232 02-05-2020 17:55:00 14.2 C 63 % 7.27 C
2233 02-05-2020 18:00:00 14.7 C 60 % 7.03 C
2234 02-05-2020 18:05:00 14.7 C 61 % 7.27 C
2235 02-05-2020 18:10:00 14.3 C 60 % 6.65 C
2236 02-05-2020 18:15:00 13.9 C 61 % 6.51 C
2237 02-05-2020 18:20:00 13.7 C 64 % 7.02 C
2238 02-05-2020 18:25:00 13.3 C 67 % 7.31 C
2239 02-05-2020 18:30:00 13.1 C 69 % 7.55 C
2240 02-05-2020 18:35:00 12.9 C 70 % 7.57 C
2241 02-05-2020 18:40:00 12.7 C 70 % 7.38 C
2242 02-05-2020 18:45:00 12.6 C 71 % 7.49 C
2243 02-05-2020 18:50:00 12.4 C 72 % 7.5 C
2244 02-05-2020 18:55:00 12.3 C 72 % 7.4 C
2245 02-05-2020 19:00:00 12.1 C 72 % 7.21 C
2246 02-05-2020 19:05:00 12 C 74 % 7.52 C
2247 02-05-2020 19:10:00 11.8 C 73 % 7.12 C
2248 02-05-2020 19:15:00 11.7 C 72 % 6.83 C
2249 02-05-2020 19:20:00 11.5 C 68 % 5.81 C
2250 02-05-2020 19:25:00 11.5 C 70 % 6.23 C
Sensor: Nr:Datum:Temp:Feuchte:Taupunkt:
Aussen-T/F 2251 02-05-2020 19:30:00 11.5 C 71 % 6.43 C
2252 02-05-2020 19:35:00 11.6 C 73 % 6.93 C
2253 02-05-2020 19:40:00 11.6 C 75 % 7.33 C
2254 02-05-2020 19:45:00 11.6 C 73 % 6.93 C
2255 02-05-2020 19:50:00 11.7 C 74 % 7.23 C
2256 02-05-2020 19:55:00 11.8 C 73 % 7.12 C
2257 02-05-2020 20:00:00 12 C 72 % 7.12 C
2258 02-05-2020 20:05:00 12.1 C 71 % 7.01 C
2259 02-05-2020 20:10:00 12.1 C 71 % 7.01 C
2260 02-05-2020 20:15:00 11.9 C 71 % 6.82 C
2261 02-05-2020 20:20:00 11.9 C 72 % 7.02 C
2262 02-05-2020 20:25:00 11.7 C 72 % 6.83 C
2263 02-05-2020 20:30:00 11.6 C 74 % 7.13 C
2264 02-05-2020 20:35:00 11.5 C 76 % 7.42 C
2265 02-05-2020 20:40:00 11.2 C 77 % 7.32 C
2266 02-05-2020 20:45:00 10.8 C 79 % 7.31 C
2267 02-05-2020 20:50:00 10.4 C 80 % 7.1 C
2268 02-05-2020 20:55:00 10 C 82 % 7.07 C
2269 02-05-2020 21:00:00 9.7 C 83 % 6.96 C
2270 02-05-2020 21:05:00 9.4 C 84 % 6.84 C
2271 02-05-2020 21:10:00 9.2 C 84 % 6.64 C
2272 02-05-2020 21:15:00 8.9 C 85 % 6.52 C
2273 02-05-2020 21:20:00 8.8 C 85 % 6.42 C
2274 02-05-2020 21:25:00 8.7 C 85 % 6.32 C
2275 02-05-2020 21:30:00 8.6 C 86 % 6.39 C
Sensor: Nr:Datum:Temp:Feuchte:Taupunkt:
Aussen-T/F 2276 02-05-2020 21:35:00 8.4 C 86 % 6.2 C
2277 02-05-2020 21:40:00 8.3 C 87 % 6.27 C
2278 02-05-2020 21:45:00 8.3 C 87 % 6.27 C
2279 02-05-2020 21:50:00 8.2 C 88 % 6.33 C
2280 02-05-2020 21:55:00 8.1 C 88 % 6.24 C
2281 02-05-2020 22:00:00 8 C 88 % 6.14 C
2282 02-05-2020 22:05:00 7.9 C 89 % 6.2 C
2283 02-05-2020 22:10:00 7.8 C 89 % 6.1 C
2284 02-05-2020 22:15:00 7.7 C 89 % 6 C
2285 02-05-2020 22:20:00 7.6 C 89 % 5.91 C
2286 02-05-2020 22:25:00 7.4 C 90 % 5.87 C
2287 02-05-2020 22:30:00 7.3 C 90 % 5.77 C
2288 02-05-2020 22:35:00 7.2 C 90 % 5.67 C
2289 02-05-2020 22:40:00 7.2 C 90 % 5.67 C
2290 02-05-2020 22:45:00 7.1 C 91 % 5.73 C
2291 02-05-2020 22:50:00 7 C 91 % 5.63 C
2292 02-05-2020 22:55:00 7 C 91 % 5.63 C
2293 02-05-2020 23:00:00 7 C 91 % 5.63 C
2294 02-05-2020 23:05:00 6.9 C 92 % 5.69 C
2295 02-05-2020 23:10:00 6.9 C 92 % 5.69 C
2296 02-05-2020 23:15:00 6.9 C 92 % 5.69 C
2297 02-05-2020 23:20:00 6.9 C 92 % 5.69 C
2298 02-05-2020 23:25:00 6.9 C 92 % 5.69 C
2299 02-05-2020 23:30:00 6.9 C 92 % 5.69 C
2300 02-05-2020 23:35:00 6.9 C 92 % 5.69 C
Sensor: Nr:Datum:Temp:Feuchte:Taupunkt:
Aussen-T/F 2301 02-05-2020 23:40:00 6.9 C 92 % 5.69 C
2302 02-05-2020 23:45:00 6.8 C 92 % 5.59 C
2303 02-05-2020 23:50:00 6.8 C 92 % 5.59 C
2304 02-05-2020 23:55:00 6.7 C 92 % 5.49 C
2305 03-05-2020 00:00:00 6.7 C 92 % 5.49 C
2306 03-05-2020 00:05:00 6.6 C 92 % 5.4 C
2307 03-05-2020 00:10:00 6.6 C 92 % 5.4 C
2308 03-05-2020 00:15:00 6.5 C 92 % 5.3 C
2309 03-05-2020 00:20:00 6.4 C 93 % 5.35 C
2310 03-05-2020 00:25:00 6.4 C 93 % 5.35 C
2311 03-05-2020 00:30:00 6.4 C 93 % 5.35 C
2312 03-05-2020 00:35:00 6.3 C 93 % 5.25 C
2313 03-05-2020 00:40:00 6.2 C 93 % 5.15 C
2314 03-05-2020 00:45:00 6.2 C 93 % 5.15 C
2315 03-05-2020 00:50:00 6.1 C 93 % 5.06 C
2316 03-05-2020 00:55:00 6.1 C 93 % 5.06 C
2317 03-05-2020 01:00:00 6 C 93 % 4.96 C
2318 03-05-2020 01:05:00 5.9 C 93 % 4.86 C
2319 03-05-2020 01:10:00 5.8 C 93 % 4.76 C
2320 03-05-2020 01:15:00 5.8 C 93 % 4.76 C
2321 03-05-2020 01:20:00 5.7 C 93 % 4.66 C
2322 03-05-2020 01:25:00 5.7 C 93 % 4.66 C
2323 03-05-2020 01:30:00 5.6 C 93 % 4.56 C
2324 03-05-2020 01:35:00 5.5 C 93 % 4.46 C
2325 03-05-2020 01:40:00 5.4 C 93 % 4.36 C
Sensor: Nr:Datum:Temp:Feuchte:Taupunkt:
Aussen-T/F 2326 03-05-2020 01:45:00 5.3 C 94 % 4.41 C
2327 03-05-2020 01:50:00 5.3 C 94 % 4.41 C
2328 03-05-2020 01:55:00 5.3 C 94 % 4.41 C
2329 03-05-2020 02:00:00 5.3 C 94 % 4.41 C
2330 03-05-2020 02:05:00 5.3 C 94 % 4.41 C
2331 03-05-2020 02:10:00 5.3 C 94 % 4.41 C
2332 03-05-2020 02:15:00 5.4 C 94 % 4.51 C
2333 03-05-2020 02:20:00 5.4 C 94 % 4.51 C
2334 03-05-2020 02:25:00 5.4 C 94 % 4.51 C
2335 03-05-2020 02:30:00 5.3 C 94 % 4.41 C
2336 03-05-2020 02:35:00 5.3 C 94 % 4.41 C
2337 03-05-2020 02:40:00 5.2 C 94 % 4.32 C
2338 03-05-2020 02:45:00 5.2 C 94 % 4.32 C
2339 03-05-2020 02:50:00 5.1 C 94 % 4.22 C
2340 03-05-2020 02:55:00 5 C 94 % 4.12 C
2341 03-05-2020 03:00:00 4.9 C 94 % 4.02 C
2342 03-05-2020 03:05:00 4.9 C 94 % 4.02 C
2343 03-05-2020 03:10:00 4.8 C 94 % 3.92 C
2344 03-05-2020 03:15:00 4.8 C 94 % 3.92 C
2345 03-05-2020 03:20:00 4.8 C 95 % 4.07 C
2346 03-05-2020 03:25:00 4.8 C 95 % 4.07 C
2347 03-05-2020 03:30:00 4.8 C 95 % 4.07 C
2348 03-05-2020 03:35:00 4.8 C 95 % 4.07 C
2349 03-05-2020 03:40:00 4.8 C 95 % 4.07 C
2350 03-05-2020 03:45:00 4.8 C 95 % 4.07 C
Sensor: Nr:Datum:Temp:Feuchte:Taupunkt:
Aussen-T/F 2351 03-05-2020 03:50:00 4.8 C 95 % 4.07 C
2352 03-05-2020 03:55:00 4.8 C 95 % 4.07 C
2353 03-05-2020 04:00:00 4.8 C 95 % 4.07 C
2354 03-05-2020 04:05:00 4.8 C 95 % 4.07 C
2355 03-05-2020 04:10:00 4.7 C 95 % 3.97 C
2356 03-05-2020 04:15:00 4.6 C 95 % 3.87 C
2357 03-05-2020 04:20:00 4.4 C 95 % 3.67 C
2358 03-05-2020 04:25:00 4.3 C 95 % 3.57 C
2359 03-05-2020 04:30:00 4.1 C 95 % 3.37 C
2360 03-05-2020 04:35:00 4 C 94 % 3.12 C
2361 03-05-2020 04:40:00 3.9 C 95 % 3.17 C
2362 03-05-2020 04:45:00 3.8 C 94 % 2.93 C
2363 03-05-2020 04:50:00 3.7 C 95 % 2.98 C
2364 03-05-2020 04:55:00 3.7 C 95 % 2.98 C
2365 03-05-2020 05:00:00 3.7 C 95 % 2.98 C
2366 03-05-2020 05:05:00 3.6 C 95 % 2.88 C
2367 03-05-2020 05:10:00 3.6 C 95 % 2.88 C
2368 03-05-2020 05:15:00 3.6 C 95 % 2.88 C
2369 03-05-2020 05:20:00 3.5 C 95 % 2.78 C
2370 03-05-2020 05:25:00 3.4 C 95 % 2.68 C
2371 03-05-2020 05:30:00 3.4 C 95 % 2.68 C
2372 03-05-2020 05:35:00 3.4 C 95 % 2.68 C
2373 03-05-2020 05:40:00 3.4 C 95 % 2.68 C
2374 03-05-2020 05:45:00 3.5 C 95 % 2.78 C
2375 03-05-2020 05:50:00 3.6 C 96 % 3.02 C
Sensor: Nr:Datum:Temp:Feuchte:Taupunkt:
Aussen-T/F 2376 03-05-2020 05:55:00 3.7 C 96 % 3.12 C
2377 03-05-2020 06:00:00 3.8 C 96 % 3.22 C
2378 03-05-2020 06:05:00 3.9 C 96 % 3.32 C
2379 03-05-2020 06:10:00 3.9 C 96 % 3.32 C
2380 03-05-2020 06:15:00 4.1 C 96 % 3.52 C
2381 03-05-2020 06:20:00 4.2 C 96 % 3.62 C
2382 03-05-2020 06:25:00 4.2 C 96 % 3.62 C
2383 03-05-2020 06:30:00 4.3 C 96 % 3.72 C
2384 03-05-2020 06:35:00 4.4 C 96 % 3.82 C
2385 03-05-2020 06:40:00 4.4 C 96 % 3.82 C
2386 03-05-2020 06:45:00 4.4 C 96 % 3.82 C
2387 03-05-2020 06:50:00 4.5 C 96 % 3.92 C
2388 03-05-2020 06:55:00 4.5 C 96 % 3.92 C
2389 03-05-2020 07:00:00 4.5 C 96 % 3.92 C
2390 03-05-2020 07:05:00 4.5 C 96 % 3.92 C
2391 03-05-2020 07:10:00 4.4 C 96 % 3.82 C
2392 03-05-2020 07:15:00 4.5 C 96 % 3.92 C
2393 03-05-2020 07:20:00 4.4 C 96 % 3.82 C
2394 03-05-2020 07:25:00 4.4 C 96 % 3.82 C
2395 03-05-2020 07:30:00 4.4 C 96 % 3.82 C
2396 03-05-2020 07:35:00 4.5 C 96 % 3.92 C
2397 03-05-2020 07:40:00 4.6 C 96 % 4.02 C
2398 03-05-2020 07:45:00 4.6 C 96 % 4.02 C
2399 03-05-2020 07:50:00 4.6 C 96 % 4.02 C
2400 03-05-2020 07:55:00 4.6 C 96 % 4.02 C
Sensor: Nr:Datum:Temp:Feuchte:Taupunkt:
Aussen-T/F 2401 03-05-2020 08:00:00 4.7 C 96 % 4.12 C
2402 03-05-2020 08:05:00 4.7 C 96 % 4.12 C
2403 03-05-2020 08:10:00 4.7 C 96 % 4.12 C
2404 03-05-2020 08:15:00 4.7 C 96 % 4.12 C
2405 03-05-2020 08:20:00 4.8 C 96 % 4.22 C
2406 03-05-2020 08:25:00 4.8 C 96 % 4.22 C
2407 03-05-2020 08:30:00 4.9 C 96 % 4.32 C
2408 03-05-2020 08:35:00 5 C 96 % 4.42 C
2409 03-05-2020 08:40:00 5.1 C 97 % 4.66 C
2410 03-05-2020 08:45:00 5.2 C 97 % 4.76 C
2411 03-05-2020 08:50:00 5.3 C 97 % 4.86 C
2412 03-05-2020 08:55:00 5.4 C 97 % 4.96 C
2413 03-05-2020 09:00:00 5.6 C 97 % 5.16 C
2414 03-05-2020 09:05:00 5.7 C 97 % 5.26 C
2415 03-05-2020 09:10:00 5.7 C 97 % 5.26 C
2416 03-05-2020 09:15:00 5.8 C 97 % 5.36 C
2417 03-05-2020 09:20:00 6 C 97 % 5.56 C
2418 03-05-2020 09:25:00 6.1 C 97 % 5.66 C
2419 03-05-2020 09:30:00 6.3 C 97 % 5.86 C
2420 03-05-2020 09:35:00 6.3 C 97 % 5.86 C
2421 03-05-2020 09:40:00 6.4 C 97 % 5.96 C
2422 03-05-2020 09:45:00 6.7 C 97 % 6.26 C
2423 03-05-2020 09:50:00 6.9 C 97 % 6.46 C
2424 03-05-2020 09:55:00 7.1 C 97 % 6.66 C
2425 03-05-2020 10:00:00 7.3 C 97 % 6.86 C
Sensor: Nr:Datum:Temp:Feuchte:Taupunkt:
Aussen-T/F 2426 03-05-2020 10:05:00 7.5 C 97 % 7.06 C
2427 03-05-2020 10:10:00 7.6 C 97 % 7.16 C
2428 03-05-2020 10:15:00 7.8 C 97 % 7.35 C
2429 03-05-2020 10:20:00 8.1 C 97 % 7.65 C
2430 03-05-2020 10:25:00 8.3 C 96 % 7.7 C
2431 03-05-2020 10:30:00 8.6 C 96 % 8 C
2432 03-05-2020 10:35:00 8.8 C 95 % 8.04 C
2433 03-05-2020 10:40:00 9.1 C 94 % 8.19 C
2434 03-05-2020 10:45:00 9.6 C 93 % 8.53 C
2435 03-05-2020 10:50:00 9.9 C 93 % 8.82 C
2436 03-05-2020 10:55:00 10.2 C 91 % 8.8 C
2437 03-05-2020 11:00:00 10.6 C 90 % 9.03 C
2438 03-05-2020 11:05:00 10.9 C 87 % 8.82 C
2439 03-05-2020 11:10:00 11.2 C 85 % 8.77 C
2440 03-05-2020 11:15:00 11.5 C 83 % 8.72 C
2441 03-05-2020 11:20:00 11.7 C 82 % 8.73 C
2442 03-05-2020 11:25:00 12.1 C 83 % 9.3 C
2443 03-05-2020 11:30:00 12.5 C 80 % 9.15 C
2444 03-05-2020 11:35:00 12.8 C 76 % 8.68 C
2445 03-05-2020 11:40:00 13.1 C 74 % 8.58 C
2446 03-05-2020 11:45:00 13.2 C 69 % 7.64 C
2447 03-05-2020 11:50:00 13.4 C 69 % 7.84 C
2448 03-05-2020 11:55:00 13.6 C 65 % 7.15 C
2449 03-05-2020 12:00:00 13.7 C 65 % 7.25 C
2450 03-05-2020 12:05:00 13.8 C 63 % 6.89 C
Sensor: Nr:Datum:Temp:Feuchte:Taupunkt:
Aussen-T/F 2451 03-05-2020 12:10:00 13.9 C 63 % 6.98 C
2452 03-05-2020 12:15:00 14.1 C 62 % 6.94 C
2453 03-05-2020 12:20:00 14.2 C 61 % 6.8 C
2454 03-05-2020 12:25:00 14.3 C 58 % 6.16 C
2455 03-05-2020 12:30:00 14.3 C 59 % 6.41 C
2456 03-05-2020 12:35:00 14.3 C 58 % 6.16 C
2457 03-05-2020 12:40:00 14.4 C 60 % 6.74 C
2458 03-05-2020 12:45:00 14.5 C 54 % 5.31 C
2459 03-05-2020 12:50:00 14.6 C 54 % 5.41 C
2460 03-05-2020 12:55:00 14.7 C 51 % 4.68 C
2461 03-05-2020 13:00:00 14.8 C 53 % 5.32 C
2462 03-05-2020 13:05:00 15 C 53 % 5.51 C
2463 03-05-2020 13:10:00 15.2 C 54 % 5.96 C
2464 03-05-2020 13:15:00 15.2 C 54 % 5.96 C
2465 03-05-2020 13:20:00 15.3 C 52 % 5.51 C
2466 03-05-2020 13:25:00 15.4 C 47 % 4.16 C
2467 03-05-2020 13:30:00 15.4 C 48 % 4.46 C
2468 03-05-2020 13:35:00 15.5 C 50 % 5.13 C
2469 03-05-2020 13:40:00 15.7 C 47 % 4.43 C
2470 03-05-2020 13:45:00 15.8 C 49 % 5.12 C
2471 03-05-2020 13:50:00 15.8 C 50 % 5.41 C
2472 03-05-2020 13:55:00 15.8 C 49 % 5.12 C
2473 03-05-2020 14:00:00 15.8 C 49 % 5.12 C
2474 03-05-2020 14:05:00 15.9 C 51 % 5.79 C
2475 03-05-2020 14:10:00 16 C 47 % 4.71 C
Sensor: Nr:Datum:Temp:Feuchte:Taupunkt:
Aussen-T/F 2476 03-05-2020 14:15:00 16.1 C 49 % 5.39 C
2477 03-05-2020 14:20:00 16.2 C 45 % 4.27 C
2478 03-05-2020 14:25:00 16.2 C 47 % 4.89 C
2479 03-05-2020 14:30:00 16.2 C 47 % 4.89 C
2480 03-05-2020 14:35:00 16.2 C 46 % 4.58 C
2481 03-05-2020 14:40:00 16.3 C 48 % 5.28 C
2482 03-05-2020 14:45:00 16.4 C 48 % 5.37 C
2483 03-05-2020 14:50:00 16.7 C 46 % 5.04 C
2484 03-05-2020 14:55:00 16.8 C 50 % 6.33 C
2485 03-05-2020 15:00:00 17.1 C 48 % 6.01 C
2486 03-05-2020 15:05:00 17.2 C 46 % 5.49 C
2487 03-05-2020 15:10:00 17.3 C 46 % 5.58 C
2488 03-05-2020 15:15:00 17.4 C 47 % 5.98 C
2489 03-05-2020 15:20:00 17.3 C 46 % 5.58 C
2490 03-05-2020 15:25:00 17.3 C 48 % 6.2 C
2491 03-05-2020 15:30:00 17.3 C 50 % 6.79 C
2492 03-05-2020 15:35:00 17.3 C 46 % 5.58 C
2493 03-05-2020 15:40:00 17.4 C 44 % 5.03 C
2494 03-05-2020 15:45:00 17.6 C 44 % 5.22 C
2495 03-05-2020 15:50:00 17.8 C 44 % 5.4 C
2496 03-05-2020 15:55:00 17.7 C 44 % 5.31 C
2497 03-05-2020 16:00:00 17.7 C 48 % 6.56 C
2498 03-05-2020 16:05:00 17.6 C 46 % 5.86 C
2499 03-05-2020 16:10:00 17.4 C 47 % 5.98 C
2500 03-05-2020 16:15:00 17.3 C 45 % 5.27 C
Sensor: Nr:Datum:Temp:Feuchte:Taupunkt:
Aussen-T/F 2501 03-05-2020 16:20:00 17.3 C 46 % 5.58 C
2502 03-05-2020 16:25:00 17.3 C 49 % 6.5 C
2503 03-05-2020 16:30:00 17.3 C 49 % 6.5 C
2504 03-05-2020 16:35:00 17.3 C 49 % 6.5 C
2505 03-05-2020 16:40:00 17.3 C 48 % 6.2 C
2506 03-05-2020 16:45:00 17.3 C 48 % 6.2 C
2507 03-05-2020 16:50:00 17.4 C 49 % 6.59 C
2508 03-05-2020 16:55:00 17.4 C 49 % 6.59 C
2509 03-05-2020 17:00:00 17.3 C 50 % 6.79 C
2510 03-05-2020 17:05:00 17.3 C 48 % 6.2 C
2511 03-05-2020 17:10:00 17.2 C 49 % 6.4 C
2512 03-05-2020 17:15:00 17.2 C 47 % 5.8 C
2513 03-05-2020 17:20:00 17 C 49 % 6.22 C
2514 03-05-2020 17:25:00 16.8 C 48 % 5.74 C
2515 03-05-2020 17:30:00 16.7 C 52 % 6.81 C
2516 03-05-2020 17:35:00 16.8 C 54 % 7.45 C
2517 03-05-2020 17:40:00 16.9 C 50 % 6.42 C
2518 03-05-2020 17:45:00 16.9 C 48 % 5.83 C
2519 03-05-2020 17:50:00 16.8 C 48 % 5.74 C
2520 03-05-2020 17:55:00 16.8 C 49 % 6.04 C
2521 03-05-2020 18:00:00 16.7 C 50 % 6.24 C
2522 03-05-2020 18:05:00 16.6 C 49 % 5.85 C
2523 03-05-2020 18:10:00 16.6 C 53 % 6.99 C
2524 03-05-2020 18:15:00 16.6 C 51 % 6.43 C
2525 03-05-2020 18:20:00 16.6 C 55 % 7.53 C
Sensor: Nr:Datum:Temp:Feuchte:Taupunkt:
Aussen-T/F 2526 03-05-2020 18:25:00 16.6 C 56 % 7.8 C
2527 03-05-2020 18:30:00 16.6 C 53 % 6.99 C
2528 03-05-2020 18:35:00 16.5 C 50 % 6.05 C
2529 03-05-2020 18:40:00 16.6 C 58 % 8.31 C
2530 03-05-2020 18:45:00 16.7 C 56 % 7.89 C
2531 03-05-2020 18:50:00 16.7 C 55 % 7.62 C
2532 03-05-2020 18:55:00 16.7 C 56 % 7.89 C
2533 03-05-2020 19:00:00 16.6 C 52 % 6.71 C
2534 03-05-2020 19:05:00 16.5 C 61 % 8.96 C
2535 03-05-2020 19:10:00 16.4 C 64 % 9.58 C
2536 03-05-2020 19:15:00 16.1 C 60 % 8.34 C
2537 03-05-2020 19:20:00 16 C 62 % 8.73 C
2538 03-05-2020 19:25:00 15.8 C 61 % 8.3 C
2539 03-05-2020 19:30:00 15.8 C 67 % 9.69 C
2540 03-05-2020 19:35:00 15.7 C 66 % 9.37 C
2541 03-05-2020 19:40:00 15.6 C 69 % 9.94 C
2542 03-05-2020 19:45:00 15.4 C 70 % 9.96 C
2543 03-05-2020 19:50:00 15.2 C 71 % 9.98 C
2544 03-05-2020 19:55:00 15 C 71 % 9.79 C
2545 03-05-2020 20:00:00 14.8 C 73 % 10.01 C
2546 03-05-2020 20:05:00 14.6 C 72 % 9.61 C
2547 03-05-2020 20:10:00 14.3 C 72 % 9.33 C
2548 03-05-2020 20:15:00 14 C 72 % 9.04 C
2549 03-05-2020 20:20:00 13.7 C 73 % 8.95 C
2550 03-05-2020 20:25:00 13.4 C 74 % 8.87 C
Sensor: Nr:Datum:Temp:Feuchte:Taupunkt:
Aussen-T/F 2551 03-05-2020 20:30:00 13.2 C 73 % 8.47 C
2552 03-05-2020 20:35:00 13.1 C 75 % 8.77 C
2553 03-05-2020 20:40:00 12.9 C 75 % 8.58 C
2554 03-05-2020 20:45:00 12.7 C 75 % 8.39 C
2555 03-05-2020 20:50:00 12.6 C 75 % 8.29 C
2556 03-05-2020 20:55:00 12.5 C 76 % 8.39 C
2557 03-05-2020 21:00:00 12.3 C 76 % 8.2 C
2558 03-05-2020 21:05:00 12.3 C 77 % 8.39 C
2559 03-05-2020 21:10:00 12.2 C 76 % 8.1 C
2560 03-05-2020 21:15:00 12.2 C 77 % 8.29 C
2561 03-05-2020 21:20:00 12.1 C 77 % 8.2 C
2562 03-05-2020 21:25:00 12.1 C 77 % 8.2 C
2563 03-05-2020 21:30:00 12.1 C 79 % 8.57 C
2564 03-05-2020 21:35:00 12 C 79 % 8.48 C
2565 03-05-2020 21:40:00 11.9 C 78 % 8.19 C
2566 03-05-2020 21:45:00 11.9 C 79 % 8.38 C
2567 03-05-2020 21:50:00 12 C 81 % 8.84 C
2568 03-05-2020 21:55:00 11.9 C 80 % 8.56 C
2569 03-05-2020 22:00:00 11.9 C 80 % 8.56 C
2570 03-05-2020 22:05:00 11.9 C 80 % 8.56 C
2571 03-05-2020 22:10:00 11.8 C 80 % 8.47 C
2572 03-05-2020 22:15:00 11.8 C 79 % 8.28 C
2573 03-05-2020 22:20:00 11.8 C 80 % 8.47 C
2574 03-05-2020 22:25:00 11.8 C 80 % 8.47 C
2575 03-05-2020 22:30:00 11.8 C 81 % 8.65 C
Sensor: Nr:Datum:Temp:Feuchte:Taupunkt:
Aussen-T/F 2576 03-05-2020 22:35:00 11.7 C 80 % 8.37 C
2577 03-05-2020 22:40:00 11.7 C 80 % 8.37 C
2578 03-05-2020 22:45:00 11.6 C 79 % 8.09 C
2579 03-05-2020 22:50:00 11.6 C 79 % 8.09 C
2580 03-05-2020 22:55:00 11.6 C 79 % 8.09 C
2581 03-05-2020 23:00:00 11.6 C 80 % 8.27 C
2582 03-05-2020 23:05:00 11.6 C 81 % 8.45 C
2583 03-05-2020 23:10:00 11.6 C 82 % 8.64 C
2584 03-05-2020 23:15:00 11.5 C 81 % 8.36 C
2585 03-05-2020 23:20:00 11.5 C 81 % 8.36 C
2586 03-05-2020 23:25:00 11.4 C 80 % 8.08 C
2587 03-05-2020 23:30:00 11.4 C 80 % 8.08 C
2588 03-05-2020 23:35:00 11.4 C 80 % 8.08 C
2589 03-05-2020 23:40:00 11.4 C 80 % 8.08 C
2590 03-05-2020 23:45:00 11.4 C 79 % 7.89 C
2591 03-05-2020 23:50:00 11.4 C 80 % 8.08 C
2592 03-05-2020 23:55:00 11.4 C 80 % 8.08 C
2593 04-05-2020 00:00:00 11.4 C 78 % 7.71 C
2594 04-05-2020 00:05:00 11.4 C 80 % 8.08 C
2595 04-05-2020 00:10:00 11.4 C 80 % 8.08 C
2596 04-05-2020 00:15:00 11.4 C 81 % 8.26 C
2597 04-05-2020 00:20:00 11.4 C 81 % 8.26 C
2598 04-05-2020 00:25:00 11.3 C 82 % 8.34 C
2599 04-05-2020 00:30:00 11.3 C 82 % 8.34 C
2600 04-05-2020 00:35:00 11.3 C 82 % 8.34 C
Sensor: Nr:Datum:Temp:Feuchte:Taupunkt:
Aussen-T/F 2601 04-05-2020 00:40:00 11.3 C 82 % 8.34 C
2602 04-05-2020 00:45:00 11.2 C 83 % 8.42 C
2603 04-05-2020 00:50:00 11.2 C 83 % 8.42 C
2604 04-05-2020 00:55:00 11.2 C 82 % 8.25 C
2605 04-05-2020 01:00:00 11.2 C 83 % 8.42 C
2606 04-05-2020 01:05:00 11.2 C 82 % 8.25 C
2607 04-05-2020 01:10:00 11.1 C 82 % 8.15 C
2608 04-05-2020 01:15:00 11.1 C 82 % 8.15 C
2609 04-05-2020 01:20:00 11 C 82 % 8.05 C
2610 04-05-2020 01:25:00 11 C 82 % 8.05 C
2611 04-05-2020 01:30:00 10.9 C 82 % 7.95 C
2612 04-05-2020 01:35:00 11 C 81 % 7.87 C
2613 04-05-2020 01:40:00 11 C 81 % 7.87 C
2614 04-05-2020 01:45:00 11.1 C 80 % 7.79 C
2615 04-05-2020 01:50:00 11.1 C 80 % 7.79 C
2616 04-05-2020 01:55:00 11.2 C 81 % 8.06 C
2617 04-05-2020 02:00:00 11.2 C 82 % 8.25 C
2618 04-05-2020 02:05:00 11.2 C 83 % 8.42 C
2619 04-05-2020 02:10:00 11.2 C 83 % 8.42 C
2620 04-05-2020 02:15:00 11.1 C 83 % 8.33 C
2621 04-05-2020 02:20:00 11.1 C 83 % 8.33 C
2622 04-05-2020 02:25:00 11 C 82 % 8.05 C
2623 04-05-2020 02:30:00 11 C 83 % 8.23 C
2624 04-05-2020 02:35:00 11 C 84 % 8.4 C
2625 04-05-2020 02:40:00 10.9 C 83 % 8.13 C
Sensor: Nr:Datum:Temp:Feuchte:Taupunkt:
Aussen-T/F 2626 04-05-2020 02:45:00 10.9 C 84 % 8.31 C
2627 04-05-2020 02:50:00 10.9 C 84 % 8.31 C
2628 04-05-2020 02:55:00 10.8 C 83 % 8.03 C
2629 04-05-2020 03:00:00 10.7 C 82 % 7.76 C
2630 04-05-2020 03:05:00 10.5 C 83 % 7.74 C
2631 04-05-2020 03:10:00 10.4 C 84 % 7.82 C
2632 04-05-2020 03:15:00 10.3 C 84 % 7.72 C
2633 04-05-2020 03:20:00 10.2 C 84 % 7.62 C
2634 04-05-2020 03:25:00 10 C 84 % 7.43 C
2635 04-05-2020 03:30:00 9.9 C 84 % 7.33 C
2636 04-05-2020 03:35:00 9.8 C 85 % 7.4 C
2637 04-05-2020 03:40:00 9.7 C 84 % 7.13 C
2638 04-05-2020 03:45:00 9.6 C 84 % 7.03 C
2639 04-05-2020 03:50:00 9.5 C 85 % 7.11 C
2640 04-05-2020 03:55:00 9.4 C 84 % 6.84 C
2641 04-05-2020 04:00:00 9.3 C 85 % 6.91 C
2642 04-05-2020 04:05:00 9.3 C 86 % 7.08 C
2643 04-05-2020 04:10:00 9.3 C 86 % 7.08 C
2644 04-05-2020 04:15:00 9.2 C 86 % 6.98 C
2645 04-05-2020 04:20:00 9.2 C 87 % 7.15 C
2646 04-05-2020 04:25:00 9.2 C 87 % 7.15 C
2647 04-05-2020 04:30:00 9.2 C 87 % 7.15 C
2648 04-05-2020 04:35:00 9.2 C 88 % 7.32 C
2649 04-05-2020 04:40:00 9.3 C 88 % 7.42 C
2650 04-05-2020 04:45:00 9.3 C 88 % 7.42 C
Sensor: Nr:Datum:Temp:Feuchte:Taupunkt:
Aussen-T/F 2651 04-05-2020 04:50:00 9.4 C 88 % 7.52 C
2652 04-05-2020 04:55:00 9.5 C 89 % 7.78 C
2653 04-05-2020 05:00:00 9.5 C 88 % 7.61 C
2654 04-05-2020 05:05:00 9.6 C 88 % 7.71 C
2655 04-05-2020 05:10:00 9.6 C 89 % 7.88 C
2656 04-05-2020 05:15:00 9.7 C 88 % 7.81 C
2657 04-05-2020 05:20:00 9.7 C 88 % 7.81 C
2658 04-05-2020 05:25:00 9.7 C 88 % 7.81 C
2659 04-05-2020 05:30:00 9.8 C 88 % 7.91 C
2660 04-05-2020 05:35:00 9.8 C 88 % 7.91 C
2661 04-05-2020 05:40:00 9.8 C 88 % 7.91 C
2662 04-05-2020 05:45:00 9.8 C 88 % 7.91 C
2663 04-05-2020 05:50:00 9.8 C 88 % 7.91 C
2664 04-05-2020 05:55:00 9.8 C 88 % 7.91 C
2665 04-05-2020 06:00:00 9.8 C 89 % 8.08 C
2666 04-05-2020 06:05:00 9.8 C 88 % 7.91 C
2667 04-05-2020 06:10:00 9.8 C 89 % 8.08 C
2668 04-05-2020 06:15:00 9.9 C 89 % 8.17 C
2669 04-05-2020 06:20:00 9.9 C 89 % 8.17 C
2670 04-05-2020 06:25:00 9.9 C 89 % 8.17 C
2671 04-05-2020 06:30:00 9.9 C 89 % 8.17 C
2672 04-05-2020 06:35:00 9.9 C 89 % 8.17 C
2673 04-05-2020 06:40:00 9.9 C 89 % 8.17 C
2674 04-05-2020 06:45:00 9.9 C 89 % 8.17 C
2675 04-05-2020 06:50:00 9.9 C 89 % 8.17 C
Sensor: Nr:Datum:Temp:Feuchte:Taupunkt:
Aussen-T/F 2676 04-05-2020 06:55:00 9.9 C 90 % 8.34 C
2677 04-05-2020 07:00:00 9.9 C 90 % 8.34 C
2678 04-05-2020 07:05:00 9.9 C 90 % 8.34 C
2679 04-05-2020 07:10:00 10 C 90 % 8.44 C
2680 04-05-2020 07:15:00 10.1 C 90 % 8.54 C
2681 04-05-2020 07:20:00 10.1 C 90 % 8.54 C
2682 04-05-2020 07:25:00 10.2 C 91 % 8.8 C
2683 04-05-2020 07:30:00 10.3 C 91 % 8.9 C
2684 04-05-2020 07:35:00 10.7 C 89 % 8.96 C
2685 04-05-2020 07:40:00 10.9 C 88 % 8.99 C
2686 04-05-2020 07:45:00 11.1 C 87 % 9.02 C
2687 04-05-2020 07:50:00 11.3 C 86 % 9.05 C
2688 04-05-2020 07:55:00 11.4 C 87 % 9.32 C
2689 04-05-2020 08:00:00 11.5 C 87 % 9.41 C
2690 04-05-2020 08:05:00 11.6 C 88 % 9.68 C
2691 04-05-2020 08:10:00 11.6 C 88 % 9.68 C
2692 04-05-2020 08:15:00 11.6 C 89 % 9.85 C
2693 04-05-2020 08:20:00 11.5 C 90 % 9.92 C
2694 04-05-2020 08:25:00 11.5 C 90 % 9.92 C
2695 04-05-2020 08:30:00 11.5 C 91 % 10.08 C
2696 04-05-2020 08:35:00 11.6 C 92 % 10.35 C
2697 04-05-2020 08:40:00 11.6 C 92 % 10.35 C
2698 04-05-2020 08:45:00 11.7 C 92 % 10.44 C
2699 04-05-2020 08:50:00 11.7 C 92 % 10.44 C
2700 04-05-2020 08:55:00 11.7 C 92 % 10.44 C
Sensor: Nr:Datum:Temp:Feuchte:Taupunkt:
Aussen-T/F 2701 04-05-2020 09:00:00 11.7 C 92 % 10.44 C
2702 04-05-2020 09:05:00 11.6 C 92 % 10.35 C
2703 04-05-2020 09:10:00 11.7 C 92 % 10.44 C
2704 04-05-2020 09:15:00 11.7 C 93 % 10.61 C
2705 04-05-2020 09:20:00 11.8 C 93 % 10.71 C
2706 04-05-2020 09:25:00 11.8 C 93 % 10.71 C
2707 04-05-2020 09:30:00 11.9 C 93 % 10.81 C
2708 04-05-2020 09:35:00 11.9 C 93 % 10.81 C
2709 04-05-2020 09:40:00 12 C 93 % 10.9 C
2710 04-05-2020 09:45:00 12 C 93 % 10.9 C
2711 04-05-2020 09:50:00 12.1 C 93 % 11 C
2712 04-05-2020 09:55:00 12.2 C 93 % 11.1 C
2713 04-05-2020 10:00:00 12.4 C 92 % 11.14 C
2714 04-05-2020 10:05:00 12.6 C 92 % 11.34 C
2715 04-05-2020 10:10:00 12.7 C 92 % 11.43 C
2716 04-05-2020 10:15:00 12.9 C 91 % 11.47 C
2717 04-05-2020 10:20:00 12.9 C 90 % 11.3 C
2718 04-05-2020 10:25:00 13.1 C 90 % 11.5 C
2719 04-05-2020 10:30:00 13.3 C 91 % 11.86 C
2720 04-05-2020 10:35:00 13.5 C 89 % 11.72 C
2721 04-05-2020 10:40:00 13.7 C 89 % 11.92 C
2722 04-05-2020 10:45:00 13.7 C 89 % 11.92 C
2723 04-05-2020 10:50:00 13.8 C 88 % 11.85 C
2724 04-05-2020 10:55:00 13.9 C 89 % 12.12 C
2725 04-05-2020 11:00:00 13.9 C 88 % 11.95 C
Sensor: Nr:Datum:Temp:Feuchte:Taupunkt:
Aussen-T/F 2726 04-05-2020 11:05:00 13.8 C 88 % 11.85 C
2727 04-05-2020 11:10:00 13.8 C 89 % 12.02 C
2728 04-05-2020 11:15:00 13.7 C 89 % 11.92 C
2729 04-05-2020 11:20:00 13.6 C 89 % 11.82 C
2730 04-05-2020 11:25:00 13.4 C 90 % 11.79 C
2731 04-05-2020 11:30:00 13.2 C 89 % 11.43 C
2732 04-05-2020 11:35:00 12.9 C 90 % 11.3 C
2733 04-05-2020 11:40:00 12.8 C 90 % 11.2 C
2734 04-05-2020 11:45:00 12.7 C 91 % 11.27 C
2735 04-05-2020 11:50:00 12.6 C 91 % 11.17 C
2736 04-05-2020 11:55:00 12.4 C 91 % 10.97 C
2737 04-05-2020 12:00:00 12.3 C 92 % 11.04 C
2738 04-05-2020 12:05:00 12.3 C 92 % 11.04 C
2739 04-05-2020 12:10:00 12.3 C 92 % 11.04 C
2740 04-05-2020 12:15:00 12.3 C 92 % 11.04 C
2741 04-05-2020 12:20:00 12.4 C 92 % 11.14 C
2742 04-05-2020 12:25:00 12.6 C 93 % 11.5 C
2743 04-05-2020 12:30:00 12.8 C 93 % 11.7 C
2744 04-05-2020 12:35:00 12.9 C 92 % 11.63 C
2745 04-05-2020 12:40:00 12.9 C 91 % 11.47 C
2746 04-05-2020 12:45:00 13 C 91 % 11.57 C
2747 04-05-2020 12:50:00 12.9 C 91 % 11.47 C
2748 04-05-2020 12:55:00 13.1 C 91 % 11.67 C
2749 04-05-2020 13:00:00 13.3 C 92 % 12.03 C
2750 04-05-2020 13:05:00 13.4 C 91 % 11.96 C
Sensor: Nr:Datum:Temp:Feuchte:Taupunkt:
Aussen-T/F 2751 04-05-2020 13:10:00 13.4 C 89 % 11.63 C
2752 04-05-2020 13:15:00 13.4 C 88 % 11.45 C
2753 04-05-2020 13:20:00 13.7 C 88 % 11.75 C
2754 04-05-2020 13:25:00 13.9 C 85 % 11.42 C
2755 04-05-2020 13:30:00 14.1 C 84 % 11.44 C
2756 04-05-2020 13:35:00 14.3 C 84 % 11.64 C
2757 04-05-2020 13:40:00 14.6 C 84 % 11.93 C
2758 04-05-2020 13:45:00 14.7 C 82 % 11.66 C
2759 04-05-2020 13:50:00 14.7 C 81 % 11.48 C
2760 04-05-2020 13:55:00 14.6 C 82 % 11.56 C
2761 04-05-2020 14:00:00 14.6 C 83 % 11.75 C
2762 04-05-2020 14:05:00 14.5 C 81 % 11.28 C
2763 04-05-2020 14:10:00 14.5 C 81 % 11.28 C
2764 04-05-2020 14:15:00 14.6 C 82 % 11.56 C
2765 04-05-2020 14:20:00 14.8 C 82 % 11.76 C
2766 04-05-2020 14:25:00 14.9 C 81 % 11.67 C
2767 04-05-2020 14:30:00 15 C 81 % 11.77 C
2768 04-05-2020 14:35:00 15.1 C 81 % 11.87 C
2769 04-05-2020 14:40:00 14.9 C 80 % 11.48 C
2770 04-05-2020 14:45:00 14.7 C 79 % 11.1 C
2771 04-05-2020 14:50:00 14.6 C 80 % 11.19 C
2772 04-05-2020 14:55:00 14.5 C 81 % 11.28 C
2773 04-05-2020 15:00:00 14.4 C 81 % 11.18 C
2774 04-05-2020 15:05:00 14.3 C 82 % 11.27 C
2775 04-05-2020 15:10:00 14.3 C 82 % 11.27 C
Sensor: Nr:Datum:Temp:Feuchte:Taupunkt:
Aussen-T/F 2776 04-05-2020 15:15:00 14.3 C 82 % 11.27 C
2777 04-05-2020 15:20:00 14.3 C 82 % 11.27 C
2778 04-05-2020 15:25:00 14.4 C 80 % 11 C
2779 04-05-2020 15:30:00 14.3 C 79 % 10.71 C
2780 04-05-2020 15:35:00 14.2 C 79 % 10.61 C
2781 04-05-2020 15:40:00 14.2 C 79 % 10.61 C
2782 04-05-2020 15:45:00 14.3 C 78 % 10.52 C
2783 04-05-2020 15:50:00 14.4 C 78 % 10.62 C
2784 04-05-2020 15:55:00 14.6 C 78 % 10.81 C
2785 04-05-2020 16:00:00 14.7 C 78 % 10.91 C
2786 04-05-2020 16:05:00 14.7 C 75 % 10.32 C
2787 04-05-2020 16:10:00 14.7 C 74 % 10.12 C
2788 04-05-2020 16:15:00 14.8 C 75 % 10.42 C
2789 04-05-2020 16:20:00 14.8 C 74 % 10.22 C
2790 04-05-2020 16:25:00 14.7 C 74 % 10.12 C
2791 04-05-2020 16:30:00 14.4 C 72 % 9.42 C
2792 04-05-2020 16:35:00 14.3 C 73 % 9.53 C
2793 04-05-2020 16:40:00 14.4 C 75 % 10.03 C
2794 04-05-2020 16:45:00 14.4 C 74 % 9.83 C
2795 04-05-2020 16:50:00 14.6 C 73 % 9.82 C
2796 04-05-2020 16:55:00 14.6 C 73 % 9.82 C
2797 04-05-2020 17:00:00 14.5 C 72 % 9.52 C
2798 04-05-2020 17:05:00 14.4 C 73 % 9.63 C
2799 04-05-2020 17:10:00 14.4 C 72 % 9.42 C
2800 04-05-2020 17:15:00 14.3 C 73 % 9.53 C
Sensor: Nr:Datum:Temp:Feuchte:Taupunkt:
Aussen-T/F 2801 04-05-2020 17:20:00 14.3 C 74 % 9.73 C
2802 04-05-2020 17:25:00 14.3 C 73 % 9.53 C
2803 04-05-2020 17:30:00 14.3 C 72 % 9.33 C
2804 04-05-2020 17:35:00 14.3 C 73 % 9.53 C
2805 04-05-2020 17:40:00 14.2 C 70 % 8.81 C
2806 04-05-2020 17:45:00 14.2 C 71 % 9.02 C
2807 04-05-2020 17:50:00 14.2 C 72 % 9.23 C
2808 04-05-2020 17:55:00 14.2 C 71 % 9.02 C
2809 04-05-2020 18:00:00 14.2 C 70 % 8.81 C
2810 04-05-2020 18:05:00 14.3 C 70 % 8.91 C
2811 04-05-2020 18:10:00 14.3 C 70 % 8.91 C
2812 04-05-2020 18:15:00 14.3 C 70 % 8.91 C
2813 04-05-2020 18:20:00 14.2 C 69 % 8.6 C
2814 04-05-2020 18:25:00 14.1 C 71 % 8.93 C
2815 04-05-2020 18:30:00 14 C 70 % 8.62 C
2816 04-05-2020 18:35:00 14 C 74 % 9.44 C
2817 04-05-2020 18:40:00 13.9 C 71 % 8.73 C
2818 04-05-2020 18:45:00 13.8 C 70 % 8.43 C
2819 04-05-2020 18:50:00 13.8 C 70 % 8.43 C
2820 04-05-2020 18:55:00 13.8 C 70 % 8.43 C
2821 04-05-2020 19:00:00 13.8 C 70 % 8.43 C
2822 04-05-2020 19:05:00 13.8 C 76 % 9.65 C
2823 04-05-2020 19:10:00 13.8 C 75 % 9.45 C
2824 04-05-2020 19:15:00 13.7 C 76 % 9.55 C
2825 04-05-2020 19:20:00 13.6 C 76 % 9.45 C
Sensor: Nr:Datum:Temp:Feuchte:Taupunkt:
Aussen-T/F 2826 04-05-2020 19:25:00 13.4 C 74 % 8.87 C
2827 04-05-2020 19:30:00 13.3 C 76 % 9.16 C
2828 04-05-2020 19:35:00 13.3 C 80 % 9.93 C
2829 04-05-2020 19:40:00 13.3 C 81 % 10.11 C
2830 04-05-2020 19:45:00 13.2 C 80 % 9.83 C
2831 04-05-2020 19:50:00 13.1 C 82 % 10.1 C
2832 04-05-2020 19:55:00 13.1 C 83 % 10.28 C
2833 04-05-2020 20:00:00 13.1 C 82 % 10.1 C
2834 04-05-2020 20:05:00 13 C 82 % 10 C
2835 04-05-2020 20:10:00 13 C 82 % 10 C
2836 04-05-2020 20:15:00 12.9 C 83 % 10.09 C
2837 04-05-2020 20:20:00 12.9 C 84 % 10.26 C
2838 04-05-2020 20:25:00 12.8 C 84 % 10.17 C
2839 04-05-2020 20:30:00 12.6 C 83 % 9.79 C
2840 04-05-2020 20:35:00 12.4 C 83 % 9.6 C
2841 04-05-2020 20:40:00 12.2 C 79 % 8.67 C
2842 04-05-2020 20:45:00 12.2 C 79 % 8.67 C
2843 04-05-2020 20:50:00 12.2 C 81 % 9.04 C
2844 04-05-2020 20:55:00 12.1 C 81 % 8.94 C
2845 04-05-2020 21:00:00 11.9 C 80 % 8.56 C
2846 04-05-2020 21:05:00 11.7 C 80 % 8.37 C
2847 04-05-2020 21:10:00 11.4 C 80 % 8.08 C
2848 04-05-2020 21:15:00 11.1 C 79 % 7.6 C
2849 04-05-2020 21:20:00 10.8 C 79 % 7.31 C
2850 04-05-2020 21:25:00 10.6 C 79 % 7.11 C
Sensor: Nr:Datum:Temp:Feuchte:Taupunkt:
Aussen-T/F 2851 04-05-2020 21:30:00 10.3 C 79 % 6.82 C
2852 04-05-2020 21:35:00 10.1 C 80 % 6.81 C
2853 04-05-2020 21:40:00 9.9 C 79 % 6.43 C
2854 04-05-2020 21:45:00 9.7 C 81 % 6.6 C
2855 04-05-2020 21:50:00 9.6 C 81 % 6.5 C
2856 04-05-2020 21:55:00 9.4 C 81 % 6.31 C
2857 04-05-2020 22:00:00 9.2 C 81 % 6.11 C
2858 04-05-2020 22:05:00 9.1 C 81 % 6.02 C
2859 04-05-2020 22:10:00 9 C 81 % 5.92 C
2860 04-05-2020 22:15:00 8.9 C 82 % 6 C
2861 04-05-2020 22:20:00 8.8 C 82 % 5.9 C
2862 04-05-2020 22:25:00 8.6 C 83 % 5.88 C
2863 04-05-2020 22:30:00 8.5 C 84 % 5.96 C
2864 04-05-2020 22:35:00 8.3 C 85 % 5.93 C
2865 04-05-2020 22:40:00 8.2 C 85 % 5.83 C
2866 04-05-2020 22:45:00 8.1 C 86 % 5.9 C
2867 04-05-2020 22:50:00 8 C 86 % 5.81 C
2868 04-05-2020 22:55:00 7.9 C 87 % 5.87 C
2869 04-05-2020 23:00:00 7.8 C 87 % 5.78 C
2870 04-05-2020 23:05:00 7.6 C 87 % 5.58 C
2871 04-05-2020 23:10:00 7.6 C 87 % 5.58 C
2872 04-05-2020 23:15:00 7.4 C 87 % 5.38 C
2873 04-05-2020 23:20:00 7.3 C 87 % 5.28 C
2874 04-05-2020 23:25:00 7.2 C 87 % 5.19 C
2875 04-05-2020 23:30:00 7.2 C 87 % 5.19 C
Sensor: Nr:Datum:Temp:Feuchte:Taupunkt:
Aussen-T/F 2876 04-05-2020 23:35:00 7.1 C 87 % 5.09 C
2877 04-05-2020 23:40:00 7.1 C 87 % 5.09 C
2878 04-05-2020 23:45:00 7 C 87 % 4.99 C
2879 04-05-2020 23:50:00 6.9 C 88 % 5.05 C
2880 04-05-2020 23:55:00 6.9 C 88 % 5.05 C
2881 05-05-2020 00:00:00 6.8 C 88 % 4.96 C
2882 05-05-2020 00:05:00 6.7 C 88 % 4.86 C
2883 05-05-2020 00:10:00 6.7 C 88 % 4.86 C
2884 05-05-2020 00:15:00 6.6 C 88 % 4.76 C
2885 05-05-2020 00:20:00 6.5 C 89 % 4.82 C
2886 05-05-2020 00:25:00 6.4 C 89 % 4.72 C
2887 05-05-2020 00:30:00 6.4 C 89 % 4.72 C
2888 05-05-2020 00:35:00 6.3 C 90 % 4.78 C
2889 05-05-2020 00:40:00 6.2 C 90 % 4.69 C
2890 05-05-2020 00:45:00 6.2 C 90 % 4.69 C
2891 05-05-2020 00:50:00 6.1 C 90 % 4.59 C
2892 05-05-2020 00:55:00 6 C 91 % 4.65 C
2893 05-05-2020 01:00:00 6 C 91 % 4.65 C
2894 05-05-2020 01:05:00 5.9 C 91 % 4.55 C
2895 05-05-2020 01:10:00 5.8 C 91 % 4.45 C
2896 05-05-2020 01:15:00 5.8 C 91 % 4.45 C
2897 05-05-2020 01:20:00 5.7 C 91 % 4.35 C
2898 05-05-2020 01:25:00 5.7 C 91 % 4.35 C
2899 05-05-2020 01:30:00 5.7 C 91 % 4.35 C
2900 05-05-2020 01:35:00 5.6 C 91 % 4.25 C
Sensor: Nr:Datum:Temp:Feuchte:Taupunkt:
Aussen-T/F 2901 05-05-2020 01:40:00 5.5 C 91 % 4.15 C
2902 05-05-2020 01:45:00 5.3 C 92 % 4.11 C
2903 05-05-2020 01:50:00 5.3 C 91 % 3.95 C
2904 05-05-2020 01:55:00 5.2 C 92 % 4.01 C
2905 05-05-2020 02:00:00 5.1 C 92 % 3.91 C
2906 05-05-2020 02:05:00 5.1 C 92 % 3.91 C
2907 05-05-2020 02:10:00 5 C 92 % 3.81 C
2908 05-05-2020 02:15:00 4.9 C 93 % 3.87 C
2909 05-05-2020 02:20:00 4.9 C 93 % 3.87 C
2910 05-05-2020 02:25:00 4.9 C 93 % 3.87 C
2911 05-05-2020 02:30:00 4.9 C 93 % 3.87 C
2912 05-05-2020 02:35:00 4.9 C 93 % 3.87 C
2913 05-05-2020 02:40:00 4.8 C 93 % 3.77 C
2914 05-05-2020 02:45:00 4.8 C 93 % 3.77 C
2915 05-05-2020 02:50:00 4.8 C 93 % 3.77 C
2916 05-05-2020 02:55:00 4.7 C 93 % 3.67 C
2917 05-05-2020 03:00:00 4.7 C 93 % 3.67 C
2918 05-05-2020 03:05:00 4.7 C 94 % 3.82 C
2919 05-05-2020 03:10:00 4.8 C 94 % 3.92 C
2920 05-05-2020 03:15:00 4.8 C 94 % 3.92 C
2921 05-05-2020 03:20:00 4.8 C 94 % 3.92 C
2922 05-05-2020 03:25:00 4.8 C 94 % 3.92 C
2923 05-05-2020 03:30:00 4.9 C 94 % 4.02 C
2924 05-05-2020 03:35:00 4.9 C 94 % 4.02 C
2925 05-05-2020 03:40:00 4.9 C 94 % 4.02 C
Sensor: Nr:Datum:Temp:Feuchte:Taupunkt:
Aussen-T/F 2926 05-05-2020 03:45:00 4.9 C 94 % 4.02 C
2927 05-05-2020 03:50:00 4.8 C 94 % 3.92 C
2928 05-05-2020 03:55:00 4.8 C 94 % 3.92 C
2929 05-05-2020 04:00:00 4.8 C 94 % 3.92 C
2930 05-05-2020 04:05:00 4.8 C 94 % 3.92 C
2931 05-05-2020 04:10:00 4.7 C 94 % 3.82 C
2932 05-05-2020 04:15:00 4.7 C 94 % 3.82 C
2933 05-05-2020 04:20:00 4.6 C 94 % 3.72 C
2934 05-05-2020 04:25:00 4.6 C 94 % 3.72 C
2935 05-05-2020 04:30:00 4.4 C 94 % 3.52 C
2936 05-05-2020 04:35:00 4.4 C 94 % 3.52 C
2937 05-05-2020 04:40:00 4.3 C 94 % 3.42 C
2938 05-05-2020 04:45:00 4.3 C 94 % 3.42 C
2939 05-05-2020 04:50:00 4.3 C 95 % 3.57 C
2940 05-05-2020 04:55:00 4.3 C 95 % 3.57 C
2941 05-05-2020 05:00:00 4.3 C 95 % 3.57 C
2942 05-05-2020 05:05:00 4.2 C 95 % 3.47 C
2943 05-05-2020 05:10:00 4.2 C 95 % 3.47 C
2944 05-05-2020 05:15:00 4.3 C 95 % 3.57 C
2945 05-05-2020 05:20:00 4.3 C 95 % 3.57 C
2946 05-05-2020 05:25:00 4.3 C 95 % 3.57 C
2947 05-05-2020 05:30:00 4.3 C 95 % 3.57 C
2948 05-05-2020 05:35:00 4.2 C 95 % 3.47 C
2949 05-05-2020 05:40:00 4.2 C 95 % 3.47 C
2950 05-05-2020 05:45:00 4.2 C 95 % 3.47 C
Sensor: Nr:Datum:Temp:Feuchte:Taupunkt:
Aussen-T/F 2951 05-05-2020 05:50:00 4.1 C 95 % 3.37 C
2952 05-05-2020 05:55:00 4.2 C 95 % 3.47 C
2953 05-05-2020 06:00:00 4.2 C 95 % 3.47 C
2954 05-05-2020 06:05:00 4.2 C 95 % 3.47 C
2955 05-05-2020 06:10:00 4.2 C 95 % 3.47 C
2956 05-05-2020 06:15:00 4.2 C 95 % 3.47 C
2957 05-05-2020 06:20:00 4.2 C 95 % 3.47 C
2958 05-05-2020 06:25:00 4.3 C 95 % 3.57 C
2959 05-05-2020 06:30:00 4.4 C 95 % 3.67 C
2960 05-05-2020 06:35:00 4.4 C 95 % 3.67 C
2961 05-05-2020 06:40:00 4.5 C 96 % 3.92 C
2962 05-05-2020 06:45:00 4.6 C 96 % 4.02 C
2963 05-05-2020 06:50:00 4.7 C 96 % 4.12 C
2964 05-05-2020 06:55:00 4.8 C 96 % 4.22 C
2965 05-05-2020 07:00:00 4.8 C 96 % 4.22 C
2966 05-05-2020 07:05:00 4.9 C 96 % 4.32 C
2967 05-05-2020 07:10:00 5 C 96 % 4.42 C
2968 05-05-2020 07:15:00 5.2 C 96 % 4.62 C
2969 05-05-2020 07:20:00 5.2 C 96 % 4.62 C
2970 05-05-2020 07:25:00 5.3 C 96 % 4.72 C
2971 05-05-2020 07:30:00 5.4 C 96 % 4.81 C
2972 05-05-2020 07:35:00 5.5 C 96 % 4.91 C
2973 05-05-2020 07:40:00 5.7 C 96 % 5.11 C
2974 05-05-2020 07:45:00 5.7 C 96 % 5.11 C
2975 05-05-2020 07:50:00 5.9 C 96 % 5.31 C
Sensor: Nr:Datum:Temp:Feuchte:Taupunkt:
Aussen-T/F 2976 05-05-2020 07:55:00 6 C 96 % 5.41 C
2977 05-05-2020 08:00:00 6.1 C 96 % 5.51 C
2978 05-05-2020 08:05:00 6.2 C 96 % 5.61 C
2979 05-05-2020 08:10:00 6.2 C 96 % 5.61 C
2980 05-05-2020 08:15:00 6.3 C 96 % 5.71 C
2981 05-05-2020 08:20:00 6.5 C 96 % 5.91 C
2982 05-05-2020 08:25:00 6.6 C 96 % 6.01 C
2983 05-05-2020 08:30:00 6.7 C 96 % 6.11 C
2984 05-05-2020 08:35:00 6.7 C 96 % 6.11 C
2985 05-05-2020 08:40:00 6.7 C 95 % 5.96 C
2986 05-05-2020 08:45:00 6.7 C 95 % 5.96 C
2987 05-05-2020 08:50:00 6.8 C 95 % 6.06 C
2988 05-05-2020 08:55:00 7 C 95 % 6.26 C
2989 05-05-2020 09:00:00 7.1 C 94 % 6.2 C
2990 05-05-2020 09:05:00 7.2 C 93 % 6.15 C
2991 05-05-2020 09:10:00 7.4 C 92 % 6.19 C
2992 05-05-2020 09:15:00 7.6 C 90 % 6.07 C
2993 05-05-2020 09:20:00 7.7 C 89 % 6 C
2994 05-05-2020 09:25:00 7.9 C 88 % 6.04 C
2995 05-05-2020 09:30:00 8 C 88 % 6.14 C
2996 05-05-2020 09:35:00 8.2 C 87 % 6.17 C
2997 05-05-2020 09:40:00 8.2 C 86 % 6 C
2998 05-05-2020 09:45:00 8.3 C 86 % 6.1 C
2999 05-05-2020 09:50:00 8.6 C 85 % 6.23 C
3000 05-05-2020 09:55:00 8.7 C 84 % 6.15 C
Sensor: Nr:Datum:Temp:Feuchte:Taupunkt:
Aussen-T/F 3001 05-05-2020 10:00:00 8.9 C 83 % 6.17 C
3002 05-05-2020 10:05:00 8.9 C 81 % 5.82 C
3003 05-05-2020 10:10:00 9.1 C 80 % 5.84 C
3004 05-05-2020 10:15:00 9.2 C 80 % 5.94 C
3005 05-05-2020 10:20:00 9.4 C 78 % 5.76 C
3006 05-05-2020 10:25:00 9.6 C 77 % 5.77 C
3007 05-05-2020 10:30:00 9.8 C 75 % 5.59 C
3008 05-05-2020 10:35:00 10 C 76 % 5.97 C
3009 05-05-2020 10:40:00 10.1 C 73 % 5.49 C
3010 05-05-2020 10:45:00 10.2 C 73 % 5.58 C
3011 05-05-2020 10:50:00 10.3 C 74 % 5.88 C
3012 05-05-2020 10:55:00 10.6 C 72 % 5.77 C
3013 05-05-2020 11:00:00 10.9 C 70 % 5.65 C
3014 05-05-2020 11:05:00 11.2 C 68 % 5.52 C
3015 05-05-2020 11:10:00 11.4 C 67 % 5.5 C
3016 05-05-2020 11:15:00 11.6 C 66 % 5.47 C
3017 05-05-2020 11:20:00 11.7 C 68 % 6 C
3018 05-05-2020 11:25:00 11.9 C 66 % 5.76 C
3019 05-05-2020 11:30:00 12.1 C 65 % 5.73 C
3020 05-05-2020 11:35:00 12.1 C 66 % 5.95 C
3021 05-05-2020 11:40:00 12.2 C 67 % 6.26 C
3022 05-05-2020 11:45:00 12.3 C 66 % 6.14 C
3023 05-05-2020 11:50:00 12.4 C 65 % 6.01 C
3024 05-05-2020 11:55:00 12.5 C 65 % 6.11 C
3025 05-05-2020 12:00:00 12.6 C 63 % 5.75 C
Sensor: Nr:Datum:Temp:Feuchte:Taupunkt:
Aussen-T/F 3026 05-05-2020 12:05:00 12.7 C 65 % 6.3 C
3027 05-05-2020 12:10:00 12.7 C 64 % 6.07 C
3028 05-05-2020 12:15:00 12.8 C 63 % 5.94 C
3029 05-05-2020 12:20:00 13 C 63 % 6.13 C
3030 05-05-2020 12:25:00 13.1 C 62 % 5.99 C
3031 05-05-2020 12:30:00 13 C 62 % 5.9 C
3032 05-05-2020 12:35:00 12.8 C 63 % 5.94 C
3033 05-05-2020 12:40:00 12.8 C 64 % 6.17 C
3034 05-05-2020 12:45:00 12.8 C 63 % 5.94 C
3035 05-05-2020 12:50:00 12.8 C 64 % 6.17 C
3036 05-05-2020 12:55:00 12.8 C 64 % 6.17 C
3037 05-05-2020 13:00:00 12.9 C 61 % 5.57 C
3038 05-05-2020 13:05:00 12.9 C 60 % 5.33 C
3039 05-05-2020 13:10:00 12.9 C 62 % 5.8 C
3040 05-05-2020 13:15:00 13.1 C 62 % 5.99 C
3041 05-05-2020 13:20:00 13.1 C 60 % 5.52 C
3042 05-05-2020 13:25:00 13.2 C 60 % 5.61 C
3043 05-05-2020 13:30:00 13.3 C 61 % 5.95 C
3044 05-05-2020 13:35:00 13.5 C 59 % 5.65 C
3045 05-05-2020 13:40:00 13.6 C 61 % 6.23 C
3046 05-05-2020 13:45:00 13.8 C 58 % 5.69 C
3047 05-05-2020 13:50:00 13.9 C 58 % 5.78 C
3048 05-05-2020 13:55:00 14.1 C 59 % 6.22 C
3049 05-05-2020 14:00:00 14.1 C 57 % 5.72 C
3050 05-05-2020 14:05:00 14 C 59 % 6.12 C
Sensor: Nr:Datum:Temp:Feuchte:Taupunkt:
Aussen-T/F 3051 05-05-2020 14:10:00 13.8 C 56 % 5.19 C
3052 05-05-2020 14:15:00 13.7 C 55 % 4.83 C
3053 05-05-2020 14:20:00 13.7 C 54 % 4.57 C
3054 05-05-2020 14:25:00 13.8 C 54 % 4.66 C
3055 05-05-2020 14:30:00 14.1 C 55 % 5.21 C
3056 05-05-2020 14:35:00 14.1 C 52 % 4.4 C
3057 05-05-2020 14:40:00 14.2 C 53 % 4.77 C
3058 05-05-2020 14:45:00 14.2 C 53 % 4.77 C
3059 05-05-2020 14:50:00 14.6 C 50 % 4.31 C
3060 05-05-2020 14:55:00 14.8 C 45 % 3 C
3061 05-05-2020 15:00:00 15.2 C 46 % 3.67 C
3062 05-05-2020 15:05:00 15.5 C 47 % 4.25 C
3063 05-05-2020 15:10:00 15.8 C 46 % 4.22 C
3064 05-05-2020 15:15:00 15.9 C 42 % 3.02 C
3065 05-05-2020 15:20:00 15.8 C 44 % 3.59 C
3066 05-05-2020 15:25:00 16.1 C 44 % 3.86 C
3067 05-05-2020 15:30:00 16.3 C 41 % 3.04 C
3068 05-05-2020 15:35:00 16.6 C 40 % 2.96 C
3069 05-05-2020 15:40:00 16.7 C 39 % 2.69 C
3070 05-05-2020 15:45:00 16.5 C 38 % 2.15 C
3071 05-05-2020 15:50:00 16.6 C 39 % 2.6 C
3072 05-05-2020 15:55:00 16.8 C 41 % 3.49 C
3073 05-05-2020 16:00:00 17.1 C 39 % 3.05 C
3074 05-05-2020 16:05:00 17.4 C 44 % 5.03 C
3075 05-05-2020 16:10:00 17.8 C 36 % 2.55 C
Sensor: Nr:Datum:Temp:Feuchte:Taupunkt:
Aussen-T/F 3076 05-05-2020 16:15:00 17.5 C 36 % 2.28 C
3077 05-05-2020 16:20:00 17.4 C 36 % 2.19 C
3078 05-05-2020 16:25:00 17.7 C 37 % 2.84 C
3079 05-05-2020 16:30:00 17.6 C 32 % 0.73 C
3080 05-05-2020 16:35:00 17.6 C 38 % 3.13 C
3081 05-05-2020 16:40:00 18 C 34 % 1.92 C
3082 05-05-2020 16:45:00 18.1 C 32 % 1.17 C
3083 05-05-2020 16:50:00 18.2 C 33 % 1.68 C
3084 05-05-2020 16:55:00 18.2 C 33 % 1.68 C
3085 05-05-2020 17:00:00 17.8 C 33 % 1.33 C
3086 05-05-2020 17:05:00 17.7 C 34 % 1.66 C
3087 05-05-2020 17:10:00 17.9 C 33 % 1.42 C
3088 05-05-2020 17:15:00 18.1 C 31 % 0.73 C
3089 05-05-2020 17:20:00 18.3 C 33 % 1.77 C
3090 05-05-2020 17:25:00 18.3 C 32 % 1.34 C
3091 05-05-2020 17:30:00 18.4 C 31 % 0.99 C
3092 05-05-2020 17:35:00 18.6 C 34 % 2.45 C
3093 05-05-2020 17:40:00 18.7 C 30 % 0.79 C
3094 05-05-2020 17:45:00 18.4 C 30 % 0.53 C
3095 05-05-2020 17:50:00 18.2 C 33 % 1.68 C
3096 05-05-2020 17:55:00 18.1 C 31 % 0.73 C
3097 05-05-2020 18:00:00 18.1 C 31 % 0.73 C
3098 05-05-2020 18:05:00 17.9 C 30 % 0.1 C
3099 05-05-2020 18:10:00 17.9 C 31 % 0.55 C
3100 05-05-2020 18:15:00 18.2 C 30 % 0.36 C
Sensor: Nr:Datum:Temp:Feuchte:Taupunkt:
Aussen-T/F 3101 05-05-2020 18:20:00 18.3 C 29 % -0.02 C
3102 05-05-2020 18:25:00 18.3 C 30 % 0.45 C
3103 05-05-2020 18:30:00 18.3 C 29 % -0.02 C
3104 05-05-2020 18:35:00 18.2 C 31 % 0.81 C
3105 05-05-2020 18:40:00 18.3 C 30 % 0.45 C
3106 05-05-2020 18:45:00 18 C 30 % 0.19 C
3107 05-05-2020 18:50:00 17.9 C 31 % 0.55 C
3108 05-05-2020 18:55:00 18 C 30 % 0.19 C
3109 05-05-2020 19:00:00 18.1 C 31 % 0.73 C
3110 05-05-2020 19:05:00 18.2 C 30 % 0.36 C
3111 05-05-2020 19:10:00 17.8 C 29 % -0.45 C
3112 05-05-2020 19:15:00 17.4 C 30 % -0.33 C
3113 05-05-2020 19:20:00 17.2 C 30 % -0.51 C
3114 05-05-2020 19:25:00 17 C 31 % -0.23 C
3115 05-05-2020 19:30:00 16.9 C 31 % -0.32 C
3116 05-05-2020 19:35:00 16.8 C 32 % 0.03 C
3117 05-05-2020 19:40:00 16.6 C 33 % 0.28 C
3118 05-05-2020 19:45:00 16.4 C 31 % -0.75 C
3119 05-05-2020 19:50:00 16.3 C 32 % -0.4 C
3120 05-05-2020 19:55:00 16.2 C 32 % -0.49 C
3121 05-05-2020 20:00:00 16 C 33 % -0.24 C
3122 05-05-2020 20:05:00 15.8 C 33 % -0.42 C
3123 05-05-2020 20:10:00 15.7 C 35 % 0.3 C
3124 05-05-2020 20:15:00 15.6 C 34 % -0.19 C
3125 05-05-2020 20:20:00 15.5 C 35 % 0.12 C
Sensor: Nr:Datum:Temp:Feuchte:Taupunkt:
Aussen-T/F 3126 05-05-2020 20:25:00 15.3 C 36 % 0.34 C
3127 05-05-2020 20:30:00 15.1 C 36 % 0.16 C
3128 05-05-2020 20:35:00 14.8 C 37 % 0.27 C
3129 05-05-2020 20:40:00 14.6 C 40 % 1.17 C
3130 05-05-2020 20:45:00 14.4 C 41 % 1.33 C
3131 05-05-2020 20:50:00 14.2 C 44 % 2.14 C
3132 05-05-2020 20:55:00 13.9 C 49 % 3.38 C
3133 05-05-2020 21:00:00 13.4 C 52 % 3.76 C
3134 05-05-2020 21:05:00 12.9 C 54 % 3.83 C
3135 05-05-2020 21:10:00 12.3 C 57 % 4.04 C
3136 05-05-2020 21:15:00 11.9 C 58 % 3.91 C
3137 05-05-2020 21:20:00 11.6 C 58 % 3.63 C
3138 05-05-2020 21:25:00 11.2 C 58 % 3.25 C
3139 05-05-2020 21:30:00 10.9 C 59 % 3.21 C
3140 05-05-2020 21:35:00 10.6 C 61 % 3.4 C
3141 05-05-2020 21:40:00 10.3 C 59 % 2.65 C
3142 05-05-2020 21:45:00 10.1 C 60 % 2.7 C
3143 05-05-2020 21:50:00 9.9 C 59 % 2.27 C
3144 05-05-2020 21:55:00 9.8 C 60 % 2.42 C
3145 05-05-2020 22:00:00 9.7 C 62 % 2.78 C
3146 05-05-2020 22:05:00 9.6 C 62 % 2.69 C
3147 05-05-2020 22:10:00 9.4 C 66 % 3.38 C
3148 05-05-2020 22:15:00 9.3 C 65 % 3.07 C
3149 05-05-2020 22:20:00 9.2 C 64 % 2.76 C
3150 05-05-2020 22:25:00 9.2 C 65 % 2.97 C
Sensor: Nr:Datum:Temp:Feuchte:Taupunkt:
Aussen-T/F 3151 05-05-2020 22:30:00 9.1 C 65 % 2.88 C
3152 05-05-2020 22:35:00 9 C 67 % 3.21 C
3153 05-05-2020 22:40:00 8.9 C 67 % 3.12 C
3154 05-05-2020 22:45:00 8.8 C 67 % 3.02 C
3155 05-05-2020 22:50:00 8.7 C 68 % 3.13 C
3156 05-05-2020 22:55:00 8.7 C 65 % 2.5 C
3157 05-05-2020 23:00:00 8.7 C 67 % 2.92 C
3158 05-05-2020 23:05:00 8.6 C 67 % 2.83 C
3159 05-05-2020 23:10:00 8.5 C 67 % 2.73 C
3160 05-05-2020 23:15:00 8.4 C 67 % 2.64 C
3161 05-05-2020 23:20:00 8.3 C 67 % 2.54 C
3162 05-05-2020 23:25:00 8.2 C 67 % 2.45 C
3163 05-05-2020 23:30:00 8.1 C 67 % 2.35 C
3164 05-05-2020 23:35:00 8 C 68 % 2.47 C
3165 05-05-2020 23:40:00 7.9 C 69 % 2.57 C
3166 05-05-2020 23:45:00 7.8 C 69 % 2.48 C
3167 05-05-2020 23:50:00 7.7 C 68 % 2.18 C
3168 05-05-2020 23:55:00 7.6 C 69 % 2.29 C
3169 06-05-2020 00:00:00 7.6 C 70 % 2.49 C
3170 06-05-2020 00:05:00 7.5 C 70 % 2.39 C
3171 06-05-2020 00:10:00 7.4 C 70 % 2.3 C
3172 06-05-2020 00:15:00 7.4 C 70 % 2.3 C
3173 06-05-2020 00:20:00 7.3 C 71 % 2.4 C
3174 06-05-2020 00:25:00 7.3 C 70 % 2.2 C
3175 06-05-2020 00:30:00 7.2 C 72 % 2.5 C
Sensor: Nr:Datum:Temp:Feuchte:Taupunkt:
Aussen-T/F 3176 06-05-2020 00:35:00 7.2 C 72 % 2.5 C
3177 06-05-2020 00:40:00 7.1 C 73 % 2.6 C
3178 06-05-2020 00:45:00 7 C 73 % 2.5 C
3179 06-05-2020 00:50:00 6.9 C 74 % 2.6 C
3180 06-05-2020 00:55:00 6.8 C 74 % 2.5 C
3181 06-05-2020 01:00:00 6.7 C 74 % 2.4 C
3182 06-05-2020 01:05:00 6.5 C 74 % 2.21 C
3183 06-05-2020 01:10:00 6.4 C 75 % 2.3 C
3184 06-05-2020 01:15:00 6.3 C 76 % 2.39 C
3185 06-05-2020 01:20:00 6.1 C 76 % 2.2 C
3186 06-05-2020 01:25:00 5.9 C 76 % 2 C
3187 06-05-2020 01:30:00 5.8 C 77 % 2.09 C
3188 06-05-2020 01:35:00 5.7 C 78 % 2.17 C
3189 06-05-2020 01:40:00 5.6 C 78 % 2.07 C
3190 06-05-2020 01:45:00 5.4 C 79 % 2.06 C
3191 06-05-2020 01:50:00 5.3 C 80 % 2.14 C
3192 06-05-2020 01:55:00 5.2 C 80 % 2.04 C
3193 06-05-2020 02:00:00 5 C 80 % 1.84 C
3194 06-05-2020 02:05:00 4.9 C 81 % 1.92 C
3195 06-05-2020 02:10:00 4.8 C 81 % 1.82 C
3196 06-05-2020 02:15:00 4.7 C 82 % 1.9 C
3197 06-05-2020 02:20:00 4.6 C 83 % 1.97 C
3198 06-05-2020 02:25:00 4.5 C 83 % 1.87 C
3199 06-05-2020 02:30:00 4.4 C 83 % 1.77 C
3200 06-05-2020 02:35:00 4.4 C 83 % 1.77 C
Sensor: Nr:Datum:Temp:Feuchte:Taupunkt:
Aussen-T/F 3201 06-05-2020 02:40:00 4.3 C 83 % 1.67 C
3202 06-05-2020 02:45:00 4.3 C 84 % 1.84 C
3203 06-05-2020 02:50:00 4.2 C 84 % 1.74 C
3204 06-05-2020 02:55:00 4.1 C 84 % 1.65 C
3205 06-05-2020 03:00:00 4 C 85 % 1.71 C
3206 06-05-2020 03:05:00 3.9 C 85 % 1.61 C
3207 06-05-2020 03:10:00 3.8 C 85 % 1.52 C
3208 06-05-2020 03:15:00 3.7 C 85 % 1.42 C
3209 06-05-2020 03:20:00 3.6 C 85 % 1.32 C
3210 06-05-2020 03:25:00 3.6 C 86 % 1.48 C
3211 06-05-2020 03:30:00 3.5 C 86 % 1.38 C
3212 06-05-2020 03:35:00 3.4 C 86 % 1.29 C
3213 06-05-2020 03:40:00 3.3 C 86 % 1.19 C
3214 06-05-2020 03:45:00 3.3 C 87 % 1.35 C
3215 06-05-2020 03:50:00 3.3 C 87 % 1.35 C
3216 06-05-2020 03:55:00 3.2 C 88 % 1.41 C
3217 06-05-2020 04:00:00 3.2 C 87 % 1.25 C
3218 06-05-2020 04:05:00 3.2 C 87 % 1.25 C
3219 06-05-2020 04:10:00 3.1 C 88 % 1.31 C
3220 06-05-2020 04:15:00 3.1 C 88 % 1.31 C
3221 06-05-2020 04:20:00 3.1 C 88 % 1.31 C
3222 06-05-2020 04:25:00 3.1 C 88 % 1.31 C
3223 06-05-2020 04:30:00 3.1 C 89 % 1.47 C
3224 06-05-2020 04:35:00 2.9 C 88 % 1.11 C
3225 06-05-2020 04:40:00 2.9 C 89 % 1.27 C
Sensor: Nr:Datum:Temp:Feuchte:Taupunkt:
Aussen-T/F 3226 06-05-2020 04:45:00 2.9 C 89 % 1.27 C
3227 06-05-2020 04:50:00 2.8 C 89 % 1.17 C
3228 06-05-2020 04:55:00 2.8 C 89 % 1.17 C
3229 06-05-2020 05:00:00 2.8 C 90 % 1.33 C
3230 06-05-2020 05:05:00 2.8 C 90 % 1.33 C
3231 06-05-2020 05:10:00 2.7 C 90 % 1.23 C
3232 06-05-2020 05:15:00 2.7 C 90 % 1.23 C
3233 06-05-2020 05:20:00 2.6 C 90 % 1.13 C
3234 06-05-2020 05:25:00 2.6 C 90 % 1.13 C
3235 06-05-2020 05:30:00 2.6 C 90 % 1.13 C
3236 06-05-2020 05:35:00 2.5 C 90 % 1.03 C
3237 06-05-2020 05:40:00 2.5 C 90 % 1.03 C
3238 06-05-2020 05:45:00 2.4 C 90 % 0.93 C
3239 06-05-2020 05:50:00 2.3 C 90 % 0.83 C
3240 06-05-2020 05:55:00 2.2 C 90 % 0.73 C
3241 06-05-2020 06:00:00 2.2 C 91 % 0.89 C
3242 06-05-2020 06:05:00 2.1 C 91 % 0.79 C
3243 06-05-2020 06:10:00 2.2 C 91 % 0.89 C
3244 06-05-2020 06:15:00 2.1 C 91 % 0.79 C
3245 06-05-2020 06:20:00 2.1 C 91 % 0.79 C
3246 06-05-2020 06:25:00 2.1 C 92 % 0.94 C
3247 06-05-2020 06:30:00 2 C 92 % 0.84 C
3248 06-05-2020 06:35:00 2 C 92 % 0.84 C
3249 06-05-2020 06:40:00 2.1 C 92 % 0.94 C
3250 06-05-2020 06:45:00 2.1 C 92 % 0.94 C
Sensor: Nr:Datum:Temp:Feuchte:Taupunkt:
Aussen-T/F 3251 06-05-2020 06:50:00 2.1 C 92 % 0.94 C
3252 06-05-2020 06:55:00 2.1 C 92 % 0.94 C
3253 06-05-2020 07:00:00 2.2 C 92 % 1.04 C
3254 06-05-2020 07:05:00 2.2 C 93 % 1.19 C
3255 06-05-2020 07:10:00 2.2 C 93 % 1.19 C
3256 06-05-2020 07:15:00 2.3 C 93 % 1.29 C
3257 06-05-2020 07:20:00 2.3 C 93 % 1.29 C
3258 06-05-2020 07:25:00 2.4 C 93 % 1.39 C
3259 06-05-2020 07:30:00 2.4 C 93 % 1.39 C
3260 06-05-2020 07:35:00 2.5 C 93 % 1.49 C
3261 06-05-2020 07:40:00 2.6 C 93 % 1.59 C
3262 06-05-2020 07:45:00 2.6 C 93 % 1.59 C
3263 06-05-2020 07:50:00 2.7 C 93 % 1.68 C
3264 06-05-2020 07:55:00 2.8 C 93 % 1.78 C
3265 06-05-2020 08:00:00 2.9 C 94 % 2.03 C
3266 06-05-2020 08:05:00 2.9 C 94 % 2.03 C
3267 06-05-2020 08:10:00 3.1 C 94 % 2.23 C
3268 06-05-2020 08:15:00 3.2 C 94 % 2.33 C
3269 06-05-2020 08:20:00 3.2 C 94 % 2.33 C
3270 06-05-2020 08:25:00 3.3 C 94 % 2.43 C
3271 06-05-2020 08:30:00 3.4 C 94 % 2.53 C
3272 06-05-2020 08:35:00 3.7 C 94 % 2.83 C
3273 06-05-2020 08:40:00 3.8 C 94 % 2.93 C
3274 06-05-2020 08:45:00 4 C 94 % 3.12 C
3275 06-05-2020 08:50:00 4.2 C 94 % 3.32 C
Sensor: Nr:Datum:Temp:Feuchte:Taupunkt:
Aussen-T/F 3276 06-05-2020 08:55:00 4.4 C 94 % 3.52 C
3277 06-05-2020 09:00:00 4.6 C 94 % 3.72 C
3278 06-05-2020 09:05:00 4.8 C 94 % 3.92 C
3279 06-05-2020 09:10:00 5.1 C 94 % 4.22 C
3280 06-05-2020 09:15:00 5.3 C 94 % 4.41 C
3281 06-05-2020 09:20:00 5.4 C 93 % 4.36 C
3282 06-05-2020 09:25:00 5.7 C 93 % 4.66 C
3283 06-05-2020 09:30:00 5.9 C 92 % 4.7 C
3284 06-05-2020 09:35:00 6.1 C 92 % 4.9 C
3285 06-05-2020 09:40:00 6.3 C 91 % 4.94 C
3286 06-05-2020 09:45:00 6.4 C 91 % 5.04 C
3287 06-05-2020 09:50:00 6.6 C 91 % 5.24 C
3288 06-05-2020 09:55:00 6.8 C 90 % 5.28 C
3289 06-05-2020 10:00:00 7 C 90 % 5.48 C
3290 06-05-2020 10:05:00 7.2 C 89 % 5.51 C
3291 06-05-2020 10:10:00 7.4 C 88 % 5.55 C
3292 06-05-2020 10:15:00 7.7 C 84 % 5.17 C
3293 06-05-2020 10:20:00 8 C 80 % 4.77 C
3294 06-05-2020 10:25:00 8.6 C 73 % 4.04 C
3295 06-05-2020 10:30:00 9.7 C 65 % 3.45 C
3296 06-05-2020 10:35:00 10.6 C 67 % 4.74 C
3297 06-05-2020 10:40:00 11.2 C 53 % 1.99 C
3298 06-05-2020 10:45:00 11.7 C 53 % 2.45 C
3299 06-05-2020 10:50:00 11.9 C 51 % 2.1 C
3300 06-05-2020 10:55:00 12.2 C 54 % 3.18 C
Sensor: Nr:Datum:Temp:Feuchte:Taupunkt:
Aussen-T/F 3301 06-05-2020 11:00:00 12.2 C 47 % 1.24 C
3302 06-05-2020 11:05:00 12.3 C 48 % 1.62 C
3303 06-05-2020 11:10:00 12.5 C 44 % 0.59 C
3304 06-05-2020 11:15:00 12.7 C 43 % 0.46 C
3305 06-05-2020 11:20:00 12.8 C 44 % 0.87 C
3306 06-05-2020 11:25:00 12.9 C 44 % 0.96 C
3307 06-05-2020 11:30:00 13 C 45 % 1.36 C
3308 06-05-2020 11:35:00 13.2 C 41 % 0.25 C
3309 06-05-2020 11:40:00 13.2 C 41 % 0.25 C
3310 06-05-2020 11:45:00 13.2 C 42 % 0.59 C
3311 06-05-2020 11:50:00 13.3 C 41 % 0.34 C
3312 06-05-2020 11:55:00 13.4 C 38 % -0.61 C
3313 06-05-2020 12:00:00 13.5 C 38 % -0.52 C
3314 06-05-2020 12:05:00 13.6 C 40 % 0.27 C
3315 06-05-2020 12:10:00 13.4 C 40 % 0.09 C
3316 06-05-2020 12:15:00 13.5 C 39 % -0.17 C
3317 06-05-2020 12:20:00 13.6 C 39 % -0.08 C
3318 06-05-2020 12:25:00 13.7 C 39 % 0.01 C
3319 06-05-2020 12:30:00 13.8 C 40 % 0.45 C
3320 06-05-2020 12:35:00 13.9 C 38 % -0.16 C
3321 06-05-2020 12:40:00 14 C 39 % 0.28 C
3322 06-05-2020 12:45:00 13.9 C 40 % 0.54 C
3323 06-05-2020 12:50:00 14 C 40 % 0.63 C
3324 06-05-2020 12:55:00 14.1 C 39 % 0.37 C
3325 06-05-2020 13:00:00 14.1 C 39 % 0.37 C
Sensor: Nr:Datum:Temp:Feuchte:Taupunkt:
Aussen-T/F 3326 06-05-2020 13:05:00 14.2 C 39 % 0.46 C
3327 06-05-2020 13:10:00 14.2 C 39 % 0.46 C
3328 06-05-2020 13:15:00 14.3 C 40 % 0.9 C
3329 06-05-2020 13:20:00 14.5 C 39 % 0.73 C
3330 06-05-2020 13:25:00 14.7 C 41 % 1.6 C
3331 06-05-2020 13:30:00 14.7 C 39 % 0.91 C
3332 06-05-2020 13:35:00 14.7 C 40 % 1.26 C
3333 06-05-2020 13:40:00 14.8 C 40 % 1.35 C
3334 06-05-2020 13:45:00 14.8 C 41 % 1.69 C
3335 06-05-2020 13:50:00 15 C 40 % 1.53 C
3336 06-05-2020 13:55:00 15.2 C 40 % 1.71 C
3337 06-05-2020 14:00:00 15.2 C 41 % 2.05 C
3338 06-05-2020 14:05:00 15.4 C 40 % 1.89 C
3339 06-05-2020 14:10:00 15.5 C 39 % 1.62 C
3340 06-05-2020 14:15:00 15.6 C 35 % 0.21 C
3341 06-05-2020 14:20:00 15.6 C 35 % 0.21 C
3342 06-05-2020 14:25:00 15.7 C 36 % 0.69 C
3343 06-05-2020 14:30:00 15.7 C 33 % -0.51 C
3344 06-05-2020 14:35:00 15.8 C 32 % -0.84 C
3345 06-05-2020 14:40:00 15.9 C 35 % 0.48 C
3346 06-05-2020 14:45:00 16.2 C 35 % 0.74 C
3347 06-05-2020 14:50:00 16.4 C 35 % 0.92 C
3348 06-05-2020 14:55:00 16.7 C 33 % 0.37 C
3349 06-05-2020 15:00:00 16.7 C 35 % 1.18 C
3350 06-05-2020 15:05:00 16.9 C 33 % 0.54 C
Sensor: Nr:Datum:Temp:Feuchte:Taupunkt:
Aussen-T/F 3351 06-05-2020 15:10:00 16.9 C 32 % 0.12 C
3352 06-05-2020 15:15:00 17 C 36 % 1.84 C
3353 06-05-2020 15:20:00 17.1 C 33 % 0.72 C
3354 06-05-2020 15:25:00 17.1 C 32 % 0.29 C
3355 06-05-2020 15:30:00 17.1 C 33 % 0.72 C
3356 06-05-2020 15:35:00 17.5 C 30 % -0.25 C
3357 06-05-2020 15:40:00 17.6 C 33 % 1.16 C
3358 06-05-2020 15:45:00 17.8 C 31 % 0.47 C
3359 06-05-2020 15:50:00 17.9 C 32 % 0.99 C
3360 06-05-2020 15:55:00 18.2 C 32 % 1.25 C
3361 06-05-2020 16:00:00 18.4 C 31 % 0.99 C
3362 06-05-2020 16:05:00 18.3 C 32 % 1.34 C
3363 06-05-2020 16:10:00 18.4 C 33 % 1.86 C
3364 06-05-2020 16:15:00 18.8 C 31 % 1.33 C
3365 06-05-2020 16:20:00 19.3 C 31 % 1.77 C
3366 06-05-2020 16:25:00 19.3 C 30 % 1.31 C
3367 06-05-2020 16:30:00 19.1 C 31 % 1.59 C
3368 06-05-2020 16:35:00 19.2 C 30 % 1.23 C
3369 06-05-2020 16:40:00 19.1 C 29 % 0.67 C
3370 06-05-2020 16:45:00 19.1 C 30 % 1.14 C
3371 06-05-2020 16:50:00 19 C 30 % 1.05 C
3372 06-05-2020 16:55:00 18.9 C 30 % 0.97 C
3373 06-05-2020 17:00:00 19.2 C 31 % 1.68 C
3374 06-05-2020 17:05:00 19.4 C 30 % 1.4 C
3375 06-05-2020 17:10:00 19.6 C 31 % 2.03 C
Sensor: Nr:Datum:Temp:Feuchte:Taupunkt:
Aussen-T/F 3376 06-05-2020 17:15:00 19.8 C 32 % 2.65 C
3377 06-05-2020 17:20:00 19.8 C 30 % 1.74 C
3378 06-05-2020 17:25:00 19.8 C 30 % 1.74 C
3379 06-05-2020 17:30:00 19.9 C 29 % 1.36 C
3380 06-05-2020 17:35:00 19.7 C 32 % 2.56 C
3381 06-05-2020 17:40:00 19.7 C 29 % 1.19 C
3382 06-05-2020 17:45:00 19.7 C 31 % 2.12 C
3383 06-05-2020 17:50:00 19.9 C 30 % 1.83 C
3384 06-05-2020 17:55:00 19.9 C 30 % 1.83 C
3385 06-05-2020 18:00:00 20.1 C 30 % 2 C
3386 06-05-2020 18:05:00 20.2 C 33 % 3.43 C
3387 06-05-2020 18:10:00 20.3 C 30 % 2.18 C
3388 06-05-2020 18:15:00 20.1 C 31 % 2.46 C
3389 06-05-2020 18:20:00 20.2 C 31 % 2.55 C
3390 06-05-2020 18:25:00 20.3 C 29 % 1.7 C
3391 06-05-2020 18:30:00 20.2 C 29 % 1.62 C
3392 06-05-2020 18:35:00 20.2 C 30 % 2.09 C
3393 06-05-2020 18:40:00 20.3 C 30 % 2.18 C
3394 06-05-2020 18:45:00 20.4 C 29 % 1.79 C
3395 06-05-2020 18:50:00 20.3 C 29 % 1.7 C
3396 06-05-2020 18:55:00 20.2 C 30 % 2.09 C
3397 06-05-2020 19:00:00 19.9 C 30 % 1.83 C
3398 06-05-2020 19:05:00 19.8 C 30 % 1.74 C
3399 06-05-2020 19:10:00 19.8 C 30 % 1.74 C
3400 06-05-2020 19:15:00 19.6 C 32 % 2.47 C
Sensor: Nr:Datum:Temp:Feuchte:Taupunkt:
Aussen-T/F 3401 06-05-2020 19:20:00 19.4 C 33 % 2.73 C
3402 06-05-2020 19:25:00 19.1 C 31 % 1.59 C
3403 06-05-2020 19:30:00 18.9 C 33 % 2.29 C
3404 06-05-2020 19:35:00 18.8 C 34 % 2.62 C
3405 06-05-2020 19:40:00 18.7 C 32 % 1.69 C
3406 06-05-2020 19:45:00 18.6 C 33 % 2.03 C
3407 06-05-2020 19:50:00 18.5 C 34 % 2.36 C
3408 06-05-2020 19:55:00 18.4 C 44 % 5.94 C
3409 06-05-2020 20:00:00 18.3 C 39 % 4.12 C
3410 06-05-2020 20:05:00 18.2 C 39 % 4.03 C
3411 06-05-2020 20:10:00 18.1 C 47 % 6.62 C
3412 06-05-2020 20:15:00 17.8 C 48 % 6.65 C
3413 06-05-2020 20:20:00 17.2 C 49 % 6.4 C
3414 06-05-2020 20:25:00 16.7 C 51 % 6.52 C
3415 06-05-2020 20:30:00 16.1 C 52 % 6.25 C
3416 06-05-2020 20:35:00 15.4 C 52 % 5.61 C
3417 06-05-2020 20:40:00 14.8 C 54 % 5.59 C
3418 06-05-2020 20:45:00 14.3 C 55 % 5.39 C
3419 06-05-2020 20:50:00 13.9 C 57 % 5.53 C
3420 06-05-2020 20:55:00 13.6 C 56 % 5 C
3421 06-05-2020 21:00:00 13.3 C 56 % 4.72 C
3422 06-05-2020 21:05:00 13 C 55 % 4.18 C
3423 06-05-2020 21:10:00 12.8 C 56 % 4.25 C
3424 06-05-2020 21:15:00 12.6 C 59 % 4.81 C
3425 06-05-2020 21:20:00 12.4 C 60 % 4.86 C
Sensor: Nr:Datum:Temp:Feuchte:Taupunkt:
Aussen-T/F 3426 06-05-2020 21:25:00 12.2 C 61 % 4.91 C
3427 06-05-2020 21:30:00 12 C 62 % 4.96 C
3428 06-05-2020 21:35:00 11.8 C 65 % 5.44 C
3429 06-05-2020 21:40:00 11.6 C 66 % 5.47 C
3430 06-05-2020 21:45:00 11.3 C 67 % 5.4 C
3431 06-05-2020 21:50:00 10.9 C 67 % 5.02 C
3432 06-05-2020 21:55:00 10.7 C 66 % 4.62 C
3433 06-05-2020 22:00:00 10.6 C 69 % 5.16 C
3434 06-05-2020 22:05:00 10.3 C 69 % 4.87 C
3435 06-05-2020 22:10:00 10.1 C 70 % 4.89 C
3436 06-05-2020 22:15:00 9.9 C 70 % 4.69 C
3437 06-05-2020 22:20:00 9.8 C 71 % 4.8 C
3438 06-05-2020 22:25:00 9.7 C 70 % 4.5 C
3439 06-05-2020 22:30:00 9.7 C 71 % 4.7 C
3440 06-05-2020 22:35:00 9.6 C 72 % 4.81 C
3441 06-05-2020 22:40:00 9.4 C 72 % 4.62 C
3442 06-05-2020 22:45:00 9.2 C 72 % 4.42 C
3443 06-05-2020 22:50:00 9.1 C 73 % 4.52 C
3444 06-05-2020 22:55:00 9 C 73 % 4.43 C
3445 06-05-2020 23:00:00 8.8 C 73 % 4.24 C
3446 06-05-2020 23:05:00 8.7 C 74 % 4.33 C
3447 06-05-2020 23:10:00 8.6 C 75 % 4.43 C
3448 06-05-2020 23:15:00 8.4 C 75 % 4.23 C
3449 06-05-2020 23:20:00 8.2 C 76 % 4.23 C
3450 06-05-2020 23:25:00 8.1 C 77 % 4.32 C
Sensor: Nr:Datum:Temp:Feuchte:Taupunkt:
Aussen-T/F 3451 06-05-2020 23:30:00 7.9 C 77 % 4.12 C
3452 06-05-2020 23:35:00 7.8 C 78 % 4.21 C
3453 06-05-2020 23:40:00 7.7 C 78 % 4.11 C
3454 06-05-2020 23:45:00 7.6 C 78 % 4.02 C
3455 06-05-2020 23:50:00 7.4 C 78 % 3.82 C
3456 06-05-2020 23:55:00 7.3 C 78 % 3.73 C
3457 07-05-2020 00:00:00 7.2 C 79 % 3.81 C
3458 07-05-2020 00:05:00 7.2 C 79 % 3.81 C
3459 07-05-2020 00:10:00 7.1 C 79 % 3.71 C
3460 07-05-2020 00:15:00 7 C 80 % 3.79 C
3461 07-05-2020 00:20:00 6.9 C 80 % 3.7 C
3462 07-05-2020 00:25:00 6.8 C 80 % 3.6 C
3463 07-05-2020 00:30:00 6.8 C 81 % 3.77 C
3464 07-05-2020 00:35:00 6.7 C 81 % 3.68 C
3465 07-05-2020 00:40:00 6.7 C 81 % 3.68 C
3466 07-05-2020 00:45:00 6.6 C 81 % 3.58 C
3467 07-05-2020 00:50:00 6.6 C 81 % 3.58 C
3468 07-05-2020 00:55:00 6.7 C 81 % 3.68 C
3469 07-05-2020 01:00:00 6.7 C 82 % 3.85 C
3470 07-05-2020 01:05:00 6.7 C 82 % 3.85 C
3471 07-05-2020 01:10:00 6.6 C 82 % 3.75 C
3472 07-05-2020 01:15:00 6.6 C 82 % 3.75 C
3473 07-05-2020 01:20:00 6.6 C 82 % 3.75 C
3474 07-05-2020 01:25:00 6.5 C 82 % 3.66 C
3475 07-05-2020 01:30:00 6.4 C 82 % 3.56 C
Sensor: Nr:Datum:Temp:Feuchte:Taupunkt:
Aussen-T/F 3476 07-05-2020 01:35:00 6.3 C 82 % 3.46 C
3477 07-05-2020 01:40:00 6.3 C 83 % 3.63 C
3478 07-05-2020 01:45:00 6.2 C 83 % 3.53 C
3479 07-05-2020 01:50:00 6.1 C 83 % 3.44 C
3480 07-05-2020 01:55:00 6.1 C 83 % 3.44 C
3481 07-05-2020 02:00:00 5.9 C 83 % 3.24 C
3482 07-05-2020 02:05:00 5.8 C 84 % 3.31 C
3483 07-05-2020 02:10:00 5.8 C 84 % 3.31 C
3484 07-05-2020 02:15:00 5.8 C 85 % 3.48 C
3485 07-05-2020 02:20:00 5.7 C 85 % 3.38 C
3486 07-05-2020 02:25:00 5.6 C 85 % 3.28 C
3487 07-05-2020 02:30:00 5.6 C 85 % 3.28 C
3488 07-05-2020 02:35:00 5.4 C 85 % 3.09 C
3489 07-05-2020 02:40:00 5.3 C 86 % 3.15 C
3490 07-05-2020 02:45:00 5.3 C 86 % 3.15 C
3491 07-05-2020 02:50:00 5.2 C 86 % 3.05 C
3492 07-05-2020 02:55:00 5.1 C 86 % 2.96 C
3493 07-05-2020 03:00:00 5 C 86 % 2.86 C
3494 07-05-2020 03:05:00 5 C 87 % 3.02 C
3495 07-05-2020 03:10:00 4.9 C 87 % 2.92 C
3496 07-05-2020 03:15:00 4.9 C 87 % 2.92 C
3497 07-05-2020 03:20:00 4.8 C 87 % 2.82 C
3498 07-05-2020 03:25:00 4.8 C 88 % 2.99 C
3499 07-05-2020 03:30:00 4.8 C 88 % 2.99 C
3500 07-05-2020 03:35:00 4.8 C 88 % 2.99 C
Sensor: Nr:Datum:Temp:Feuchte:Taupunkt:
Aussen-T/F 3501 07-05-2020 03:40:00 4.8 C 88 % 2.99 C
3502 07-05-2020 03:45:00 4.7 C 88 % 2.89 C
3503 07-05-2020 03:50:00 4.7 C 89 % 3.05 C
3504 07-05-2020 03:55:00 4.7 C 89 % 3.05 C
3505 07-05-2020 04:00:00 4.7 C 89 % 3.05 C
3506 07-05-2020 04:05:00 4.6 C 89 % 2.95 C
3507 07-05-2020 04:10:00 4.5 C 89 % 2.85 C
3508 07-05-2020 04:15:00 4.4 C 89 % 2.75 C
3509 07-05-2020 04:20:00 4.4 C 89 % 2.75 C
3510 07-05-2020 04:25:00 4.3 C 89 % 2.65 C
3511 07-05-2020 04:30:00 4.2 C 89 % 2.55 C
3512 07-05-2020 04:35:00 4.2 C 89 % 2.55 C
3513 07-05-2020 04:40:00 4.1 C 89 % 2.45 C
3514 07-05-2020 04:45:00 4 C 90 % 2.51 C
3515 07-05-2020 04:50:00 3.9 C 90 % 2.41 C
3516 07-05-2020 04:55:00 3.9 C 90 % 2.41 C
3517 07-05-2020 05:00:00 3.8 C 90 % 2.31 C
3518 07-05-2020 05:05:00 3.8 C 90 % 2.31 C
3519 07-05-2020 05:10:00 3.7 C 90 % 2.22 C
3520 07-05-2020 05:15:00 3.7 C 90 % 2.22 C
3521 07-05-2020 05:20:00 3.7 C 91 % 2.37 C
3522 07-05-2020 05:25:00 3.7 C 91 % 2.37 C
3523 07-05-2020 05:30:00 3.6 C 91 % 2.27 C
3524 07-05-2020 05:35:00 3.6 C 91 % 2.27 C
3525 07-05-2020 05:40:00 3.6 C 91 % 2.27 C
Sensor: Nr:Datum:Temp:Feuchte:Taupunkt:
Aussen-T/F 3526 07-05-2020 05:45:00 3.6 C 91 % 2.27 C
3527 07-05-2020 05:50:00 3.6 C 92 % 2.42 C
3528 07-05-2020 05:55:00 3.7 C 92 % 2.52 C
3529 07-05-2020 06:00:00 3.6 C 92 % 2.42 C
3530 07-05-2020 06:05:00 3.6 C 91 % 2.27 C
3531 07-05-2020 06:10:00 3.5 C 92 % 2.33 C
3532 07-05-2020 06:15:00 3.4 C 92 % 2.23 C
3533 07-05-2020 06:20:00 3.4 C 92 % 2.23 C
3534 07-05-2020 06:25:00 3.4 C 92 % 2.23 C
3535 07-05-2020 06:30:00 3.3 C 92 % 2.13 C
3536 07-05-2020 06:35:00 3.3 C 92 % 2.13 C
3537 07-05-2020 06:40:00 3.3 C 92 % 2.13 C
3538 07-05-2020 06:45:00 3.3 C 92 % 2.13 C
3539 07-05-2020 06:50:00 3.3 C 92 % 2.13 C
3540 07-05-2020 06:55:00 3.4 C 93 % 2.38 C
3541 07-05-2020 07:00:00 3.4 C 93 % 2.38 C
3542 07-05-2020 07:05:00 3.4 C 93 % 2.38 C
3543 07-05-2020 07:10:00 3.4 C 93 % 2.38 C
3544 07-05-2020 07:15:00 3.4 C 93 % 2.38 C
3545 07-05-2020 07:20:00 3.5 C 93 % 2.48 C
3546 07-05-2020 07:25:00 3.6 C 93 % 2.58 C
3547 07-05-2020 07:30:00 3.6 C 93 % 2.58 C
3548 07-05-2020 07:35:00 3.6 C 93 % 2.58 C
3549 07-05-2020 07:40:00 3.7 C 93 % 2.68 C
3550 07-05-2020 07:45:00 3.7 C 93 % 2.68 C
Sensor: Nr:Datum:Temp:Feuchte:Taupunkt:
Aussen-T/F 3551 07-05-2020 07:50:00 3.8 C 93 % 2.77 C
3552 07-05-2020 07:55:00 3.8 C 93 % 2.77 C
3553 07-05-2020 08:00:00 3.9 C 93 % 2.87 C
3554 07-05-2020 08:05:00 3.9 C 94 % 3.02 C
3555 07-05-2020 08:10:00 4 C 93 % 2.97 C
3556 07-05-2020 08:15:00 4.1 C 93 % 3.07 C
3557 07-05-2020 08:20:00 4.2 C 94 % 3.32 C
3558 07-05-2020 08:25:00 4.3 C 94 % 3.42 C
3559 07-05-2020 08:30:00 4.4 C 94 % 3.52 C
3560 07-05-2020 08:35:00 4.6 C 94 % 3.72 C
3561 07-05-2020 08:40:00 4.7 C 94 % 3.82 C
3562 07-05-2020 08:45:00 4.8 C 94 % 3.92 C
3563 07-05-2020 08:50:00 4.9 C 93 % 3.87 C
3564 07-05-2020 08:55:00 5.1 C 94 % 4.22 C
3565 07-05-2020 09:00:00 5.2 C 94 % 4.32 C
3566 07-05-2020 09:05:00 5.4 C 94 % 4.51 C
3567 07-05-2020 09:10:00 5.6 C 94 % 4.71 C
3568 07-05-2020 09:15:00 5.8 C 94 % 4.91 C
3569 07-05-2020 09:20:00 5.9 C 94 % 5.01 C
3570 07-05-2020 09:25:00 6.2 C 94 % 5.31 C
3571 07-05-2020 09:30:00 6.3 C 94 % 5.41 C
3572 07-05-2020 09:35:00 6.5 C 94 % 5.61 C
3573 07-05-2020 09:40:00 6.7 C 94 % 5.8 C
3574 07-05-2020 09:45:00 6.9 C 93 % 5.85 C
3575 07-05-2020 09:50:00 7.1 C 93 % 6.05 C
Sensor: Nr:Datum:Temp:Feuchte:Taupunkt:
Aussen-T/F 3576 07-05-2020 09:55:00 7.3 C 93 % 6.25 C
3577 07-05-2020 10:00:00 7.6 C 93 % 6.54 C
3578 07-05-2020 10:05:00 7.8 C 92 % 6.58 C
3579 07-05-2020 10:10:00 8.1 C 91 % 6.72 C
3580 07-05-2020 10:15:00 8.3 C 91 % 6.92 C
3581 07-05-2020 10:20:00 8.6 C 90 % 7.06 C
3582 07-05-2020 10:25:00 8.9 C 89 % 7.19 C
3583 07-05-2020 10:30:00 9.2 C 89 % 7.48 C
3584 07-05-2020 10:35:00 9.4 C 88 % 7.52 C
3585 07-05-2020 10:40:00 9.8 C 87 % 7.74 C
3586 07-05-2020 10:45:00 10.2 C 84 % 7.62 C
3587 07-05-2020 10:50:00 10.6 C 83 % 7.84 C
3588 07-05-2020 10:55:00 11.2 C 77 % 7.32 C
3589 07-05-2020 11:00:00 11.7 C 74 % 7.23 C
3590 07-05-2020 11:05:00 12.2 C 70 % 6.9 C
3591 07-05-2020 11:10:00 12.7 C 70 % 7.38 C
3592 07-05-2020 11:15:00 13.2 C 69 % 7.64 C
3593 07-05-2020 11:20:00 13.5 C 70 % 8.14 C
3594 07-05-2020 11:25:00 13.8 C 66 % 7.57 C
3595 07-05-2020 11:30:00 14.1 C 63 % 7.17 C
3596 07-05-2020 11:35:00 14.4 C 67 % 8.36 C
3597 07-05-2020 11:40:00 14.7 C 68 % 8.86 C
3598 07-05-2020 11:45:00 14.8 C 63 % 7.83 C
3599 07-05-2020 11:50:00 15.1 C 57 % 6.65 C
3600 07-05-2020 11:55:00 15.4 C 56 % 6.68 C
Sensor: Nr:Datum:Temp:Feuchte:Taupunkt:
Aussen-T/F 3601 07-05-2020 12:00:00 15.7 C 56 % 6.96 C
3602 07-05-2020 12:05:00 15.9 C 54 % 6.61 C
3603 07-05-2020 12:10:00 16 C 48 % 5.01 C
3604 07-05-2020 12:15:00 16.1 C 45 % 4.18 C
3605 07-05-2020 12:20:00 16.2 C 47 % 4.89 C
3606 07-05-2020 12:25:00 16.4 C 45 % 4.45 C
3607 07-05-2020 12:30:00 16.7 C 44 % 4.4 C
3608 07-05-2020 12:35:00 16.7 C 44 % 4.4 C
3609 07-05-2020 12:40:00 16.8 C 44 % 4.49 C
3610 07-05-2020 12:45:00 16.9 C 42 % 3.92 C
3611 07-05-2020 12:50:00 16.9 C 43 % 4.25 C
3612 07-05-2020 12:55:00 17.1 C 45 % 5.08 C
3613 07-05-2020 13:00:00 17.2 C 46 % 5.49 C
3614 07-05-2020 13:05:00 17.3 C 48 % 6.2 C
3615 07-05-2020 13:10:00 17.4 C 48 % 6.29 C
3616 07-05-2020 13:15:00 17.6 C 47 % 6.17 C
3617 07-05-2020 13:20:00 17.7 C 46 % 5.95 C
3618 07-05-2020 13:25:00 17.8 C 46 % 6.04 C
3619 07-05-2020 13:30:00 17.8 C 45 % 5.72 C
3620 07-05-2020 13:35:00 17.9 C 45 % 5.81 C
3621 07-05-2020 13:40:00 17.9 C 45 % 5.81 C
3622 07-05-2020 13:45:00 18.1 C 44 % 5.67 C
3623 07-05-2020 13:50:00 18.4 C 45 % 6.26 C
3624 07-05-2020 13:55:00 18.6 C 43 % 5.79 C
3625 07-05-2020 14:00:00 18.6 C 43 % 5.79 C
Sensor: Nr:Datum:Temp:Feuchte:Taupunkt:
Aussen-T/F 3626 07-05-2020 14:05:00 18.6 C 42 % 5.45 C
3627 07-05-2020 14:10:00 18.6 C 42 % 5.45 C
3628 07-05-2020 14:15:00 18.6 C 42 % 5.45 C
3629 07-05-2020 14:20:00 18.8 C 41 % 5.28 C
3630 07-05-2020 14:25:00 18.9 C 42 % 5.72 C
3631 07-05-2020 14:30:00 19.1 C 42 % 5.9 C
3632 07-05-2020 14:35:00 19.2 C 40 % 5.29 C
3633 07-05-2020 14:40:00 19.3 C 40 % 5.38 C
3634 07-05-2020 14:45:00 19.4 C 41 % 5.82 C
3635 07-05-2020 14:50:00 19.8 C 38 % 5.09 C
3636 07-05-2020 14:55:00 19.9 C 38 % 5.18 C
3637 07-05-2020 15:00:00 20 C 37 % 4.88 C
3638 07-05-2020 15:05:00 20.1 C 38 % 5.35 C
3639 07-05-2020 15:10:00 20.2 C 39 % 5.82 C
3640 07-05-2020 15:15:00 20.2 C 39 % 5.82 C
3641 07-05-2020 15:20:00 20.5 C 38 % 5.71 C
3642 07-05-2020 15:25:00 20.7 C 37 % 5.5 C
3643 07-05-2020 15:30:00 20.8 C 35 % 4.79 C
3644 07-05-2020 15:35:00 20.9 C 39 % 6.44 C
3645 07-05-2020 15:40:00 21.3 C 36 % 5.64 C
3646 07-05-2020 15:45:00 21.4 C 35 % 5.32 C
3647 07-05-2020 15:50:00 21.6 C 35 % 5.5 C
3648 07-05-2020 15:55:00 21.8 C 36 % 6.08 C
3649 07-05-2020 16:00:00 22.2 C 36 % 6.43 C
3650 07-05-2020 16:05:00 22.6 C 34 % 5.96 C
Sensor: Nr:Datum:Temp:Feuchte:Taupunkt:
Aussen-T/F 3651 07-05-2020 16:10:00 22.8 C 35 % 6.55 C
3652 07-05-2020 16:15:00 22.9 C 33 % 5.79 C
3653 07-05-2020 16:20:00 22.9 C 33 % 5.79 C
3654 07-05-2020 16:25:00 22.7 C 33 % 5.61 C
3655 07-05-2020 16:30:00 22.7 C 35 % 6.46 C
3656 07-05-2020 16:35:00 22.8 C 34 % 6.13 C
3657 07-05-2020 16:40:00 22.8 C 34 % 6.13 C
3658 07-05-2020 16:45:00 23.1 C 35 % 6.82 C
3659 07-05-2020 16:50:00 23.4 C 34 % 6.66 C
3660 07-05-2020 16:55:00 23.4 C 33 % 6.22 C
3661 07-05-2020 17:00:00 23.3 C 32 % 5.69 C
3662 07-05-2020 17:05:00 23 C 32 % 5.43 C
3663 07-05-2020 17:10:00 22.7 C 34 % 6.04 C
3664 07-05-2020 17:15:00 22.8 C 34 % 6.13 C
3665 07-05-2020 17:20:00 22.9 C 33 % 5.79 C
3666 07-05-2020 17:25:00 23.1 C 33 % 5.96 C
3667 07-05-2020 17:30:00 23.4 C 34 % 6.66 C
3668 07-05-2020 17:35:00 23.8 C 33 % 6.57 C
3669 07-05-2020 17:40:00 23.8 C 32 % 6.13 C
3670 07-05-2020 17:45:00 23.5 C 32 % 5.87 C
3671 07-05-2020 17:50:00 23.1 C 33 % 5.96 C
3672 07-05-2020 17:55:00 23.3 C 32 % 5.69 C
3673 07-05-2020 18:00:00 23.4 C 32 % 5.78 C
3674 07-05-2020 18:05:00 23.4 C 32 % 5.78 C
3675 07-05-2020 18:10:00 23.3 C 32 % 5.69 C
Sensor: Nr:Datum:Temp:Feuchte:Taupunkt:
Aussen-T/F 3676 07-05-2020 18:15:00 23.3 C 33 % 6.14 C
3677 07-05-2020 18:20:00 23.2 C 33 % 6.05 C
3678 07-05-2020 18:25:00 23.2 C 33 % 6.05 C
3679 07-05-2020 18:30:00 23.3 C 34 % 6.57 C
3680 07-05-2020 18:35:00 23.6 C 32 % 5.95 C
3681 07-05-2020 18:40:00 23.8 C 32 % 6.13 C
3682 07-05-2020 18:45:00 23.6 C 34 % 6.83 C
3683 07-05-2020 18:50:00 23.6 C 32 % 5.95 C
3684 07-05-2020 18:55:00 23.4 C 32 % 5.78 C
3685 07-05-2020 19:00:00 23.3 C 36 % 7.4 C
3686 07-05-2020 19:05:00 23.4 C 33 % 6.22 C
3687 07-05-2020 19:10:00 23.4 C 33 % 6.22 C
3688 07-05-2020 19:15:00 23.2 C 34 % 6.48 C
3689 07-05-2020 19:20:00 22.9 C 33 % 5.79 C
3690 07-05-2020 19:25:00 22.8 C 34 % 6.13 C
3691 07-05-2020 19:30:00 22.7 C 35 % 6.46 C
3692 07-05-2020 19:35:00 22.7 C 44 % 9.83 C
3693 07-05-2020 19:40:00 22.4 C 46 % 10.22 C
3694 07-05-2020 19:45:00 22.1 C 46 % 9.95 C
3695 07-05-2020 19:50:00 21.8 C 48 % 10.31 C
3696 07-05-2020 19:55:00 21.3 C 48 % 9.85 C
3697 07-05-2020 20:00:00 20.8 C 49 % 9.7 C
3698 07-05-2020 20:05:00 20.3 C 49 % 9.24 C
3699 07-05-2020 20:10:00 19.8 C 50 % 9.09 C
3700 07-05-2020 20:15:00 19.2 C 52 % 9.11 C
Sensor: Nr:Datum:Temp:Feuchte:Taupunkt:
Aussen-T/F 3701 07-05-2020 20:20:00 18.7 C 53 % 8.93 C
3702 07-05-2020 20:25:00 18.2 C 52 % 8.19 C
3703 07-05-2020 20:30:00 17.8 C 54 % 8.38 C
3704 07-05-2020 20:35:00 17.4 C 55 % 8.28 C
3705 07-05-2020 20:40:00 17.2 C 54 % 7.82 C
3706 07-05-2020 20:45:00 16.9 C 54 % 7.54 C
3707 07-05-2020 20:50:00 16.7 C 54 % 7.36 C
3708 07-05-2020 20:55:00 16.6 C 55 % 7.53 C
3709 07-05-2020 21:00:00 16.3 C 57 % 7.77 C
3710 07-05-2020 21:05:00 16.2 C 58 % 7.94 C
3711 07-05-2020 21:10:00 16 C 58 % 7.75 C
3712 07-05-2020 21:15:00 15.8 C 58 % 7.56 C
3713 07-05-2020 21:20:00 15.6 C 60 % 7.87 C
3714 07-05-2020 21:25:00 15.4 C 61 % 7.93 C
3715 07-05-2020 21:30:00 15.2 C 62 % 7.98 C
3716 07-05-2020 21:35:00 15 C 64 % 8.25 C
3717 07-05-2020 21:40:00 14.8 C 64 % 8.06 C
3718 07-05-2020 21:45:00 14.5 C 65 % 8.01 C
3719 07-05-2020 21:50:00 14.3 C 66 % 8.04 C
3720 07-05-2020 21:55:00 14.1 C 67 % 8.07 C
3721 07-05-2020 22:00:00 13.9 C 67 % 7.88 C
3722 07-05-2020 22:05:00 13.7 C 68 % 7.91 C
3723 07-05-2020 22:10:00 13.4 C 69 % 7.84 C
3724 07-05-2020 22:15:00 13.3 C 70 % 7.95 C
3725 07-05-2020 22:20:00 13.2 C 70 % 7.86 C
Sensor: Nr:Datum:Temp:Feuchte:Taupunkt:
Aussen-T/F 3726 07-05-2020 22:25:00 13.1 C 71 % 7.97 C
3727 07-05-2020 22:30:00 12.9 C 71 % 7.78 C
3728 07-05-2020 22:35:00 12.8 C 72 % 7.88 C
3729 07-05-2020 22:40:00 12.7 C 72 % 7.79 C
3730 07-05-2020 22:45:00 12.6 C 72 % 7.69 C
3731 07-05-2020 22:50:00 12.5 C 72 % 7.6 C
3732 07-05-2020 22:55:00 12.4 C 72 % 7.5 C
3733 07-05-2020 23:00:00 12.3 C 72 % 7.4 C
3734 07-05-2020 23:05:00 12.1 C 72 % 7.21 C
3735 07-05-2020 23:10:00 12 C 72 % 7.12 C
3736 07-05-2020 23:15:00 11.8 C 72 % 6.92 C
3737 07-05-2020 23:20:00 11.7 C 72 % 6.83 C
3738 07-05-2020 23:25:00 11.7 C 73 % 7.03 C
3739 07-05-2020 23:30:00 11.6 C 73 % 6.93 C
3740 07-05-2020 23:35:00 11.7 C 75 % 7.42 C
3741 07-05-2020 23:40:00 11.7 C 76 % 7.62 C
3742 07-05-2020 23:45:00 11.7 C 76 % 7.62 C
3743 07-05-2020 23:50:00 11.5 C 75 % 7.23 C
3744 07-05-2020 23:55:00 11.4 C 75 % 7.13 C
3745 08-05-2020 00:00:00 11.3 C 76 % 7.23 C
3746 08-05-2020 00:05:00 11.2 C 75 % 6.94 C
3747 08-05-2020 00:10:00 11 C 75 % 6.75 C
3748 08-05-2020 00:15:00 10.9 C 76 % 6.84 C
3749 08-05-2020 00:20:00 10.8 C 76 % 6.75 C
3750 08-05-2020 00:25:00 10.7 C 76 % 6.65 C
Sensor: Nr:Datum:Temp:Feuchte:Taupunkt:
Aussen-T/F 3751 08-05-2020 00:30:00 10.6 C 76 % 6.55 C
3752 08-05-2020 00:35:00 10.5 C 76 % 6.45 C
3753 08-05-2020 00:40:00 10.4 C 76 % 6.36 C
3754 08-05-2020 00:45:00 10.3 C 77 % 6.45 C
3755 08-05-2020 00:50:00 10.2 C 78 % 6.54 C
3756 08-05-2020 00:55:00 10.1 C 78 % 6.44 C
3757 08-05-2020 01:00:00 10 C 78 % 6.35 C
3758 08-05-2020 01:05:00 9.9 C 79 % 6.43 C
3759 08-05-2020 01:10:00 9.8 C 79 % 6.34 C
3760 08-05-2020 01:15:00 9.8 C 79 % 6.34 C
3761 08-05-2020 01:20:00 9.8 C 80 % 6.52 C
3762 08-05-2020 01:25:00 9.8 C 81 % 6.7 C
3763 08-05-2020 01:30:00 9.8 C 81 % 6.7 C
3764 08-05-2020 01:35:00 9.8 C 81 % 6.7 C
3765 08-05-2020 01:40:00 9.8 C 81 % 6.7 C
3766 08-05-2020 01:45:00 9.8 C 81 % 6.7 C
3767 08-05-2020 01:50:00 9.8 C 81 % 6.7 C
3768 08-05-2020 01:55:00 9.8 C 81 % 6.7 C
3769 08-05-2020 02:00:00 9.8 C 81 % 6.7 C
3770 08-05-2020 02:05:00 9.8 C 81 % 6.7 C
3771 08-05-2020 02:10:00 9.7 C 82 % 6.78 C
3772 08-05-2020 02:15:00 9.6 C 82 % 6.68 C
3773 08-05-2020 02:20:00 9.4 C 82 % 6.49 C
3774 08-05-2020 02:25:00 9.3 C 82 % 6.39 C
3775 08-05-2020 02:30:00 9.2 C 83 % 6.47 C
Sensor: Nr:Datum:Temp:Feuchte:Taupunkt:
Aussen-T/F 3776 08-05-2020 02:35:00 9.1 C 83 % 6.37 C
3777 08-05-2020 02:40:00 9 C 83 % 6.27 C
3778 08-05-2020 02:45:00 8.9 C 83 % 6.17 C
3779 08-05-2020 02:50:00 8.8 C 84 % 6.25 C
3780 08-05-2020 02:55:00 8.7 C 84 % 6.15 C
3781 08-05-2020 03:00:00 8.6 C 84 % 6.05 C
3782 08-05-2020 03:05:00 8.6 C 84 % 6.05 C
3783 08-05-2020 03:10:00 8.4 C 85 % 6.03 C
3784 08-05-2020 03:15:00 8.4 C 85 % 6.03 C
3785 08-05-2020 03:20:00 8.3 C 86 % 6.1 C
3786 08-05-2020 03:25:00 8.3 C 86 % 6.1 C
3787 08-05-2020 03:30:00 8.3 C 86 % 6.1 C
3788 08-05-2020 03:35:00 8.2 C 86 % 6 C
3789 08-05-2020 03:40:00 8.2 C 86 % 6 C
3790 08-05-2020 03:45:00 8.1 C 86 % 5.9 C
3791 08-05-2020 03:50:00 8 C 87 % 5.97 C
3792 08-05-2020 03:55:00 7.9 C 87 % 5.87 C
3793 08-05-2020 04:00:00 8 C 87 % 5.97 C
3794 08-05-2020 04:05:00 7.9 C 87 % 5.87 C
3795 08-05-2020 04:10:00 7.8 C 87 % 5.78 C
3796 08-05-2020 04:15:00 7.7 C 87 % 5.68 C
3797 08-05-2020 04:20:00 7.7 C 88 % 5.84 C
3798 08-05-2020 04:25:00 7.6 C 87 % 5.58 C
3799 08-05-2020 04:30:00 7.5 C 88 % 5.64 C
3800 08-05-2020 04:35:00 7.5 C 88 % 5.64 C
Sensor: Nr:Datum:Temp:Feuchte:Taupunkt:
Aussen-T/F 3801 08-05-2020 04:40:00 7.4 C 88 % 5.55 C
3802 08-05-2020 04:45:00 7.4 C 89 % 5.71 C
3803 08-05-2020 04:50:00 7.5 C 89 % 5.81 C
3804 08-05-2020 04:55:00 7.4 C 89 % 5.71 C
3805 08-05-2020 05:00:00 7.5 C 89 % 5.81 C
3806 08-05-2020 05:05:00 7.6 C 89 % 5.91 C
3807 08-05-2020 05:10:00 7.6 C 90 % 6.07 C
3808 08-05-2020 05:15:00 7.7 C 90 % 6.17 C
3809 08-05-2020 05:20:00 7.8 C 90 % 6.27 C
3810 08-05-2020 05:25:00 7.8 C 89 % 6.1 C
3811 08-05-2020 05:30:00 7.7 C 89 % 6 C
3812 08-05-2020 05:35:00 7.7 C 89 % 6 C
3813 08-05-2020 05:40:00 7.6 C 89 % 5.91 C
3814 08-05-2020 05:45:00 7.6 C 89 % 5.91 C
3815 08-05-2020 05:50:00 7.6 C 89 % 5.91 C
3816 08-05-2020 05:55:00 7.6 C 90 % 6.07 C
3817 08-05-2020 06:00:00 7.5 C 90 % 5.97 C
3818 08-05-2020 06:05:00 7.4 C 90 % 5.87 C
3819 08-05-2020 06:10:00 7.4 C 90 % 5.87 C
3820 08-05-2020 06:15:00 7.4 C 90 % 5.87 C
3821 08-05-2020 06:20:00 7.3 C 90 % 5.77 C
3822 08-05-2020 06:25:00 7.3 C 90 % 5.77 C
3823 08-05-2020 06:30:00 7.2 C 90 % 5.67 C
3824 08-05-2020 06:35:00 7.1 C 90 % 5.57 C
3825 08-05-2020 06:40:00 7.1 C 90 % 5.57 C
Sensor: Nr:Datum:Temp:Feuchte:Taupunkt:
Aussen-T/F 3826 08-05-2020 06:45:00 7 C 90 % 5.48 C
3827 08-05-2020 06:50:00 6.9 C 90 % 5.38 C
3828 08-05-2020 06:55:00 6.9 C 91 % 5.54 C
3829 08-05-2020 07:00:00 6.8 C 91 % 5.44 C
3830 08-05-2020 07:05:00 6.8 C 91 % 5.44 C
3831 08-05-2020 07:10:00 6.9 C 92 % 5.69 C
3832 08-05-2020 07:15:00 7.1 C 92 % 5.89 C
3833 08-05-2020 07:20:00 7.3 C 93 % 6.25 C
3834 08-05-2020 07:25:00 7.4 C 92 % 6.19 C
3835 08-05-2020 07:30:00 7.4 C 92 % 6.19 C
3836 08-05-2020 07:35:00 7.4 C 92 % 6.19 C
3837 08-05-2020 07:40:00 7.4 C 92 % 6.19 C
3838 08-05-2020 07:45:00 7.5 C 92 % 6.29 C
3839 08-05-2020 07:50:00 7.6 C 92 % 6.39 C
3840 08-05-2020 07:55:00 7.7 C 92 % 6.48 C
3841 08-05-2020 08:00:00 7.8 C 93 % 6.74 C
3842 08-05-2020 08:05:00 8.1 C 93 % 7.04 C
3843 08-05-2020 08:10:00 8.2 C 92 % 6.98 C
3844 08-05-2020 08:15:00 8.3 C 92 % 7.08 C
3845 08-05-2020 08:20:00 8.4 C 92 % 7.18 C
3846 08-05-2020 08:25:00 8.5 C 91 % 7.12 C
3847 08-05-2020 08:30:00 8.5 C 91 % 7.12 C
3848 08-05-2020 08:35:00 8.6 C 91 % 7.22 C
3849 08-05-2020 08:40:00 8.6 C 91 % 7.22 C
3850 08-05-2020 08:45:00 8.7 C 91 % 7.32 C
Sensor: Nr:Datum:Temp:Feuchte:Taupunkt:
Aussen-T/F 3851 08-05-2020 08:50:00 8.7 C 91 % 7.32 C
3852 08-05-2020 08:55:00 8.8 C 91 % 7.41 C
3853 08-05-2020 09:00:00 8.9 C 91 % 7.51 C
3854 08-05-2020 09:05:00 9.1 C 91 % 7.71 C
3855 08-05-2020 09:10:00 9.2 C 91 % 7.81 C
3856 08-05-2020 09:15:00 9.4 C 90 % 7.85 C
3857 08-05-2020 09:20:00 9.7 C 90 % 8.14 C
3858 08-05-2020 09:25:00 9.8 C 90 % 8.24 C
3859 08-05-2020 09:30:00 10 C 89 % 8.27 C
3860 08-05-2020 09:35:00 10.2 C 89 % 8.47 C
3861 08-05-2020 09:40:00 10.3 C 89 % 8.57 C
3862 08-05-2020 09:45:00 10.5 C 90 % 8.93 C
3863 08-05-2020 09:50:00 10.7 C 90 % 9.13 C
3864 08-05-2020 09:55:00 10.8 C 89 % 9.06 C
3865 08-05-2020 10:00:00 11 C 89 % 9.26 C
3866 08-05-2020 10:05:00 11.2 C 89 % 9.46 C
3867 08-05-2020 10:10:00 11.4 C 88 % 9.49 C
3868 08-05-2020 10:15:00 11.6 C 87 % 9.51 C
3869 08-05-2020 10:20:00 11.8 C 86 % 9.54 C
3870 08-05-2020 10:25:00 12.2 C 86 % 9.93 C
3871 08-05-2020 10:30:00 12.4 C 85 % 9.95 C
3872 08-05-2020 10:35:00 12.7 C 84 % 10.07 C
3873 08-05-2020 10:40:00 13 C 84 % 10.36 C
3874 08-05-2020 10:45:00 13.5 C 79 % 9.93 C
3875 08-05-2020 10:50:00 14.1 C 74 % 9.54 C
Sensor: Nr:Datum:Temp:Feuchte:Taupunkt:
Aussen-T/F 3876 08-05-2020 10:55:00 14.6 C 73 % 9.82 C
3877 08-05-2020 11:00:00 15 C 74 % 10.41 C
3878 08-05-2020 11:05:00 15.3 C 73 % 10.49 C
3879 08-05-2020 11:10:00 15.5 C 74 % 10.89 C
3880 08-05-2020 11:15:00 15.8 C 73 % 10.97 C
3881 08-05-2020 11:20:00 15.9 C 72 % 10.86 C
3882 08-05-2020 11:25:00 16.2 C 71 % 10.94 C
3883 08-05-2020 11:30:00 16.4 C 69 % 10.7 C
3884 08-05-2020 11:35:00 16.7 C 67 % 10.55 C
3885 08-05-2020 11:40:00 17.1 C 63 % 10.01 C
3886 08-05-2020 11:45:00 17.4 C 60 % 9.56 C
3887 08-05-2020 11:50:00 17.7 C 58 % 9.34 C
3888 08-05-2020 11:55:00 17.9 C 57 % 9.27 C
3889 08-05-2020 12:00:00 18.2 C 56 % 9.29 C
3890 08-05-2020 12:05:00 18.3 C 53 % 8.56 C
3891 08-05-2020 12:10:00 18.6 C 53 % 8.84 C
3892 08-05-2020 12:15:00 18.7 C 53 % 8.93 C
3893 08-05-2020 12:20:00 18.8 C 51 % 8.46 C
3894 08-05-2020 12:25:00 19 C 50 % 8.35 C
3895 08-05-2020 12:30:00 19.2 C 48 % 7.93 C